     2.10           OBSERVATION DATA    G (GPS)             RINEX VERSION / TYPE
teqc 2005May6 SOPAC 20050707 00:32:36UTC                    PGM / RUN BY / DATE
Linux 2.4.20-8|Pentium IV|gcc|Linux|486/DX+                 COMMENT
BIT 2 OF LLI FLAGS DATA COLLECTED UNDER A/S CONDITION       COMMENT
HPGN CA 02 22                                               MARKER NAME
0222                                                        MARKER NUMBER
Dave McLennan                                               OBSERVER / AGENCY
0220223924 TRIMBLE 4700 1.30                                REC # / TYPE / VERS
0220078888 TRM22020.00+GP NONE                              ANT # / TYPE
 -2602872.0000 -4129456.0000  4091614.0000                  APPROX POSITION XYZ
        2.0000        0.0000        0.0000                  ANTENNA: DELTA H/E/N
     1     1                                                WAVELENGTH FACT L1/2
     6    L1    L2    C1    P2    P1    D1                  # / TYPES OF OBSERV
    15.0000                                                 INTERVAL
Northern California Height Modernization 2004               COMMENT
                                                            COMMENT
SOPAC - Scripps Orbit and Permanent Array Center            COMMENT
IGPP - Institute of Geophysics and Planetary Physics        COMMENT
SIO - Scripps Institution of Oceanography                   COMMENT
UCSD - University of California, San Diego                  COMMENT
                                                            COMMENT
email: archive@gpsmail.ucsd.edu                             COMMENT
ftp://garner.ucsd.edu                                       COMMENT
http://sopac.ucsd.edu                                       COMMENT
                                                            COMMENT
                                                            COMMENT
Approximate Lat, Lon : 40.160, -122.224                     COMMENT
                                                            COMMENT
SNR is mapped to RINEX snr flag value [0-9]                 COMMENT
L1 & L2: 2-19 dBHz = 1, 20-27 dBHz = 2, 28-31 dBHz = 3      COMMENT
32-35 dBHz = 4, 36-38 dBHz = 5, 39-41 dBHz = 6              COMMENT
42-44 dBHz = 7, 45-48 dBHz = 8, >= 49 dBHz = 9              COMMENT
  2004     9    10    20    59   30.0000000     GPS         TIME OF FIRST OBS
                                                            END OF HEADER
 04  9 10 20 59 30.0000000  0  6G 3G 8G13G16G23G27
       767.65258     -3982.93754  23182747.6254   23182749.4304
       -45.8444
    -27373.25858    -14201.83355  22905801.6174   22905802.1684
      1468.2664
     18014.76559      2386.78958  20311449.6724   20311447.7934
      -966.7504
     79315.32716                  24328368.758
     -4387.328
     63697.29659     18338.91057  21628892.6564   21628889.9414
     -3376.4534
     -4379.92859     -6022.51558  21545183.8204   21545182.9774
       231.1564
 04  9 10 20 59 45.0000000  0  6G 3G 8G13G16G23G27
      1519.25648     -3397.20444  23182891.0314   23182892.9344
       -54.8444
    -49376.82548    -31347.40745  22901615.1094   22901615.7934
      1465.0314
     32571.70549     13729.90348  20314219.9454   20314217.7774
      -974.5474
    145147.09646     76477.73052  24340896.1254   24340896.7304
     -4390.6564
    114389.31849     57839.20847  21638539.2424   21638536.1844
     -3382.8914
     -7824.79449     -8706.77947  21544528.1414   21544527.5944
       227.7194
 04  9 10 21  0  0.0000000  0  7G 3G 8G13G16G19G23G27
      2428.88048     -2688.34544  23183063.8054   23183065.6844
       -67.0474
    -71308.10048    -48436.66045  22897441.1484   22897441.7664
      1458.5474
     47269.56149     25182.79047  20317016.8914   20317015.1684
      -985.6724
    211052.86347    127832.81742  24353437.5004   24353438.1174
     -4397.3754
    -69905.31856    -51238.52053  24109383.5944   24109384.2584
      1551.1564
    165200.85049     97432.60347  21648208.0474   21648205.4964
     -3392.5474
    -11194.40449    -11332.42147  21543886.9454   21543886.1054
       221.0474
 04  9 10 21  0 15.0000000  0  7G 3G 8G13G16G19G23G27
      3536.62948     -1825.11144  23183275.2114   23183276.5824
       -81.1874
    -93127.05148    -65438.37945  22893289.5234   22893289.9264
      1450.0784
     62148.43749     36776.73447  20319848.1334   20319846.3204
      -998.7194
    277072.39946    179276.60242  24366000.3204   24366002.0824
     -4405.8124
    -93108.73847    -69319.01943  24104967.9064   24104969.2624
      1542.2344
    216171.86249    137150.26647  21657907.8834   21657905.3794
     -3404.1094
    -14448.70349    -13868.21347  21543267.6954   21543266.9064
       212.3754
 04  9 10 21  0 30.0000000  0  6G 3G 8G13G19G23G27
      4872.06148      -784.49044  23183529.0554   23183531.1024
       -97.3914
   -114804.37848    -82329.78845  22889164.2814   22889164.9884
      1439.6564
     77237.84549     48534.71247  20322719.3204   20322717.5554
     -1013.7034
   -116165.20846    -87284.96243  24100580.4144   24100581.3954
      1531.4384
    267331.50049    177014.89947  21667643.1334   21667640.2464
     -3417.6724
    -17558.55149    -16291.44747  21542675.7344   21542674.6914
       201.6724
 04  9 10 21  0 45.0000000  0  6G 3G 8G13G19G23G27
      6458.29448       451.57544  23183830.5084   23183832.7894
      -114.5164
   -136317.34248    -99093.10245  22885070.6414   22885070.8594
      1428.2974
     92560.71449     60474.60847  20325635.3524   20325633.3164
     -1029.7344
   -139051.55346   -105118.35143  24096225.4534   24096226.3674
      1519.5634
    318702.40449    217044.16247  21677418.5164   21677415.9734
     -3432.1874
    -20501.04749    -18584.27647  21542115.8204   21542115.1804
       190.1254
 04  9 10 21  1  0.0000000  0  6G 3G 8G13G19G23G27
      8308.08148      1893.00844  23184182.2504   23184184.6374
      -132.4224
   -157653.32548   -115718.50445  22881011.0634   22881010.7734
      1416.1884
    108129.85249     72606.41847  20328597.8674   20328596.4224
     -1046.4694
   -161754.92146   -122809.17243  24091904.2344   24091905.6484
      1507.2344
    370297.14049    257247.84147  21687236.7734   21687234.1374
     -3447.3754
    -23263.75449    -20737.01647  21541590.2274   21541589.5434
       177.9224
 04  9 10 21  1 15.0000000  0  6G 3G 8G13G19G23G27
     10428.94548      3545.65844  23184586.7894   23184587.8754
      -150.4694
   -178804.68148   -132200.03645  22876985.6414   22876986.1374
      1403.8914
    123952.60749     84935.84347  20331608.8204   20331607.1644
     -1063.4224
   -184267.50047   -140351.31443  24087620.6954   24087621.8524
      1494.4224
    422122.91149    297631.55647  21697099.1334   21697095.8754
     -3462.8124
    -25839.23049    -22743.85247  21541100.0084   21541099.1844
       165.3754
 04  9 10 21  1 30.0000000  0  6G 3G 8G13G19G23G27
     12820.23048      5409.03744  23185041.1954   23185042.8364
      -168.3284
   -199772.21648   -148538.36045  22872995.6724   22872996.0314
      1391.8444
    140028.10149     97462.19347  20334668.3834   20334666.2774
     -1079.9694
   -206589.80647   -157745.21143  24083372.8204   24083374.0314
      1481.8914
    474178.65549    338194.44547  21707004.9384   21707002.2894
     -3477.9224
    -28228.58849    -24605.67947  21540645.5234   21540644.6644
       153.2344
 04  9 10 21  1 45.0000000  0  6G 3G 8G13G19G23G27
     15484.01648      7484.75344  23185547.7344   23185549.4964
      -186.6254
   -220554.29548   -164732.15745  22869040.8914   22869041.4264
      1379.3594
    156358.46149    110187.16547  20337775.6954   20337773.7584
     -1097.1564
   -228719.53147   -174989.04943  24079162.3204   24079163.2424
      1468.9534
    526466.14249    378937.92147  21716954.8364   21716952.4734
     -3493.5474
    -30429.74349    -26320.85847  21540226.4384   21540225.7704
       140.5164
 04  9 10 21  2  0.0000000  0  6G 3G 8G13G19G23G27
     18412.26948      9766.55644  23186105.4304   23186106.5474
      -204.1414
   -241159.10348   -180787.81245  22865119.7504   22865120.6054
      1367.7194
    172935.47749    123104.31547  20340930.4304   20340928.0554
     -1113.4064
   -250664.70947   -192089.06543  24074985.4224   24074986.6914
      1456.7814
    578977.09249    419855.53247  21726947.3134   21726944.1024
     -3508.2194
    -32451.13949    -27895.95447  21539841.9924   21539840.9144
       128.7194
 04  9 10 21  2 15.0000000  0  6G 3G 8G13G19G23G27
     21597.62648     12248.68044  23186711.3984   23186712.7274
      -220.9844
   -261594.23848   -196711.26745  22861231.0634   22861231.4304
      1356.6254
    189751.90449    136208.02047  20344130.2584   20344128.3914
     -1129.1094
   -272432.53746   -209050.91143  24070843.0314   24070844.6374
      1445.1884
    631703.79149    460941.24947  21736980.9844   21736978.4344
     -3522.4064
    -34300.14649    -29336.72647  21539490.4384   21539489.2304
       117.4694
 04  9 10 21  2 30.0000000  0  6G 3G 8G13G19G23G27
     25031.25048     14924.26144  23187364.9614   23187365.6954
      -237.2974
   -281868.48048   -212509.33445  22857372.9614   22857373.4654
      1346.1724
    206798.72649    149491.26647  20347374.4064   20347372.3874
     -1144.3284
   -294031.50347   -225881.16943  24066732.2814   24066734.0474
      1434.1884
    684637.25749    502188.09347  21747053.9224   21747050.7934
     -3535.9224
    -35985.93449    -30650.31047  21539169.2894   21539168.4414
       106.8284
 04  9 10 21  2 45.0000000  0  6G 3G 8G13G19G23G27
     28709.43548     17790.40744  23188064.6564   23188066.0474
      -253.7034
   -301985.58548   -228184.97645  22853544.7504   22853544.8364
      1335.5634
    224072.15649    162951.08047  20350661.2814   20350659.1804
     -1159.4694
   -315465.24546   -242582.69143  24062653.5084   24062655.8094
      1423.0634
    737773.41949    543592.86247  21757165.5944   21757162.6054
     -3549.4374
    -37512.31349    -31839.69247  21538878.8364   21538877.8914
        96.0944
 04  9 10 21  3  0.0000000  0  6G 3G 8G13G19G23G27
     32622.53848     20839.60844  23188809.0864   23188811.0944
      -268.3594
   -321955.99348   -243746.30145  22849744.6724   22849744.9844
      1326.8914
    241562.40149    176579.85147  20353989.2344   20353987.8794
     -1172.8754
   -336743.25847   -259162.86743  24058604.9924   24058606.9304
      1413.7344
    791102.30149    585147.82747  21767313.8674   21767310.9494
     -3561.2814
    -38889.39349    -32912.70747  21538616.5944   21538616.0044
        87.2344
 04  9 10 21  3 15.0000000  0  6G 3G 8G13G19G23G27
     36763.82748     24066.61744  23189597.5704   23189598.9454
      -284.0944
   -341786.25648   -259198.42245  22845971.0474   22845971.3834
      1316.9384
    259262.58449    190372.20847  20357357.7504   20357355.9574
     -1187.3914
   -357872.00946   -275626.70643  24054584.1414   24054585.4844
      1403.2194
    844616.76849    626847.39547  21777497.1254   21777494.0704
     -3574.1564
    -40124.03149    -33874.74647  21538381.5944   21538380.9024
        77.2034
 04  9 10 21  3 30.0000000  0  6G 3G 8G13G19G23G27
     41129.11048     27468.16644  23190427.8914   23190429.4344
      -298.5624
   -361480.60448   -274544.64145  22842223.1884   22842223.8404
      1308.3594
    277168.45749    204324.83447  20360765.3284   20360763.5554
     -1200.6874
   -378855.59546   -291977.47243  24050590.9774   24050592.5084
      1393.8914
    898312.32749    668688.06647  21787715.2194   21787712.0744
     -3585.8284
    -41220.60849    -34729.21247  21538173.5084   21538172.6914
        68.4064
 04  9 10 21  3 45.0000000  0  6G 3G 8G13G19G23G27
     45711.14848     31038.60944  23191300.0004   23191301.6844
      -312.4224
   -381046.59449   -289790.83945  22838500.1484   22838500.5554
      1300.4064
    295272.70749    218432.04147  20364210.3444   20364208.4964
     -1213.3124
   -399701.14247   -308220.64143  24046624.2504   24046625.3874
      1385.3444
    952181.47749    710664.00647  21797966.0314   21797963.1844
     -3596.8914
    -42186.59849    -35481.92047  21537989.0164   21537988.6024
        60.2814
 04  9 10 21  4  0.0010000  0  6G 3G 8G13G19G23G27
     50498.79948     34769.27544  23192211.1854   23192213.3724
      -326.2504
   -400497.30948   -304947.20445  22834798.5604   22834799.4234
      1292.4694
    313565.07649    232685.83647  20367690.8414   20367689.2164
     -1225.9064
   -420421.25547   -324366.08943  24042681.0054   24042682.0174
      1376.7664
   1006216.05149    752768.84647  21808248.5214   21808246.0754
     -3607.7194
    -43033.82849    -36142.08947  21537827.9424   21537827.2594
        52.2974
 04  9 10 21  4 15.0010000  0  6G 3G 8G13G19G23G27
     55490.51948     38658.96844  23193160.7164   23193162.5874
      -339.5004
   -419830.67049   -320012.13545  22831119.3964   22831119.5404
      1285.1884
    332042.17649    247083.57947  20371207.2394   20371205.7514
     -1237.9224
   -441013.71847   -340412.07143  24038762.6924   24038763.6694
      1368.7034
   1060407.77349    794996.14147  21818560.9354   21818557.8994
     -3617.9534
    -43763.16549    -36710.38947  21537689.1304   21537689.0484
        44.8594
 04  9 10 21  4 30.0010000  0  6G 3G 8G13G19G23G27
     60680.77448     42703.35244  23194148.5284   23194150.5634
      -352.5624
   -439054.23149   -334991.48845  22827461.5604   22827461.4114
      1277.9384
    350699.13249    261621.47047  20374757.5214   20374755.9074
     -1249.7814
   -461485.72247   -356364.19943  24034867.0214   24034867.7314
      1360.8754
   1114753.90949    837343.76146  21828902.4584   21828899.5134
     -3628.2194
    -44380.75949    -37191.62047  21537571.8804   21537570.7944
        37.4384
 04  9 10 21  4 45.0010000  0  6G 3G 8G13G19G23G27
     66066.49848     46900.06344  23195173.2164   23195175.4894
      -365.6094
   -458171.48349   -349888.03145  22823823.6224   22823823.9114
      1270.9064
    369532.78149    276297.03547  20378341.2784   20378339.3604
     -1261.5164
   -481840.24847   -372224.77743  24030993.4974   24030994.3024
      1353.0164
   1169251.06249    879809.05547  21839272.8804   21839269.9974
     -3638.2344
    -44889.83049    -37588.28247  21537474.9584   21537474.3994
        30.2664
 04  9 10 21  5  0.0010000  0  6G 3G 8G13G19G23G27
     71645.82048     51247.60944  23196235.1694   23196237.0834
      -378.5004
   -477184.38948   -364703.24645  22820205.6464   22820205.7164
      1263.9694
    388541.24949    291108.83647  20381958.4974   20381957.0134
     -1273.2344
   -502078.98647   -387995.12843  24027142.1774   24027143.1884
      1345.2974
   1223897.19149    922390.43147  21849671.9194   21849668.6184
     -3648.0944
    -45292.65349    -37902.16447  21537397.6854   21537397.4664
        23.2194
 04  9 10 21  5 15.0010000  0  6G 3G 8G13G19G23G27
     77413.98348     55742.30944  23197332.5754   23197334.0014
      -391.1094
   -496097.90648   -379441.01945  22816606.2164   22816606.8454
      1257.3444
    407719.78149    306053.14247  20385607.9974   20385606.3994
     -1284.4694
   -522206.44247   -403678.78543  24023312.5054   24023313.1494
      1337.7504
   1278687.19449    965083.91847  21860098.0284   21860095.4234
     -3657.6254
    -45593.97249    -38136.94447  21537340.5674   21537339.9234
        16.5004
 04  9 10 21  5 30.0010000  0  6G 3G 8G13G19G23G27
     83366.27148     60380.47044  23198465.3414   23198466.9234
      -402.7814
   -514916.97848   -394105.19945  22813025.1464   22813025.7284
      1251.5634
    427063.36649    321126.06748  20389289.0994   20389287.1574
     -1294.9374
   -542227.35447   -419279.42243  24019502.2784   24019503.3644
      1331.2974
   1333615.95549   1007885.53047  21870550.8564   21870547.6694
     -3666.4224
    -45799.05549    -38296.74047  21537301.8884   21537300.6814
        10.6094
 04  9 10 21  5 45.0010000  0  6G 3G 8G13G19G23G27
     89497.41948     65158.00544  23199632.1064   23199633.7044
      -415.1094
   -533646.58548   -408699.66245  22809461.1854   22809461.8564
      1245.2814
    446566.89449    336323.62147  20393000.1854   20392998.8644
     -1305.9694
   -562146.58647   -434800.78943  24015711.0524   24015712.8104
      1324.1884
   1388677.92549   1050790.93446  21881028.3254   21881025.6494
     -3675.5474
    -45912.97649    -38385.49847  21537279.7714   21537279.3764
         4.1724
 04  9 10 21  6  0.0010000  0  6G 3G 8G13G19G23G27
     95806.86348     70074.48744  23200832.7714   23200834.2044
      -426.3914
   -552287.61848   -423225.10445  22805914.0444   22805913.9784
      1239.9844
    466229.66549    351645.25847  20396742.1534   20396740.2864
     -1316.0474
   -581964.54347   -450243.28743  24011940.0054   24011940.7004
      1317.9844
   1443872.41849   1093799.60647  21891532.1064   21891528.8924
     -3683.9064
    -45936.67949    -38403.95047  21537275.5674   21537274.8294
        -1.2814
 04  9 10 21  6 15.0010000  0  6G 3G 8G13G19G23G27
    102296.87948     75131.65544  23202067.6384   23202069.1884
      -438.4844
   -570838.01748   -437679.93546  22802383.5214   22802384.5054
      1233.9224
    486053.86949    367092.69448  20400514.6694   20400513.1694
     -1326.7344
   -601678.65647   -465604.87443  24008188.3564   24008189.2714
      1311.1254
   1499201.41849   1136913.09546  21902060.9274   21902058.0174
     -3692.8914
    -45868.10549    -38350.51247  21537288.7244   21537287.9314
        -7.3754
 04  9 10 21  6 30.0010000  0  6G 3G 8G13G19G23G27
    108961.40848     80324.81944  23203336.0054   23203336.8924
      -449.5314
   -589304.13948   -452069.09045  22798869.2864   22798870.2674
      1228.8594
    506033.25449    382661.04547  20404316.5214   20404314.7394
     -1336.5624
   -621294.90747   -480890.19143  24004455.7634   24004456.0674
      1305.1564
   1554658.37649   1180126.29246  21912613.7554   21912611.0244
     -3700.7664
    -45713.40149    -38229.94747  21537317.4894   21537317.2434
       -12.5784
 04  9 10 21  6 45.0010000  0  6G 3G 8G13G19G23G27
    115794.54148     85649.35344  23204635.9504   23204637.2634
      -461.3124
   -607692.24848   -466397.45345  22795370.3104   22795371.1064
      1223.0004
    526161.85149    398345.67047  20408146.6694   20408145.0794
     -1347.0944
   -640819.09447   -496103.75443  24000740.4894   24000741.3684
      1298.2664
   1610237.03749   1223434.31046  21923189.8414   21923187.5914
     -3709.4844
    -45478.85149    -38047.17347  21537362.6694   21537361.9784
       -18.5474
 04  9 10 21  7  0.0010000  0  6G 3G 8G13G19G23G27
    122795.55848     91104.72044  23205968.4584   23205969.2004
      -471.8444
   -626002.79848   -480665.37945  22791885.8884   22791886.8294
      1218.6724
    546438.87549    414145.94547  20412005.3174   20412003.6494
     -1356.1874
   -660251.62247   -511245.91243  23997042.3644   23997043.2244
      1293.0164
   1665936.47249   1266836.44547  21933788.9354   21933786.6034
     -3716.7664
    -45165.35549    -37802.87647  21537422.3964   21537421.3564
       -22.9844
 04  9 10 21  7 15.0010000  0  6G 3G 8G13G19G23G27
    129962.63848     96689.47244  23207332.4424   23207333.0954
      -483.4224
   -644237.93248   -494874.54345  22788415.6224   22788416.3884
      1213.1564
    566862.46449    430060.43248  20415892.0914   20415890.0834
     -1366.4844
   -679594.25747   -526318.02543  23993361.9424   23993362.8604
      1286.4384
   1721754.51749   1310331.00046  21944411.1854   21944408.2354
     -3725.1874
    -44774.85349    -37498.59347  21537496.6614   21537495.6964
       -28.6564
 04  9 10 21  7 30.0010000  0  6G 3G 8G13G19G23G27
    137297.66348    102405.09944  23208728.0914   23208729.1034
      -494.9224
   -662395.88948   -509023.56745  22784960.4814   22784961.0014
      1207.6884
    587434.36649    446090.47747  20419806.4814   20419804.8294
     -1376.6874
   -698844.97747   -541318.50544  23989697.9584   23989698.9194
      1280.0314
   1777692.79449   1353919.24447  21955056.0364   21955053.1064
     -3733.5314
    -44305.78649    -37133.07548  21537585.7784   21537584.6774
       -34.1724
 04  9 10 21  7 45.0010000  0  6G 3G 8G13G19G23G27
    144797.62448    108249.25544  23210155.2004   23210156.6304
      -505.5624
   -680479.73048   -523114.84945  22781519.0134   22781519.2744
      1202.9384
    608151.52249    462233.72547  20423749.1304   20423747.5324
     -1386.1414
   -718006.59547   -556249.57443  23986051.1304   23986052.1144
      1274.3914
   1833748.03449   1397598.63447  21965722.7314   21965720.1654
     -3741.0474
    -43761.18549    -36708.69848  21537689.3104   21537688.5754
       -38.9534
 04  9 10 21  8  0.0010000  0  6G 3G 8G13G19G23G27
    152464.20448    114223.24044  23211613.5054   23211615.8134
      -516.5944
   -698488.02548   -537147.23745  22778092.2164   22778092.7714
      1198.1724
    629015.52449    478491.38747  20427719.2714   20427717.5174
     -1395.6564
   -737077.13747   -571109.67043  23982422.7944   23982422.6264
      1268.4384
   1889921.63449   1441370.24446  21976411.8024   21976409.9074
     -3748.7034
    -43139.61849    -36224.34148  21537807.8334   21537807.0754
       -43.8754
 04  9 10 21  8 15.0010000  0  6G 3G 8G13G19G23G27
    160292.30448    120323.08144  23213104.0364   23213105.3964
      -527.2034
   -716425.99448   -551124.85845  22774679.0444   22774679.0564
      1193.6254
    650021.26549    494859.49747  20431716.6384   20431714.5564
     -1405.0624
   -756061.46847   -585902.59843  23978810.0914   23978809.7284
      1262.8914
   1946208.20649   1485229.89246  21987123.2784   21987120.3924
     -3756.2504
    -42446.51549    -35684.24547  21537939.4894   21537939.1344
       -48.5624
 04  9 10 21  8 30.0010000  0  6G 3G 8G13G19G23G27
    168282.67948    126549.36844  23214624.3174   23214625.7244
      -538.1724
   -734292.94648   -565047.13145  22771279.0524   22771279.3134
      1188.7814
    671169.40849    511338.56447  20435740.6534   20435739.2674
     -1414.6874
   -774958.63247   -600627.59944  23975213.4584   23975214.3964
      1256.8754
   2002608.25649   1529177.95246  21997856.2084   21997853.0244
     -3763.8754
    -41681.15349    -35087.85647  21538085.0834   21538084.3564
       -53.4534
 04  9 10 21  8 45.0010000  0  6G 3G 8G13G19G23G27
    176429.37048    132897.45744  23216174.0444   23216176.3564
      -548.4694
   -752095.28048   -578919.03945  22767891.2084   22767891.7984
      1184.5474
    692453.86649    527923.86247  20439790.9894   20439789.2284
     -1423.6414
   -793774.37847   -615289.15043  23971633.7784   23971634.3374
      1251.5004
   2059115.38649   1573209.46446  22008609.0674   22008606.0364
     -3770.8124
    -40849.65949    -34439.92047  21538243.6464   21538242.5364
       -57.7814
 04  9 10 21  9  0.0010000  0  6G 3G 8G13G19G23G27
    184733.11348    139367.92644  23217754.7394   23217756.5604
      -559.0474
   -769831.99548   -592739.82745  22764516.2084   22764515.9194
      1180.0944
    713875.48749    544616.03647  20443867.9664   20443865.8724
     -1432.8914
   -812507.71047   -629886.49243  23968068.5444   23968069.1734
      1245.9224
   2115730.22549   1617324.90147  22019382.3494   22019379.8214
     -3778.1254
    -39951.47349    -33740.02747  21538414.4114   21538413.8104
       -62.3594
 04  9 10 21  9 15.0010000  0  6G 3G 8G13G19G23G27
    193196.41248    145962.72844  23219364.9424   23219366.8884
      -569.5784
   -787500.87148   -606507.74345  22761153.9814   22761154.0754
      1175.6724
    735436.47349    561416.79547  20447970.6854   20447968.9194
     -1442.0314
   -831156.17547   -644417.70943  23964519.8884   23964520.3174
      1240.2664
   2172454.83449   1661525.86247  22030176.8414   22030173.7474
     -3785.3754
    -38984.42949    -32986.47947  21538598.2164   21538597.8764
       -66.7194
 04  9 10 21  9 30.0010000  0  6G 3G 8G13G19G23G27
    201817.19148    152680.23944  23221005.4034   23221006.9934
      -579.7814
   -805104.22848   -620224.60745  22757804.0834   22757804.4664
      1171.4844
    757134.77749    578324.56347  20452099.4584   20452097.8494
     -1451.0784
   -849721.53147   -658884.18544  23960987.1694   23960987.5174
      1234.9694
   2229286.81149   1705810.50046  22040991.6384   22040989.0604
     -3792.2344
    -37950.83349    -32181.06747  21538795.0834   21538794.1814
       -70.9844
 04  9 10 21  9 45.0010000  0  6G 3G 8G13G19G23G27
    210599.45648    159523.58344  23222676.3564   23222678.4424
      -590.8914
   -822638.20948   -633887.40545  22754467.6384   22754467.4784
      1166.6414
    778974.18849    595342.28847  20456255.5214   20456253.7744
     -1460.6094
   -868199.64747   -673282.65844  23957471.1694   23957471.2354
      1229.0004
   2286229.92149   1750181.73247  22051827.3104   22051824.9664
     -3799.8754
    -36846.76349    -31320.73948  21539005.1464   21539004.6424
       -75.9374
 04  9 10 21 10  0.0010000  0  6G 3G 8G13G19G23G27
    219535.68648    166486.90744  23224377.3724   23224378.5134
      -601.0004
   -840110.15648   -647501.87545  22751142.7164   22751143.1104
      1162.5784
    800947.21149    612464.12547  20460436.7244   20460435.1184
     -1469.4374
   -886597.71547   -687618.78443  23953970.0054   23953969.7904
      1223.7504
   2343276.31249   1794633.44046  22062683.1144   22062680.4934
     -3806.6254
    -35679.77349    -30411.39347  21539227.0444   21539226.5214
       -80.0624
 04  9 10 21 10 15.0010000  0  6G 3G 8G13G19G23G27
    228628.90348    173572.54144  23226107.7084   23226108.4154
      -611.3124
   -857517.47348   -661065.98245  22747829.7164   22747830.2514
      1158.3914
    823056.99049    629692.52147  20464644.2784   20464642.4114
     -1478.4844
   -904912.48046   -701889.98143  23950484.2164   23950484.4354
      1218.2504
   2400428.88149   1839167.88147  22073559.2634   22073556.3414
     -3813.5944
    -34447.20249    -29450.94347  21539461.5364   21539461.0174
       -84.3124
 04  9 10 21 10 30.0010000  0  6G 3G 8G13G19G23G27
    237877.97948    180779.64644  23227867.4504   23227868.5954
      -621.9224
   -874861.58048   -674580.82845  22744529.3804   22744529.9074
      1154.0004
    845302.11649    647026.38847  20468877.4114   20468875.5564
     -1487.6254
   -923144.94747   -716097.03344  23947014.9584   23947015.4114
      1212.6724
   2457686.03049   1883783.82246  22084454.6304   22084451.6224
     -3820.8124
    -33150.34849    -28440.38747  21539708.5134   21539707.6734
       -88.7974
 04  9 10 21 10 45.0010000  0  6G 3G 8G13G19G23G27
    247282.09348    188107.56044  23229656.7474   23229657.9544
      -631.6094
   -892143.16848   -688046.97845  22741240.9194   22741240.8454
      1150.4534
    867681.68149    664465.01747  20473135.9584   20473134.3214
     -1496.0004
   -941295.76747   -730240.48644  23943561.0364   23943561.1264
      1207.7814
   2515046.71149   1928480.43347  22095370.1064   22095367.3994
     -3827.0624
    -31790.10949    -27380.45147  21539967.3494   21539966.6734
       -92.3444
 04  9 10 21 11  0.0010000  0  6G 3G 8G13G19G23G27
    256839.02748    195554.54144  23231476.2784   23231476.3104
      -642.6874
   -909364.67148   -701466.29745  22737963.7864   22737963.9234
      1145.6094
    890193.38449    682006.59947  20477419.5214   20477418.1964
     -1505.7194
   -959367.00047   -744321.93443  23940122.1854   23940121.8564
      1201.5474
   2572508.47049   1973255.80246  22106304.7004   22106301.9934
     -3834.6724
    -30369.01949    -26273.10447  21540237.8724   21540237.0994
       -97.2814
 04  9 10 21 11 15.0010000  0  6G 3G 8G13G19G23G27
    266548.05148    203120.04344  23233323.5524   23233324.2474
      -652.0474
   -926526.88348   -714839.42045  22734697.6384   22734697.8764
      1142.5634
    912836.53049    699650.61247  20481728.4354   20481726.8134
     -1513.5784
   -977359.07947   -758341.68343  23936697.9424   23936698.0174
      1197.1414
   2630070.31549   2018109.16146  22117258.0134   22117255.6734
     -3840.3914
    -28887.84349    -25118.93147  21540519.5054   21540519.1344
      -100.4064
 04  9 10 21 11 30.0010000  0  6G 3G 8G13G19G23G27
    276408.93648    210803.88744  23235200.0604   23235200.7714
      -662.3124
   -943630.22148   -728166.66845  22731442.9584   22731443.4704
      1138.5164
    935610.64349    717396.67147  20486062.2084   20486060.6064
     -1522.3914
   -995272.00746   -772299.75243  23933289.3804   23933289.0324
      1191.6724
   2687731.68949   2063040.07346  22128230.7084   22128228.2314
     -3847.1724
    -27347.03449    -23918.29148  21540812.9894   21540812.1424
      -104.4534
 04  9 10 21 11 45.0010000  0  6G 3G 8G13G19G23G27
    286421.75448    218606.10944  23237105.4584   23237105.8254
      -672.9064
   -960674.59948   -741447.97245  22728199.4584   22728199.5994
      1133.9694
    958515.95049    735244.96847  20490421.0134   20490419.2594
     -1531.6874
  -1013105.45246   -786195.91543  23929895.5674   23929895.4814
      1185.9224
   2745492.46849   2108048.45046  22139222.7244   22139219.7204
     -3854.3284
    -25746.60249    -22671.19548  21541117.2864   21541116.9974
      -108.9844
 04  9 10 21 12  0.0010000  0  6G 3G 8G13G19G23G27
    296589.97748    226529.43144  23239040.2164   23239041.0524
      -682.6724
   -977656.68448   -754680.72745  22724968.1924   22724968.3064
      1130.5004
    981555.95349    753198.21247  20494805.5604   20494803.8724
     -1540.0624
  -1030855.74147   -800027.24744  23926517.4584   23926518.0284
      1180.9694
   2803355.76549   2153136.70046  22150233.3334   22150230.8804
     -3860.5314
    -24083.30649    -21375.11847  21541433.8104   21541433.0524
      -112.5624
 04  9 10 21 12 15.0010000  0  6G 3G 8G13G19G23G27
    306907.94948    234569.43944  23241003.5674   23241005.0954
      -692.9374
   -994582.45448   -767869.60045  22721747.3024   22721746.9544
      1126.4534
   1004724.80249    771251.85847  20499214.4664   20499212.3174
     -1548.9534
  -1048528.30547   -813798.03043  23923155.0834   23923155.1304
      1175.4384
   2861315.71449   2198300.27146  22161263.2784   22161260.4034
     -3867.2664
    -22362.97649    -20034.58947  21541761.0754   21541760.4544
      -116.6564
 04  9 10 21 12 30.0010000  0  6G 3G 8G13G19G23G27
    317379.21648    242728.89444  23242995.5604   23242997.4664
      -703.2974
  -1011448.46549   -781011.91545  22718538.0134   22718537.7744
      1122.3444
   1028025.91649    789408.57947  20503648.4974   20503646.6534
     -1557.9064
  -1066119.51947   -827505.39644  23919807.8804   23919807.3134
      1170.0634
   2919375.46549   2243541.61247  22172311.4584   22172308.8644
     -3874.1094
    -20582.21549    -18646.97248  21542100.3964   21542099.2744
      -120.7814
 04  9 10 21 12 45.0010000  0  6G 3G 8G13G19G23G27
    328001.19648    251005.77644  23245017.3884   23245019.0994
      -712.6724
  -1028257.15349   -794109.57445  22715339.5444   22715339.1264
      1119.0634
   1051456.59049    807666.24648  20508107.3494   20508105.5484
     -1565.8914
  -1083631.67147   -841151.20643  23916475.1534   23916475.5214
      1165.2504
   2977532.13849   2288858.47146  22183378.2784   22183375.5604
     -3879.9224
    -18743.90649    -17214.52147  21542449.9274   21542449.3564
      -124.0624
 04  9 10 21 13  0.0010000  0  6G 3G 8G13G19G23G27
    338772.80748    259399.25844  23247066.6384   23247068.4664
      -723.0944
  -1045009.97248   -807163.68245  22712150.9814   22712150.7944
      1114.9534
   1075015.72149    826024.01047  20512590.3494   20512588.8684
     -1574.8594
  -1101065.74646   -854736.15943  23913156.9814   23913157.3994
      1159.6724
   3035784.32849   2334249.75146  22194463.1464   22194461.1424
     -3886.6414
    -16849.19949    -15738.11447  21542810.1614   21542809.9234
      -128.1874
 04  9 10 21 13 15.0010000  0  6G 3G 8G13G19G23G27
    349695.88748    267910.76144  23249145.4194   23249147.3684
      -733.1724
  -1061705.29148   -820172.98445  22708974.1384   22708973.9194
      1111.2344
   1098705.12249    844483.28647  20517098.2314   20517096.5794
     -1583.5624
  -1118419.54546   -868258.55544  23909854.6304   23909855.5444
      1154.3594
   3094133.63549   2379716.71446  22205566.6384   22205564.3024
     -3893.0784
    -14896.40149    -14216.44247  21543181.8804   21543181.4814
      -132.0314
 04  9 10 21 13 30.0010000  0  6G 3G 8G13G19G23G27
    360771.39648    276541.04144  23251253.2164   23251254.9544
      -743.6414
  -1078341.98248   -833136.61345  22705808.1854   22705808.0994
      1106.8914
   1122525.66949    863044.74747  20521631.3414   20521629.5054
     -1592.6254
  -1135691.86147   -881717.46244  23906568.6924   23906568.8764
      1148.6414
   3152580.84149   2425259.95946  22216689.1384   22216685.9464
     -3899.9374
    -12884.67749    -12648.86547  21543565.1694   21543564.0174
      -136.3444
 04  9 10 21 13 45.0010000  0  6G 3G 8G13G19G23G27
    371996.59848    285288.00144  23253389.3024   23253390.8494
      -753.4374
  -1094923.14849   -846056.97745  22702652.9584   22702653.0364
      1103.3594
   1146474.57949    881706.24047  20526188.3254   20526187.0874
     -1601.0784
  -1152885.24447   -895114.86444  23903296.6464   23903297.3104
      1143.3754
   3211122.85149   2470877.08246  22227829.0604   22227826.5284
     -3906.1564
    -10816.98349    -11037.66247  21543958.3254   21543957.5874
      -139.8914
 04  9 10 21 14  0.0010000  0  6G 3G 8G13G19G23G27
    383372.32548    294152.21344  23255553.9114   23255555.5834
      -763.5944
  -1111448.01548   -858933.47245  22699508.2004   22699508.2984
      1099.5004
   1170552.67249    900468.38347  20530770.3104   20530768.8024
     -1609.7344
  -1169998.74747   -908450.01544  23900039.3964   23900040.1924
      1138.0164
   3269760.24149   2516568.53546  22238987.4664   22238984.8604
     -3912.5944
     -8692.62849     -9382.31847  21544362.7784   21544361.6884
      -143.7344
 04  9 10 21 14 15.0010000  0  6G 3G 8G13G19G23G27
    394900.66448    303135.36844  23257747.7474   23257748.9784
      -773.2664
  -1127914.53548   -871764.48345  22696374.8644   22696374.5714
      1096.2504
   1194761.84949    919332.67547  20535377.1614   20535375.5754
     -1617.8754
  -1187030.01347   -921721.08944  23896799.3964   23896799.3024
      1133.1094
   3328494.81249   2562335.70946  22250164.4584   22250161.1964
     -3918.4694
     -6509.67549     -7681.30347  21544777.9974   21544777.1814
      -147.0944
 04  9 10 21 14 30.0010000  0  6G 3G 8G13G19G23G27
    406577.36348    312234.11044  23259969.7554   23259970.8924
      -783.4374
  -1144327.10048   -884553.46345  22693251.3724   22693251.6494
      1092.3284
   1219097.93049    938295.86647  20540008.0604   20540006.6964
     -1626.6724
  -1203983.00747   -934931.16544  23893572.9814   23893573.3724
      1127.5784
   3387322.07849   2608175.10546  22261358.6924   22261355.9744
     -3924.9064
     -4272.60349     -5938.12147  21545203.7004   21545203.0094
      -150.9844
 04  9 10 21 14 45.0010000  0  6G 3G 8G13G19G23G27
    418402.54648    321448.58144  23262219.4504   23262220.5284
      -793.1564
  -1160685.61548   -897300.33145  22690138.4974   22690139.0834
      1088.9384
   1243560.86649    957357.88647  20544663.2084   20544661.7244
     -1634.9844
  -1220857.48848   -948080.05844  23890361.7474   23890362.1344
      1122.4694
   3446241.79049   2654086.54646  22272570.7314   22272568.2674
     -3930.9534
     -1981.36249     -4152.72747  21545639.8414   21545639.0014
      -154.4694
 04  9 10 21 15  0.0010000  0  6G 3G 8G13G19G23G27
    430375.38848    330778.08944  23264497.9274   23264499.1424
      -803.3124
  -1176991.07848   -910005.86646  22687035.9274   22687035.9814
      1085.0944
   1268149.81949    976518.10548  20549342.7084   20549340.9974
     -1643.6254
  -1237654.02047   -961168.22744  23887165.6774   23887165.8414
      1116.9224
   3505252.94449   2700069.22346  22283799.9504   22283797.9034
     -3937.2814
       363.06049     -2325.90147  21546085.8644   21546085.0244
      -158.2034
 04  9 10 21 15 15.0010000  0  6G 3G 8G13G19G23G27
    442499.09748    340225.16644  23266804.9664   23266806.7204
      -812.7504
  -1193240.30248   -922667.56346  22683943.2474   22683943.5364
      1081.9224
   1292867.98249    995779.01347  20554046.2164   20554044.3804
     -1651.6724
  -1254369.14147   -974192.95144  23883984.6924   23883984.7314
      1112.1094
   3564358.51549   2746125.49346  22295047.7084   22295045.4194
     -3942.9374
      2763.70449      -455.25447  21546542.6694   21546541.6304
      -161.4224
 04  9 10 21 15 30.0010000  0  6G 3G 8G13G19G23G27
    454770.29148    349787.14644  23269139.8174   23269141.7864
      -822.9534
  -1209436.91948   -935288.28746  22680861.1854   22680860.7124
      1078.0314
   1317712.00049   1015137.98447  20558774.0284   20558771.8764
     -1660.4064
  -1271005.85347   -987156.57344  23880818.3964   23880818.7904
      1106.5784
   3623554.84148   2792252.46646  22306312.5364   22306309.5174
     -3949.3754
      5217.18749      1456.54147  21547009.7634   21547008.5994
      -165.2344
 04  9 10 21 15 45.0010000  0  6G 3G 8G13G19G23G27
    467187.45848    359462.89144  23271502.9194   23271504.7044
      -832.5474
  -1225582.29648   -947869.07045  22677788.8254   22677789.0994
      1074.8444
   1342680.38049   1034593.86547  20563525.4274   20563523.5054
     -1668.5624
  -1287565.62947  -1000060.22944  23877667.4584   23877667.8104
      1101.6724
   3682840.11049   2838448.76346  22317593.7164   22317591.3964
     -3955.1564
      7721.75649      3408.17847  21547486.3104   21547485.4354
      -168.4224
 04  9 10 21 16  0.0010000  0  6G 3G 8G13G19G23G27
    479754.06148    369255.07344  23273894.5284   23273895.6184
      -842.6564
  -1241673.21148   -960407.41946  22674726.9894   22674727.1224
      1071.0164
   1367776.19349   1054149.04447  20568300.7714   20568298.7864
     -1677.2194
  -1304044.82747  -1012901.10444  23874531.5524   23874531.6464
      1096.0634
   3742217.38348   2884716.73746  22328892.9814   22328890.9274
     -3961.4374
     10280.73649      5402.20147  21547973.0834   21547972.6854
      -172.3124
 04  9 10 21 16 15.0010000  0  6G 3G 8G13G19G23G27
    492468.52848    379162.46344  23276313.7784   23276315.9624
      -852.7814
  -1257711.40348   -972904.68846  22671674.7864   22671675.0954
      1067.2344
   1392997.85649   1073802.27947  20573100.4354   20573098.5094
     -1685.8594
  -1320444.63047  -1025680.12544  23871410.5914   23871410.1774
      1090.4384
   3801685.04348   2931055.12446  22340209.3414   22340207.0794
     -3967.7344
     12892.37749      7437.24148  21548469.9584   21548469.5094
      -176.0624
 04  9 10 21 16 30.0010000  0  6G 3G 8G13G19G23G27
    505334.99948    389188.30144  23278762.2164   23278764.6884
      -863.0784
  -1273692.69948   -985357.61746  22668633.7394   22668633.8764
      1063.3134
   1418349.67049   1093556.93547  20577924.5444   20577922.4664
     -1694.6724
  -1336760.69547  -1038393.89144  23868306.1144   23868305.7124
      1084.6564
   3861246.90848   2977466.94346  22351543.5284   22351540.7714
     -3974.1094
     15560.77149      9516.52147  21548977.7244   21548977.1694
      -180.0164
 04  9 10 21 16 45.0010000  0  6G 3G 8G13G19G23G27
    518350.73748    399330.45044  23281239.3414   23281241.1144
      -872.5944
  -1289620.13848   -997768.57446  22665602.8494   22665603.3644
      1060.2814
   1443828.63749   1113410.67547  20582773.1774   20582771.4854
     -1702.6414
  -1352995.65247  -1051044.45644  23865216.4034   23865216.1464
      1079.7344
   3920899.90449   3023949.76846  22362895.6064   22362892.7984
     -3979.7504
     18282.84749     11637.63648  21549495.7634   21549495.2314
      -183.0624
 04  9 10 21 17  0.0010000  0  6G 3G 8G13G19G23G27
    531516.00748    409589.11744  23283744.9584   23283746.1854
      -882.7034
  -1305493.61048  -1010137.49546  22662582.2944   22662582.4074
      1056.4384
   1469434.95849   1133363.65147  20587645.9974   20587644.1654
     -1711.3124
  -1369148.98947  -1063631.40044  23862142.8884   23862142.3884
      1074.1884
   3980643.94248   3070503.53546  22374264.4034   22374261.5914
     -3985.9374
     21058.89149     13800.78747  21550023.9034   21550023.1884
      -186.8284
 04  9 10 21 17 15.0010000  0  6G 3G 8G13G19G23G27
    544832.58548    419965.67744  23286278.8104   23286280.4424
      -892.8594
  -1321311.18648  -1022462.85846  22659572.2244   22659572.7284
      1052.5634
   1495170.38949   1153417.22747  20592543.2314   20592541.4894
     -1720.0004
  -1385218.65147  -1076153.15744  23859084.4664   23859084.5794
      1068.4694
   4040480.58248   3117129.44446  22385650.6774   22385648.3644
     -3992.2504
     23890.46849     16007.21948  21550562.8334   21550561.7044
      -190.5944
 04  9 10 21 17 30.0010000  0  6G 3G 8G13G19G23G27
    558299.47747    430459.38644  23288841.4744   23288842.6654
      -902.7194
  -1337073.86948  -1034745.42346  22656572.8174   22656572.7244
      1049.1254
   1521034.04349   1173570.72947  20597465.0524   20597463.2244
     -1728.3914
  -1401205.30247  -1088610.23044  23856042.4974   23856041.9114
      1063.0784
   4100408.74148   3163826.68746  22397054.8174   22397052.1034
     -3998.1254
     26776.46349     18256.06647  21551112.1224   21551111.5014
      -194.0944
 04  9 10 21 17 45.0010000  0  6G 3G 8G13G19G23G27
    571912.52447    441066.97344  23291431.6924   23291433.2204
      -912.4224
  -1352786.03948  -1046988.66046  22653582.7004   22653583.2474
      1045.6884
   1547021.79249   1193820.91448  20602410.3564   20602408.3374
     -1736.7814
  -1417112.88047  -1101005.68544  23853014.5834   23853014.8454
      1057.8284
   4160423.96548   3210591.76646  22408474.9504   22408473.2784
     -4004.0474
     29712.75549     20544.09348  21551670.4814   21551669.9234
      -197.5474
 04  9 10 21 18  0.0010000  0  6G 3G 8G13G19G23G27
    585673.76747    451790.03144  23294049.9664   23294051.8414
      -922.1724
  -1368445.93648  -1059191.14846  22650602.7314   22650602.8064
      1042.5164
   1573135.37949   1214169.17447  20607379.3024   20607377.4814
     -1744.8914
  -1432939.14347  -1113337.78244  23850002.8804   23850003.6034
      1052.5634
   4220527.93148   3257425.99646  22419912.9354   22419910.4974
     -4009.6254
     32701.03349     22872.63347  21552239.3724   21552238.3764
      -200.7194
 04  9 10 21 18 15.0010000  0  6G 3G 8G13G19G23G27
    599578.51347    462624.91644  23296696.2394   23296697.6304
      -932.2344
  -1384058.04948  -1071356.41246  22647631.7714   22647631.8684
      1038.7974
   1599370.18549   1234611.86148  20612371.7394   20612369.8684
     -1753.4694
  -1448688.48347  -1125609.92444  23847006.5054   23847006.3804
      1046.9064
   4280715.74748   3304325.55246  22431366.4114   22431364.2164
     -4015.7344
     35736.67549     25238.07547  21552816.9194   21552815.8684
      -204.4224
 04  9 10 21 18 30.0010000  0  6G 3G 8G13G19G23G27
    613628.41348    473572.90744  23299369.7084   23299371.0994
      -941.7504
  -1399621.03248  -1083483.37846  22644670.0914   22644670.3254
      1035.5784
   1625727.80449   1255150.27148  20617387.4664   20617385.3724
     -1761.5004
  -1464359.10747  -1137820.71544  23844024.2714   23844024.4384
      1041.8134
   4340988.77248   3351291.53246  22442835.9114   22442833.2554
     -4021.2974
     38821.18849     27641.60947  21553404.0994   21553403.4974
      -207.5164
 04  9 10 21 18 45.0010000  0  6G 3G 8G13G19G23G27
    627825.29547    484635.41144  23302071.5284   23302072.3134
      -951.2344
  -1415133.18248  -1095570.75946  22641718.8104   22641718.3494
      1032.5474
   1652210.11249   1275785.83147  20622426.8334   20622424.8294
     -1769.5474
  -1479948.83648  -1149968.50544  23841057.7314   23841057.1614
      1036.7194
   4401348.68148   3398325.18946  22454321.8724   22454319.1774
     -4026.8124
     41956.11449     30084.40847  21554000.6924   21554000.1034
      -210.5784
 04  9 10 21 19  0.0010000  0  6G 3G 8G13G19G23G27
    642171.12348    495813.98144  23304801.5914   23304802.5364
      -961.6094
  -1430592.31148  -1107616.79546  22638776.7784   22638776.7004
      1028.6094
   1678818.87049   1296519.93047  20627490.3334   20627488.7474
     -1778.3444
  -1495455.40248  -1162051.47444  23838106.7714   23838106.9744
      1030.7194
   4461797.01048   3445427.76446  22465825.3104   22465822.9154
     -4033.0164
     45143.56349     32568.15147  21554606.7474   21554606.2824
      -214.4694
 04  9 10 21 19 15.0010000  0  6G 3G 8G13G19G23G27
    656664.37448    507107.44944  23307559.6854   23307560.6184
      -971.0784
  -1446000.31249  -1119623.00246  22635844.5134   22635844.6534
      1025.5314
   1705552.38749   1317351.23847  20632577.6694   20632575.9354
     -1786.3284
  -1510880.33948  -1174070.85044  23835171.2944   23835170.9314
      1025.6414
   4522331.97948   3492597.83246  22477344.1694   22477341.6774
     -4038.4694
     48381.49749     35091.22448  21555223.3334   21555222.3534
      -217.5314
 04  9 10 21 19 30.0010000  0  6G 3G 8G13G19G23G27
    671304.33948    518515.21744  23310345.1144   23310345.8884
      -980.4374
  -1461357.92249  -1131589.94246  22632921.8724   22632921.9784
      1022.5164
   1732410.06749   1338279.29347  20637688.1774   20637686.6654
     -1794.2664
  -1526223.91348  -1186026.80044  23832251.9664   23832251.2394
      1020.5634
   4582952.65748   3539834.69646  22488879.8494   22488877.3534
     -4043.8914
     51669.40949     37653.24348  21555849.0834   21555848.6464
      -220.4844
 04  9 10 21 19 45.0010000  0  6G 3G 8G13G19G23G27
    686086.61448    530033.89744  23313158.0364   23313159.3924
      -990.2664
  -1476669.47349  -1143520.99846  22630008.6534   22630008.3064
      1019.2194
   1759387.35749   1359300.56847  20642822.2244   20642820.1184
     -1802.5004
  -1541490.40348  -1197922.69644  23829346.7864   23829345.8254
      1015.2194
   4643654.32348   3587134.66246  22500431.1224   22500428.6384
     -4049.5164
     55002.57549     40250.51947  21556483.2244   21556483.2244
      -223.7814
 04  9 10 21 20  0.0010000  0  6G 3G 8G13G19G23G27
    701017.58248    541668.43144  23315999.8414   23316000.5634
     -1000.2504
  -1491928.74148  -1155411.32846  22627104.4194   22627104.4034
      1015.5944
   1786490.71549   1380420.05647  20647979.4194   20647977.7044
     -1810.9844
  -1556673.17048  -1209753.35444  23826457.3964   23826456.4854
      1009.5164
   4704443.23448   3634502.61246  22511999.0524   22511996.6144
     -4055.4534
     58387.36949     42888.02548  21557127.4744   21557127.0714
      -227.3444
 04  9 10 21 20 15.0010000  0  6G 3G 8G13G19G23G27
    716095.06848    553417.13244  23318868.9424   23318869.9624
     -1009.7194
  -1507137.96549  -1167262.64546  22624210.4354   22624210.9894
      1012.6094
   1813717.94249   1401636.08647  20653160.8104   20653159.2004
     -1818.9224
  -1571774.13048  -1221520.24644  23823583.2714   23823583.4154
      1004.3134
   4765316.91148   3681936.62146  22523583.0674   22523580.5524
     -4060.7194
     61821.50349     45563.98047  21557780.7634   21557780.5244
      -230.2504
 04  9 10 21 20 30.0010000  0  6G 3G 8G13G19G23G27
    731319.84948    565280.61244  23321765.7554   23321767.0874
     -1020.2664
  -1522296.34448  -1179074.34946  22621325.9424   22621325.6814
      1008.5004
   1841069.65349   1422949.09847  20658365.5364   20658363.8334
     -1827.9064
  -1586792.28247  -1233222.64244  23820724.9504   23820725.3884
       998.0944
   4826275.90548   3729437.10346  22535182.7784   22535180.4074
     -4067.0624
     65305.60349     48278.87547  21558443.8494   21558443.0954
      -234.2664
 04  9 10 21 20 45.0010000  0  6G 3G 8G13G19G23G27
    746690.09647    577257.44344  23324690.6774   23324691.7004
     -1029.4064
  -1537406.05149  -1190848.12846  22618450.6614   22618450.4854
      1005.8754
   1868544.08949   1444357.74547  20663594.1774   20663591.8994
     -1835.5784
  -1601729.08147  -1244861.63244  23817882.9744   23817882.4154
       993.2034
   4887318.16148   3777002.45846  22546798.6854   22546796.7164
     -4072.1414
     68837.76249     51031.21147  21559115.9744   21559114.7044
      -236.9064
 04  9 10 21 21  0.0010000  0  6G 3G 8G13G19G23G27
    762200.52847    589343.51244  23327642.1614   23327643.5054
     -1038.8124
  -1552472.33748  -1202588.07246  22615583.5054   22615583.2944
      1002.8754
   1896135.92349   1465857.87647  20668844.3414   20668842.4784
     -1843.5474
  -1616589.65247  -1256441.23944  23815054.9974   23815054.8924
       988.0474
   4948438.02748   3824628.29146  22558429.4354   22558427.2904
     -4077.3444
     72412.63449     53816.82747  21559796.5834   21559795.6184
      -239.8754
 04  9 10 21 21 15.0010000  0  6G 3G 8G13G19G23G27
    777854.46347    601541.40044  23330620.5054   23330622.6614
     -1048.2974
  -1567491.85448  -1214291.56846  22612724.6774   22612725.2984
       999.7344
   1923848.20749   1487451.86148  20674117.8804   20674115.8684
     -1851.5004
  -1631370.40447  -1267958.63344  23812242.5834   23812242.4384
       982.7504
   5009638.71548   3872317.11646  22570075.8254   22570073.6774
     -4082.7974
     76033.38749     56638.20747  21560485.3414   21560484.7004
      -242.9374
 04  9 10 21 21 30.0010000  0  6G 3G 8G13G19G23G27
    793651.57348    613850.84644  23333626.2864   23333628.2784
     -1057.9694
  -1582464.98649  -1225958.92746  22609875.8724   22609876.1614
       996.6724
   1951680.89649   1509139.66547  20679414.4424   20679412.2984
     -1859.5474
  -1646071.20147  -1279413.74344  23809444.9894   23809444.0794
       977.3284
   5070919.69449   3920068.50546  22581737.2944   22581734.6034
     -4088.1094
     79699.64149     59495.03447  21561183.0674   21561181.6654
      -245.9694
 04  9 10 21 21 45.0010000  0  6G 3G 8G13G19G23G27
    809594.04647    626273.57444  23336660.6924   23336662.5054
     -1067.9374
  -1597389.58948  -1237588.45746  22607036.2164   22607035.8134
       993.1414
   1979636.12749   1530922.96547  20684733.5524   20684732.1614
     -1867.9534
  -1660689.89647  -1290804.86344  23806662.7084   23806662.3414
       971.6414
   5132282.74948   3967883.84546  22593414.5134   22593411.8064
     -4093.8284
     83413.40949     62388.88547  21561889.8174   21561888.8414
      -249.3914
 04  9 10 21 22  0.0010000  0  6G 3G 8G13G19G23G27
    825686.43048    638813.10944  23339722.7714   23339724.0404
     -1078.1564
  -1612261.31849  -1249176.80946  22604205.7244   22604206.1224
       989.4384
   2007718.29449   1552805.16647  20690077.8964   20690076.1264
     -1876.6254
  -1675221.54447  -1302128.16644  23803897.8724   23803897.3024
       965.6564
   5193732.25648   4015766.52946  22605107.6614   22605105.3644
     -4099.7034
     87179.20449     65323.28447  21562605.8804   21562604.7904
      -253.0314
 04  9 10 21 22 15.0010000  0  6G 3G 8G13G19G23G27
    841921.82948    651464.08544  23342812.4664   23342813.8644
     -1087.0784
  -1627087.11549  -1260729.35646  22601384.8334   22601384.7714
       986.8284
   2035920.29049   1574780.75047  20695444.5214   20695442.5284
     -1884.0784
  -1689672.82247  -1313388.81944  23801147.4894   23801147.5714
       960.7974
   5255261.06349   4063711.03846  22616816.5214   22616814.4074
     -4104.5004
     90989.98149     68292.73047  21563331.3724   21563330.4234
      -255.5004
 04  9 10 21 22 30.0010000  0  6G 3G 8G13G19G23G27
    858301.02948    664227.11244  23345929.6304   23345930.9624
     -1096.9374
  -1641866.06349  -1272245.39846  22598572.3884   22598572.5444
       983.5474
   2064242.99349   1596850.37648  20700834.2164   20700832.3684
     -1892.4534
  -1704042.72648  -1324586.09544  23798412.9664   23798412.2244
       955.0784
   5316869.66949   4111717.70846  22628539.9814   22628537.9384
     -4110.1724
     94846.40149     71297.73447  21564065.1464   21564064.3104
      -258.8284
 04  9 10 21 22 45.0010000  0  6G 3G 8G13G19G23G27
    874825.86448    677103.61444  23349074.2314   23349075.2634
     -1106.9224
  -1656596.52949  -1283723.66146  22595769.2784   22595769.1534
       980.0314
   2092688.35049   1619015.59947  20706246.7944   20706245.6064
     -1900.8284
  -1718329.09747  -1335718.25944  23795694.4744   23795694.0914
       949.1884
   5378559.68349   4159787.82046  22640279.4894   22640277.3104
     -4115.7974
     98750.33049     74339.77347  21564808.1064   21564807.2714
      -262.2504
 04  9 10 21 23  0.0010000  0  6G 3G 8G13G19G23G27
    891499.54348    690096.10244  23352246.7784   23352248.2354
     -1116.5314
  -1671275.35049  -1295161.69046  22592975.9034   22592975.6534
       976.8754
   2121259.39449   1641278.74047  20711683.8414   20711682.2284
     -1908.9224
  -1732528.43848  -1346782.61244  23792992.3104   23792991.9354
       943.7344
   5440334.11249   4207923.70846  22652035.0134   22652032.3374
     -4121.0784
    102704.67549     77421.07747  21565560.4974   21565559.2744
      -265.3124
 04  9 10 21 23 15.0010000  0  6G 3G 8G13G19G23G27
    908318.54048    703201.85244  23355447.3724   23355449.1694
     -1126.4694
  -1685906.12949  -1306562.27646  22590191.6144   22590191.7674
       973.4534
   2149952.49549   1663637.00148  20717144.2714   20717142.1104
     -1917.3124
  -1746644.14148  -1357781.79944  23790306.0524   23790306.2744
       937.9064
   5502189.17549   4256122.43646  22663805.3104   22663803.0214
     -4126.6564
    106706.01049     80539.01747  21566322.0054   21566321.2244
      -268.7194
 04  9 10 21 23 30.0010000  0  6G 3G 8G13G19G23G27
    925286.79848    716423.90044  23358675.9744   23358677.8134
     -1136.4694
  -1700485.14049  -1317922.52046  22587417.2474   22587417.4544
       970.0164
   2178771.64749   1686093.47448  20722628.4744   20722626.5994
     -1925.7814
  -1760671.99748  -1368712.52444  23787636.6384   23787635.9544
       932.0004
   5564128.48449   4304386.80746  22675592.0054   22675589.6264
     -4132.2664
    110758.05549     83696.45747  21567092.8254   21567091.8454
      -272.0004
 04  9 10 21 23 45.0010000  0  6G 3G 8G13G19G23G27
    942403.74048    729761.78844  23361933.6774   23361934.4704
     -1145.7034
  -1715012.78249  -1329242.73046  22584653.0134   22584653.1694
       967.1564
   2207716.27449   1708647.73248  20728136.4114   20728134.4934
     -1933.5004
  -1774612.17747  -1379574.93444  23784984.2474   23784983.5914
       926.7664
   5626151.30049   4352716.23546  22687394.7864   22687392.6384
     -4137.2664
    114860.31249     86893.03647  21567873.5284   21567873.2514
      -274.8124
 04  9 10 21 24  0.0010000  0  6G 3G 8G13G19G23G27
    959666.01748    743212.91444  23365218.5214   23365220.1264
     -1155.5944
  -1729492.47849  -1340525.60346  22581897.1854   22581897.3334
       963.7664
   2236782.96049   1731297.09448  20733667.3494   20733665.5874
     -1941.7344
  -1788467.76347  -1390371.44044  23782346.6924   23782347.1384
       920.9224
   5688253.99748   4401107.92246  22699212.4354   22699210.3294
     -4142.7034
    119009.19949     90125.93847  21568663.1854   21568661.9744
      -278.0624
 04  9 10 21 24 15.0010000  0  6G 3G 8G13G19G23G27
    977073.04448    756776.85944  23368530.6144   23368532.3684
     -1165.7034
  -1743924.93049  -1351771.64646  22579151.0284   22579151.2244
       960.1884
   2265970.96349   1754040.98847  20739221.6304   20739219.7744
     -1950.2974
  -1802239.20348  -1401102.38244  23779726.5364   23779726.2434
       914.8594
   5750435.74249   4449561.18946  22711045.3254   22711042.8024
     -4148.5314
    123204.07549     93394.68147  21569461.8104   21569460.9544
      -281.6094
 04  9 10 21 24 30.0010000  0  6G 3G 8G13G19G23G27
    994627.11648    770455.36744  23371871.3964   23371872.2434
     -1175.0784
  -1758307.70749  -1362978.98246  22576413.8174   22576413.9354
       957.3594
   2295282.61649   1776881.23048  20744799.5674   20744798.0874
     -1958.0474
  -1815923.91648  -1411765.73844  23777122.1224   23777122.0364
       909.5474
   5812698.61649   4498077.67546  22722893.7474   22722891.3174
     -4153.3914
    127447.11449     96700.94447  21570268.8724   21570267.8534
      -284.2664
 04  9 10 21 24 45.0010000  0  6G 3G 8G13G19G23G27
   1012322.86748    784244.28344  23375238.3804   23375239.9114
     -1184.6564
  -1772646.33148  -1374151.91346  22573685.7714   22573685.4894
       954.2664
   2324712.66249   1799813.73148  20750399.8724   20750397.8724
     -1966.1414
  -1829527.01347  -1422365.50444  23774533.8174   23774533.4354
       904.0314
   5875037.07048   4546653.06946  22734755.9664   22734753.9194
     -4158.6094
    131733.01749    100040.61447  21571084.3174   21571083.0604
      -287.3594
 04  9 10 21 25  0.0020000  0  6G 3G 8G13G19G23G27
   1030167.24248    798149.01144  23378634.4714   23378635.4674
     -1195.0314
  -1786936.16348  -1385286.82446  22570966.5254   22570966.0844
       950.3914
   2354268.57849   1822844.31948  20756024.3694   20756022.2484
     -1974.8914
  -1843043.26747  -1432897.57944  23771961.8694   23771961.7254
       897.5944
   5937460.68448   4595294.81246  22746634.9324   22746632.9554
     -4164.4844
    136067.59649    103418.22447  21571909.1274   21571908.2564
      -291.0314
 04  9 10 21 25 15.0020000  0  6G 3G 8G13G19G23G27
   1048157.82948    812167.66244  23382057.7364   23382057.9474
     -1204.0474
  -1801175.30048  -1396382.23846  22568256.5644   22568256.3464
       947.9224
   2383946.51249   1845969.97547  20761671.5644   20761669.9434
     -1982.3754
  -1856470.64147  -1443360.40744  23769406.1274   23769406.3114
       892.4224
   5999961.00648   4643996.32046  22758528.3464   22758526.2684
     -4169.1254
    140450.28149    106833.30947  21572743.4164   21572742.8694
      -293.5944
 04  9 10 21 25 30.0020000  0  6G 3G 8G13G19G23G27
   1066292.82648    826298.85244  23385508.6114   23385509.3034
     -1213.3914
  -1815367.63348  -1407441.17346  22565555.7994   22565555.3694
       944.9844
   2413745.32149   1869189.83548  20767342.0804   20767340.5294
     -1990.2664
  -1869812.80547  -1453756.84844  23766867.5494   23766866.9824
       887.0004
   6062538.93648   4692758.31446  22770436.6194   22770434.4164
     -4174.0624
    144878.25249    110283.68847  21573585.9944   21573585.0684
      -296.2664
 04  9 10 21 25 45.0020000  0  6G 3G 8G13G19G23G27
   1084576.38247    840545.79144  23388987.7994   23388988.6314
     -1223.6254
  -1829509.29048  -1418460.62346  22562864.8384   22562864.6584
       941.3284
   2443669.12349   1892507.07348  20773036.3304   20773034.5494
     -1998.8914
  -1883065.44947  -1464083.53644  23764345.5254   23764344.9904
       880.7194
   6125198.36148   4741583.80846  22782360.2994   22782357.8384
     -4179.7504
    149355.51049    113772.45847  21574437.8144   21574436.7954
      -299.9374
 04  9 10 21 26  0.0020000  0  6G 3G 8G13G19G23G27
   1103008.19547    854908.27244  23392495.1044   23392497.0534
     -1233.6254
  -1843600.42448  -1429440.70346  22560183.2834   22560183.2444
       937.7974
   2473717.59749   1915921.46247  20778754.5884   20778752.8074
     -2007.3594
  -1896228.45047  -1474340.36944  23761841.1194   23761840.1004
       874.6254
   6187938.75248   4790472.39046  22794299.6974   22794297.3224
     -4185.3284
    153881.70049    117299.37447  21575299.3614   21575298.7134
      -303.3284
 04  9 10 21 26 15.0020000  0  6G 3G 8G13G19G23G27
   1121584.32847    869383.17544  23396030.0884   23396031.4004
     -1243.2814
  -1857644.95448  -1440384.47246  22557510.4324   22557510.6154
       934.6724
   2503886.81449   1939429.93747  20784495.3304   20784493.8114
     -2015.3914
  -1909305.39346  -1484530.14444  23759351.7834   23759351.9634
       868.7814
   6250755.95648   4839420.81146  22806253.3304   22806251.4754
     -4190.4844
    158452.94249    120861.37747  21576169.0494   21576168.0724
      -306.3444
 04  9 10 21 26 30.0020000  0  6G 3G 8G13G19G23G27
   1140311.69347    883975.95344  23399593.7294   23399594.9984
     -1253.6094
  -1871636.06248  -1451286.60046  22554848.1664   22554848.3384
       930.8594
   2534183.66349   1963037.87147  20790260.8304   20790259.1664
     -2024.0624
  -1922289.26647  -1494647.39144  23756880.9164   23756881.0764
       862.4844
   6313656.60548   4888434.27546  22818222.3144   22818220.2954
     -4196.2344
    163075.95349    124463.73348  21577048.7754   21577047.8384
      -309.9844
 04  9 10 21 26 45.0020000  0  6G 3G 8G13G19G23G27
   1159186.93947    898683.94044  23403185.6744   23403187.2794
     -1263.5004
  -1885577.18148  -1462149.79346  22552195.4084   22552195.1704
       927.6254
   2564604.81349   1986742.65447  20796049.9794   20796048.2754
     -2032.3754
  -1935183.06648  -1504694.46544  23754427.7054   23754426.8344
       856.3914
   6376637.19748   4937510.01646  22830207.9794   22830205.4434
     -4201.5004
    167747.40749    128103.83547  21577937.6354   21577936.9244
      -313.2194
 04  9 10 21 27  0.0020000  0  6G 3G 8G13G19G23G27
   1178209.70547    913506.89244  23406806.2294   23406807.1624
     -1273.0004
  -1899468.63848  -1472974.28546  22549551.6584   22549551.4004
       924.5004
   2595149.88749   2010544.00148  20801862.5644   20801860.6864
     -2040.4064
  -1947986.97848  -1514671.49644  23751991.3144   23751990.4434
       850.6724
   6439697.08848   4986647.57246  22842207.9474   22842205.4594
     -4206.5314
    172466.79749    131781.28447  21578835.8854   21578834.8224
      -316.2504
 04  9 10 21 27 15.0020000  0  7G 3G 8G13G10G19G23G27
   1197378.78647    928443.85444  23410453.3224   23410454.8814
     -1282.8914
  -1913311.77648  -1483761.11746  22546917.4164   22546917.2134
       921.2344
   2625817.59349   2034440.91847  20807698.7294   20807696.5614
     -2048.6094
    -39746.18256    -26918.52652  24622618.1744   24622619.1274
       961.0634
  -1960701.77047  -1524579.09044  23749571.6974   23749570.8034
       844.7344
   6502834.85948   5035845.80546  22854222.2524   22854220.4754
     -4211.8284
    177233.00849    135495.23047  21579742.7914   21579741.6154
      -319.3284
 04  9 10 21 27 30.0020000  0  7G 3G 8G13G10G19G23G27
   1216693.10647    943493.98344  23414128.9324   23414130.1074
     -1292.5164
  -1927107.82648  -1494511.26746  22544292.0964   22544291.9204
       918.0474
   2656606.88349   2058432.57047  20813557.3464   20813555.4004
     -2056.8284
    -54106.07746    -38108.02442  24619885.5804   24619886.2794
       953.2664
  -1973328.23547  -1534417.84244  23747168.6354   23747168.2994
       838.6884
   6566049.28848   5085103.74746  22866251.7054   22866249.6934
     -4216.9534
    182044.78449    139244.66747  21580658.2214   21580657.0184
      -322.4844
 04  9 10 21 27 45.0020000  0  7G 3G 8G13G10G19G23G27
   1236155.68148    958659.62944  23417832.5574   23417833.4824
     -1302.4374
  -1940853.41748  -1505222.08546  22541676.3614   22541676.1824
       914.7664
   2687520.70149   2082521.25647  20819440.2294   20819438.3654
     -2065.0474
    -68346.97446    -49204.80742  24617176.0334   24617176.7604
       945.4224
  -1985863.12448  -1544185.23644  23744783.4244   23744782.4474
       832.5944
   6629343.09148   5134423.56246  22878295.9944   22878294.5684
     -4222.1564
    186905.07849    143031.91647  21581583.1044   21581582.3734
      -325.6254
 04  9 10 21 28  0.0020000  0  7G 3G 8G13G10G19G23G27
   1255764.19848    973939.00544  23421563.6044   23421565.0764
     -1312.2974
  -1954551.22848  -1515895.68146  22539069.3544   22539069.6864
       911.3284
   2718556.66649   2106705.11647  20825345.9944   20825344.3574
     -2073.4224
    -82471.16046    -60210.62842  24614487.9794   24614488.5334
       937.3754
  -1998308.47548  -1553882.87344  23742415.4474   23742414.4514
       826.4224
   6692713.64248   5183803.17346  22890355.3384   22890353.0804
     -4227.5784
    191811.44949    146855.06147  21582516.7134   21582515.4984
      -328.8914
 04  9 10 21 28 15.0020000  0  7G 3G 8G13G10G19G23G27
   1275517.34948    989331.06444  23425322.6194   23425323.5254
     -1321.7504
  -1968202.61648  -1526533.10446  22536472.2054   22536472.0924
       908.5004
   2749713.44149   2130983.11647  20831274.6974   20831273.2644
     -2081.2504
    -96479.65346    -71126.29742  24611822.0104   24611823.0804
       929.8914
  -2010665.36848  -1563511.58344  23740063.9794   23740063.4434
       820.7504
   6756159.46048   5233241.43446  22902428.5884   22902426.6234
     -4232.2504
    196762.56749    150713.08847  21583458.9794   21583458.2014
      -331.6094
 04  9 10 21 28 30.0020000  0  7G 3G 8G13G10G19G23G27
   1295423.11548   1004842.08244  23429110.9164   23429111.4324
     -1332.1564
  -1981799.35548  -1537127.94046  22533884.7134   22533884.2714
       904.5784
   2780998.92949   2155361.41148  20837228.1664   20837226.3734
     -2090.0784
   -110364.27446    -81945.47442  24609180.0024   24609180.5494
       921.4384
  -2022925.54248  -1573064.90144  23737731.1744   23737730.3734
       814.0634
   6819688.34148   5282744.43345  22914517.4084   22914515.6314
     -4238.0944
    201766.50249    154612.26147  21584411.2214   21584410.0924
      -335.4224
 04  9 10 21 28 45.0020000  0  7G 3G 8G13G10G19G23G27
   1315476.99148   1020468.47644  23432926.6974   23432927.9084
     -1341.6874
  -1995346.07748  -1547683.79946  22531306.9634   22531306.6004
       901.6884
   2812408.57949   2179836.45948  20843205.2834   20843203.4634
     -2097.9534
   -124129.26446    -92671.36642  24606561.0494   24606561.6194
       913.8754
  -2035093.18048  -1582546.14544  23735415.2294   23735414.8964
       808.2504
   6883295.53648   5332308.43745  22926621.7134   22926619.6934
     -4242.9064
    206818.54649    158548.92447  21585372.2754   21585371.9554
      -338.2504
 04  9 10 21 29  0.0020000  0  7G 3G 8G13G10G19G23G27
   1335680.75248   1036211.67344  23436771.5644   23436773.1894
     -1352.1254
  -2008840.93148  -1558199.25046  22528738.7994   22528738.8034
       897.7344
   2843944.32549   2204409.76647  20849206.5414   20849204.8344
     -2106.9224
   -137772.59646   -103302.53442  24603964.0964   24603965.2834
       905.2974
  -2047166.20248  -1591953.64544  23733117.9004   23733117.0764
       801.5314
   6946982.61548   5381934.69746  22938740.8144   22938739.3734
     -4248.6874
    211920.48049    162524.46147  21586343.3384   21586342.8344
      -342.0164
 04  9 10 21 29 15.0020000  0  7G 3G 8G13G10G19G23G27
   1356031.12848   1052069.11544  23440644.2604   23440645.6074
     -1361.2974
  -2022287.42648  -1568677.01146  22526180.3384   22526180.0644
       895.0784
   2875602.79149   2229078.68747  20855230.8774   20855228.9904
     -2114.3754
   -151297.52746   -113841.43042  24601390.4864   24601391.7324
       898.1724
  -2059147.62248  -1601289.78644  23730837.7604   23730836.9714
       795.9694
   7010746.13248   5431620.50546  22950875.1504   22950873.0144
     -4253.2344
    217068.90249    166536.23047  21587323.3144   21587322.4394
      -344.5004
 04  9 10 21 29 30.0020000  0  7G 3G 8G13G10G19G23G27
   1376525.80948   1068039.02544  23444544.3074   23444545.4124
     -1371.4064
  -2035687.68248  -1579118.74146  22523630.2364   22523629.8614
       891.5634
   2907381.70049   2253841.47247  20861278.1044   20861276.4554
     -2122.8594
   -164706.00945   -124289.51042  24598838.9554   24598840.2444
       889.7034
  -2071039.38047  -1610556.04144  23728575.1044   23728574.5534
       789.5314
   7074583.45648   5481363.84645  22963022.8854   22963020.5644
     -4258.5004
    222261.64949    170582.53148  21588311.2444   21588310.4674
      -347.9224
 04  9 10 21 29 45.0020000  0  7G 3G 8G13G10G19G23G27
   1397168.41148   1084124.17544  23448472.6664   23448473.5964
     -1381.4534
  -2049038.16948  -1589521.70246  22521089.4634   22521089.2874
       888.0634
   2939284.65349   2278700.90447  20867349.0494   20867347.3224
     -2131.3124
   -177994.25546   -134644.03042  24596310.1894   24596311.2834
       881.3754
  -2082837.48848  -1619749.34444  23726329.7834   23726329.1074
       783.0944
   7138498.21448   5531167.50345  22975185.5574   22975183.5414
     -4263.8914
    227502.22449    174666.09747  21589308.6744   21589307.3034
      -351.3284
 04  9 10 21 30  0.0020000  0  7G 3G 8G13G10G19G23G27
   1417960.53648   1100325.83544  23452428.5334   23452430.4594
     -1391.4844
  -2062337.10048  -1599884.47846  22518558.5334   22518558.4514
       884.6094
   2971313.14849   2303658.17848  20873444.0964   20873441.9944
     -2139.6564
   -191160.52346   -144903.43143  24593805.1434   24593805.7684
       873.4064
  -2094540.22548  -1628868.32444  23724102.4944   23724101.5414
       776.6724
   7202491.63148   5581032.48045  22987362.7364   22987360.9554
     -4269.1094
    232792.14949    178788.12947  21590314.9474   21590314.0374
      -354.5944
 04  9 10 21 30 15.0020000  0  7G 3G 8G13G10G19G23G27
   1438900.09947   1116642.37744  23456413.3544   23456414.1974
     -1400.9064
  -2075586.83348  -1610208.92446  22516037.5964   22516037.5494
       881.6724
   3003465.06949   2328711.61047  20879562.2604   20879560.0454
     -2147.6094
   -204206.54646   -155069.14242  24591322.2294   24591322.9434
       865.7034
  -2106149.43347  -1637914.41744  23721893.8074   23721892.9244
       770.8444
   7266561.46248   5630956.97245  22999554.7524   22999552.5454
     -4273.9694
    238129.30349    182946.95447  21591330.7444   21591330.0414
      -357.4064
 04  9 10 21 30 30.0020000  0  7G 3G 8G13G10G19G23G27
   1459990.06048   1133076.12144  23460426.5884   23460427.7174
     -1410.7814
  -2088784.07849  -1620492.45546  22513526.2294   22513525.9674
       878.2344
   3035743.39049   2353863.53847  20885704.3464   20885702.5104
     -2155.9374
   -217129.25546   -165138.73442  24588862.7134   24588864.1114
       857.6094
  -2117661.77048  -1646885.03144  23719702.3614   23719701.7794
       764.4534
   7330710.43548   5680943.13845  23011761.9634   23011760.1274
     -4279.0624
    243516.52549    187144.79947  21592355.7214   21592354.9394
      -360.6254
 04  9 10 21 30 45.0020000  0  7G 3G 8G13G10G19G23G27
   1481227.20448   1149624.55544  23464468.1434   23464468.9164
     -1420.8284
  -2101932.57348  -1630738.00946  22511024.0494   22511024.4594
       874.8594
   3068144.94349   2379111.50347  20891870.6044   20891868.9364
     -2164.3754
   -229931.63346   -175114.60642  24586426.6504   24586427.2914
       849.3444
  -2129080.10147  -1655782.40245  23717529.9714   23717529.0764
       757.9844
   7394935.14648   5730988.33846  23023983.8854   23023981.7994
     -4284.3124
    248950.81449    191379.31047  21593389.9944   21593389.0104
      -363.9534
 04  9 10 21 31  0.0020000  0  7G 3G 8G13G10G19G23G27
   1502609.81248   1166286.35144  23468536.8774   23468537.9204
     -1430.2344
  -2115033.83248  -1640946.75746  22508530.7994   22508530.8934
       871.9844
   3100668.06749   2404454.19748  20898059.3464   20898057.5924
     -2172.0944
   -242615.17746   -184997.85842  24584013.1504   24584014.3224
       841.6414
  -2140405.95848  -1664607.68544  23715374.4244   23715374.1824
       752.1254
   7459233.67348   5781091.05046  23036219.4944   23036217.4984
     -4288.8284
    254430.19549    195648.97647  21594432.5964   21594431.7994
      -366.6254
 04  9 10 21 31 15.0020000  0  7G 3G 8G13G10G19G23G27
   1524138.28048   1183061.78844  23472633.7914   23472634.6744
     -1440.1254
  -2128087.49748  -1651118.41646  22506046.9714   22506046.7484
       868.5944
   3133312.94849   2429891.76048  20904271.5644   20904269.6274
     -2180.4224
   -255179.33646   -194788.06542  24581622.4634   24581623.4434
       833.5314
  -2151638.67747  -1673360.43244  23713237.1974   23713236.3224
       745.7344
   7523606.00248   5831251.25745  23048469.1744   23048466.8144
     -4294.0164
    259954.98449    199954.00547  21595484.0254   21595482.9364
      -369.9374
 04  9 10 21 31 30.0020000  0  7G 3G 8G13G10G19G23G27
   1545811.02248   1199949.65544  23476758.3774   23476759.0254
     -1450.1094
  -2141095.01449  -1661254.12646  22503571.5024   22503571.1434
       865.2974
   3166078.13449   2455423.06147  20910506.7054   20910504.7484
     -2188.7664
   -267625.41046   -204486.24542  24579253.3614   24579254.9714
       825.4534
  -2162779.42647  -1682041.50044  23711116.9004   23711116.3854
       739.3134
   7588050.53748   5881467.73545  23060732.8144   23060730.2604
     -4299.1094
    265523.78649    204293.34247  21596543.8934   21596542.6624
      -373.1254
 04  9 10 21 31 45.0020000  0  7G 3G 8G13G10G19G23G27
   1567636.67448   1216956.65844  23480911.3464   23480912.6274
     -1460.0164
  -2154047.69749  -1671347.09147  22501106.8854   22501106.8574
       861.7814
   3198972.17249   2481054.77047  20916765.9084   20916764.2794
     -2197.0624
   -279944.51346   -214085.58442  24576909.3854   24576910.6394
       817.1564
  -2173819.32147  -1690643.97344  23709016.2364   23709015.3424
       732.6724
   7652575.66448   5931747.03145  23073011.2604   23073009.0024
     -4304.1874
    271144.98749    208673.50447  21597613.4794   21597612.6784
      -376.3594
 04  9 10 21 32  0.0020000  0  7G 3G 8G13G10G19G23G27
   1589612.15448   1234080.42944  23485093.0724   23485094.2874
     -1469.9374
  -2166948.76149  -1681399.84846  22498651.8774   22498651.6704
       858.4224
   3231991.85449   2506784.38648  20923049.2364   20923047.3654
     -2205.3754
   -292139.60645   -223588.21942  24574588.7444   24574589.8734
       808.9064
  -2184761.24047  -1699170.10344  23706934.0574   23706933.2214
       726.3444
   7717178.17348   5982086.59145  23085304.5884   23085303.0104
     -4309.3284
    276815.56149    213092.14147  21598692.7214   21598691.3264
      -379.5474
 04  9 10 21 32 15.0020000  0  7G 3G 8G13G10G19G23G27
   1611734.70448   1251318.78544  23489302.6584   23489303.1974
     -1479.7194
  -2179801.03748  -1691414.58946  22496206.2524   22496205.5684
       855.2344
   3265134.33049   2532609.68747  20929356.0184   20929354.6194
     -2213.5474
   -304213.22946   -232996.22942  24572291.5414   24572292.4554
       800.8284
  -2195607.57547  -1707621.73844  23704869.5964   23704869.1624
       719.9384
   7781854.90948   6032484.01545  23097612.2754   23097610.5064
     -4314.2664
    282532.70049    217547.06447  21599780.5184   21599779.5104
      -382.6564
 04  9 10 21 32 30.0020000  0  7G 3G 8G13G10G19G23G27
   1634004.42748   1268671.80744  23493540.3384   23493541.2054
     -1489.4224
  -2192604.43849  -1701391.25146  22493769.5574   22493769.5294
       852.0634
   3298399.96549   2558530.95547  20935686.1974   20935684.7364
     -2221.6724
   -316165.06446   -242309.30942  24570017.1354   24570018.2364
       792.8754
  -2206357.82247  -1715998.53044  23702823.8774   23702823.6274
       713.6564
   7846605.92048   6082939.31345  23109933.5964   23109931.7214
     -4319.0944
    288296.61549    222038.43347  21600877.0494   21600876.2524
      -385.6414
 04  9 10 21 32 45.0020000  0  7G 3G 8G13G10G19G23G27
   1656422.87148   1286140.73044  23497806.3934   23497807.0024
     -1499.3594
  -2205357.16049  -1711328.40846  22491342.9794   22491342.5534
       848.7814
   3331790.19749   2584549.30747  20942040.5804   20942038.3184
     -2229.9224
   -327993.18346   -251526.02842  24567765.8224   24567766.8224
       784.6414
  -2217010.20147  -1724299.04644  23700797.3774   23700796.1824
       707.1254
   7911432.48948   6133453.47245  23122269.7294   23122267.8184
     -4324.0624
    294108.65349    226567.29747  21601983.0724   21601982.0184
      -388.8914
 04  9 10 21 33  0.0020000  0  7G 3G 8G13G10G19G23G27
   1678984.78148   1303721.44844  23502099.6044   23502100.7054
     -1508.8754
  -2218064.66049  -1721230.34346  22488924.6974   22488924.1744
       845.7034
   3365299.81349   2610660.69048  20948417.1434   20948415.3074
     -2237.9224
   -339702.70945   -260650.32342  24565538.2834   24565539.0924
       776.7664
  -2227569.70847  -1732527.19744  23698788.1354   23698786.4474
       700.9534
   7976329.16548   6184022.27345  23134619.2994   23134617.0804
     -4328.7504
    299963.67649    231129.65547  21603097.4794   21603096.6004
      -391.7194
 04  9 10 21 33 15.0020000  0  7G 3G 8G13G10G19G23G27
   1701696.26348   1321418.72044  23506421.8934   23506422.7324
     -1518.7974
  -2230720.83149  -1731092.26446  22486516.2444   22486516.4394
       842.2504
   3398934.72949   2636869.70948  20954817.5644   20954815.4714
     -2246.2504
   -351287.36446   -269677.28142  24563333.2364   24563334.3384
       768.3134
  -2238029.86747  -1740677.93644  23696796.9394   23696796.1314
       694.2344
   8041301.87148   6234650.31245  23146983.6434   23146981.2754
     -4333.8284
    305867.66249    235730.17647  21604220.9164   21604220.0644
      -394.9844
 04  9 10 21 33 30.0020000  0  7G 3G 8G13G10G19G23G27
   1724556.10348   1339231.60144  23510771.6584   23510773.2994
     -1528.9534
  -2243326.75249  -1740915.04346  22484117.5414   22484117.1154
       838.7344
   3432693.88949   2663175.54347  20961241.7214   20961240.1744
     -2254.8284
   -362748.14046   -278607.77142  24561152.5574   24561153.2834
       759.9224
  -2248391.54247  -1748751.91744  23694825.0964   23694824.0534
       687.4064
   8106349.17748   6285336.49345  23159361.4324   23159359.4364
     -4339.0164
    311819.49549    240367.97247  21605353.5024   21605352.8424
      -398.3754
 04  9 10 21 33 45.0020000  0  7G 3G 8G13G10G19G23G27
   1747570.36248   1357164.79444  23515151.8854   23515152.0184
     -1539.3124
  -2255876.54449  -1750694.08346  22481729.1974   22481728.9364
       834.8754
   3466583.27349   2689582.85248  20967690.9394   20967689.2214
     -2263.5474
   -374078.78846   -287436.83242  24558996.3464   24558997.1894
       751.0314
  -2258648.61747  -1756744.40944  23692873.3224   23692872.3304
       680.3914
   8171476.95148   6336085.36145  23171754.8304   23171752.8384
     -4344.4844
    317825.10549    245047.67647  21606496.2604   21606495.4004
      -402.0784
 04  9 10 21 34  0.0020000  0  7G 3G 8G13G10G19G23G27
   1770731.47348   1375212.41244  23519558.6194   23519560.0144
     -1548.5784
  -2268377.46249  -1760435.03746  22479350.3934   22479349.7174
       832.2034
   3500595.34449   2716085.74747  20974163.0644   20974161.0844
     -2271.1564
   -385286.64746   -296170.20842  24556863.4084   24556864.0844
       743.5944
  -2268808.17847  -1764660.92244  23690940.5964   23690939.3074
       674.4694
   8236677.50448   6386890.93345  23184161.9634   23184159.8544
     -4348.7194
    323877.10249    249763.52648  21607647.8934   21607646.9324
      -404.5784
 04  9 10 21 34 15.0020000  0  7G 3G 8G13G10G19G23G27
   1794036.45748   1393372.14744  23523994.1114   23523995.2794
     -1558.4374
  -2280832.52049  -1770140.26846  22476980.2054   22476980.1974
       828.8444
   3534727.00149   2742681.84448  20980658.3224   20980656.3614
     -2279.3754
   -396374.50146   -304810.06742  24554753.1824   24554754.9754
       735.2344
  -2278872.89547  -1772503.52545  23689024.8694   23689023.3574
       667.8594
   8301947.63648   6437750.73345  23196582.7684   23196580.4754
     -4353.5944
    329972.29249    254513.02047  21608808.0884   21608806.6194
      -407.7194
 04  9 10 21 34 30.0020000  0  7G 3G 8G13G10G19G23G27
   1817489.13148   1411646.97344  23528456.1894   23528457.5764
     -1568.7504
  -2293238.04349  -1779806.88446  22474619.3464   22474619.2214
       825.1254
   3568982.21149   2769374.20148  20987176.5724   20987174.7794
     -2288.1094
   -407338.14345   -313353.15042  24552667.6434   24552668.2794
       726.4384
  -2288838.56647  -1780268.96045  23687127.8144   23687127.0184
       660.7344
   8367290.97948   6488667.58745  23209017.2444   23209015.3544
     -4358.9374
    336114.63049    259299.26347  21609977.2444   21609975.8854
      -411.3124
 04  9 10 21 34 45.0020000  0  7G 3G 8G13G10G19G23G27
   1841093.50448   1430039.99644  23532948.1504   23532949.2364
     -1578.5624
  -2305590.02749  -1789431.77946  22472269.0184   22472268.9904
       821.8134
   3603364.90349   2796165.91147  20993719.1584   20993718.1664
     -2296.2814
   -418173.34045   -321796.12942  24550605.8304   24550606.6624
       718.1414
  -2298700.98347  -1787953.91245  23685251.5644   23685250.4474
       654.2814
   8432711.27747   6539644.39545  23221466.1434   23221464.0844
     -4363.7814
    342308.10549    264125.36047  21611155.3614   21611154.2094
      -414.4374
 04  9 10 21 35  0.0020000  0  7G 3G 8G13G10G19G23G27
   1864842.82448   1448545.96244  23537467.6974   23537468.8074
     -1588.4534
  -2317895.10549  -1799020.14046  22469927.0494   22469927.2324
       818.4534
   3637868.32849   2823051.68048  21000285.2444   21000283.5804
     -2304.5784
   -428886.78946   -330144.25942  24548566.8224   24548567.3114
       709.7974
  -2308466.57247  -1795563.42245  23683393.3304   23683392.3614
       647.4534
   8498201.55547   6590675.72945  23233928.6114   23233926.5214
     -4368.7194
    348545.85049    268985.94647  21612342.2294   21612341.2484
      -417.7664
 04  9 10 21 35 15.0020000  0  8G 3G 8G13G10G19G23G27G28
   1888738.79448   1467166.20044  23542014.8614   23542015.8114
     -1597.8124
  -2330151.56449  -1808570.61046  22467595.5024   22467595.1044
       815.6414
   3672494.24449   2850032.90548  21006874.3384   21006872.9004
     -2312.2814
   -439476.56346   -338396.03143  24546550.7834   24546551.8544
       702.0004
  -2318133.40847  -1803095.98545  23681553.7914   23681552.9474
       641.2974
   8563763.39347   6641762.84945  23246404.8384   23246402.3264
     -4372.9844
    354829.58349    273882.36647  21613538.2054   21613536.9514
      -420.3284
    -81811.63657    -64125.37152  24851119.2754   24851121.4394
      2083.8134
 04  9 10 21 35 30.0020000  0  8G 3G 8G13G10G19G23G27G28
   1912778.41148   1485898.38244  23546589.4554   23546590.1114
     -1607.1564
  -2342362.37749  -1818085.50746  22465271.5724   22465270.9554
       812.8284
   3707239.56249   2877107.17748  21013486.1504   21013484.7684
     -2320.0474
   -449945.39346   -346553.52642  24544558.8614   24544559.9794
       694.1094
  -2327704.13647  -1810553.66344  23679732.4634   23679731.5454
       635.0784
   8629393.57948   6692903.22445  23258894.1504   23258892.2054
     -4377.3124
    361156.23249    278812.23147  21614741.9394   21614741.1864
      -422.9224
   -113050.78147    -88467.49642  24845174.3384   24845176.6114
      2081.6724
 04  9 10 21 35 45.0020000  0  8G 3G 8G13G10G19G23G27G28
   1936961.04848   1504741.99444  23551190.9944   23551192.3144
     -1616.9694
  -2354528.24349  -1827565.39546  22462955.9864   22462955.9794
       809.5474
   3742103.65549   2904273.98847  21020120.4714   21020118.7174
     -2328.2664
   -460293.58146   -354617.05542  24542589.5964   24542591.1234
       685.7814
  -2337178.96247  -1817936.60044  23677929.1894   23677927.7404
       628.4224
   8695091.34147   6744096.21845  23271395.6974   23271393.9904
     -4382.1094
    367525.34749    283775.18347  21615953.8694   21615952.8224
      -426.0474
   -144254.53648   -112782.03642  24839236.1894   24839239.0724
      2079.0314
 04  9 10 21 36  0.0020000  0  8G 3G 8G13G10G19G23G27G28
   1961291.40948   1523700.73244  23555821.1824   23555821.7054
     -1626.6724
  -2366644.20749  -1837006.38746  22460650.6434   22460650.6894
       806.3134
   3777091.19049   2931536.99748  21026778.4394   21026776.5184
     -2336.4224
   -470516.32446   -362582.78242  24540645.0414   24540645.8074
       677.4224
  -2346552.99847  -1825241.01744  23676145.4244   23676144.0804
       621.7194
   8760861.13247   6795345.35045  23283911.0104   23283909.9004
     -4386.8124
    373941.55049    288774.82547  21617174.8774   21617173.9084
      -429.1564
   -175417.83647   -137065.04643  24833306.6274   24833308.6434
      2076.4384
 04  9 10 21 36 15.0020000  0  8G 3G 8G13G10G19G23G27G28
   1985766.67648   1542772.36644  23560478.3614   23560479.2404
     -1636.0624
  -2378713.05549  -1846410.66347  22458354.0104   22458354.3964
       803.4224
   3812199.45049   2958894.07648  21033459.4324   21033457.7754
     -2344.1874
   -480616.10646   -370452.74342  24538722.9864   24538723.2994
       669.6564
  -2355828.61947  -1832468.73044  23674379.9474   23674379.5334
       615.4384
   8826700.01947   6846648.34545  23296440.2524   23296437.7364
     -4391.0944
    380402.00849    293808.96247  21618404.4084   21618403.2914
      -431.7194
   -206543.38747   -161318.65443  24827383.4004   24827385.5804
      2074.0784
 04  9 10 21 36 30.0020000  0  8G 3G 8G13G10G19G23G27G28
   2010384.44448   1561955.05144  23565162.8544   23565163.8614
     -1646.0314
  -2390737.36049  -1855780.23746  22456065.8144   22456065.9864
       799.9694
   3847425.94449   2986343.27747  21040162.8224   21040160.8074
     -2352.6094
   -490595.16246   -378228.60342  24536823.9474   24536824.3614
       661.1564
  -2365007.92147  -1839621.39344  23672633.8464   23672632.4394
       608.5784
   8892605.48247   6898003.21445  23308981.5804   23308979.5804
     -4395.9374
    386904.44249    298875.79547  21619641.7524   21619640.6864
      -435.0624
   -237633.38047   -185544.54942  24821467.1434   24821468.5534
      2071.2814
 04  9 10 21 36 45.0020000  0  8G 3G 8G13G10G19G23G27G28
   2035146.96348   1581250.51844  23569875.4004   23569876.4714
     -1656.0474
  -2402714.71749  -1865113.22046  22453786.4794   22453786.2644
       796.5634
   3882772.98249   3013886.42047  21046889.2054   21046886.9084
     -2360.8914
   -500450.91946   -385908.39342  24534947.8464   24534949.1584
       652.4224
  -2374088.32947  -1846696.98845  23670904.9634   23670904.5254
       601.6094
   8958579.55048   6949411.52745  23321535.4324   23321534.2174
     -4400.8754
    393451.07248    303977.06947  21620887.3464   21620886.6974
      -438.3124
   -268685.40747   -209740.83443  24815558.1194   24815559.8694
      2068.4224
 04  9 10 21 37  0.0020000  0  8G 3G 8G13G10G19G23G27G28
   2060057.71848   1600661.50644  23574615.7294   23574616.9284
     -1664.8284
  -2414641.46349  -1874406.77346  22451517.0724   22451516.9944
       794.2344
   3918244.02949   3041526.19647  21053639.1504   21053637.4514
     -2368.0944
   -510179.85146   -393489.39343  24533097.3384   24533098.2054
       645.2034
  -2383066.24347  -1853692.73544  23669197.5644   23669196.1234
       595.8754
   9024625.27847   7000875.69745  23334104.1824   23334102.4044
     -4404.6414
    400045.33249    309115.46747  21622142.3544   21622141.1074
      -440.3594
   -299695.80647   -233904.70843  24809656.9794   24809658.2994
      2066.7664
 04  9 10 21 37 15.0020000  0  8G 3G 8G13G10G19G23G27G28
   2085117.13248   1620188.30744  23579384.4084   23579385.3504
     -1675.5784
  -2426517.36149  -1883660.70946  22449257.2444   22449256.9284
       789.9844
   3953839.40849   3069262.83948  21060412.6044   21060410.9044
     -2377.1724
   -519781.26346   -400970.95642  24531269.8224   24531270.8304
       636.0004
  -2391940.80748  -1860607.94645  23667508.2444   23667507.6544
       588.2034
   9090743.10147   7052396.02145  23346686.1744   23346684.1274
     -4410.3124
    406687.70149    314291.33547  21623406.1744   21623404.8074
      -444.4374
   -330663.84047   -258035.53243  24803763.5494   24803765.6584
      2063.1254
 04  9 10 21 37 30.0020000  0  8G 3G 8G13G10G19G23G27G28
   2110319.82448   1639826.76744  23584180.2364   23584181.4514
     -1684.7344
  -2438347.77249  -1892879.18746  22447005.8774   22447005.6624
       787.4534
   3989553.66649   3097092.12547  21067208.9634   21067207.1704
     -2384.6724
   -529260.38446   -408357.26542  24529466.3694   24529467.0574
       628.2034
  -2400717.13547  -1867446.60145  23665838.2524   23665836.8854
       582.0784
   9156927.46447   7103968.21845  23359280.7834   23359278.6044
     -4414.2504
    413372.64349    319500.38847  21624678.6354   21624677.1434
      -446.8444
   -361594.77148   -282137.45043  24797877.8774   24797879.8934
      2061.0634
 04  9 10 21 37 45.0020000  0  8G 3G 8G13G10G19G23G27G28
   2135669.20948   1659579.52644  23589004.0804   23589005.2054
     -1694.4694
  -2450129.33449  -1902059.60246  22444764.0254   22444763.5184
       784.0784
   4025390.33348   3125016.79348  21074028.0964   21074026.8854
     -2392.8754
   -538613.41346   -415645.30642  24527685.7054   24527687.0844
       619.7034
  -2409391.33847  -1874205.67745  23664187.6744   23664186.3654
       575.2034
   9223181.52848   7155594.71145  23371888.5724   23371886.4164
     -4418.8444
    420103.78149    324745.43447  21625959.2754   21625958.2644
      -449.8914
   -392485.02747   -306207.71643  24791999.6354   24792001.5334
      2058.3594
 04  9 10 21 38  0.0020000  0  8G 3G 8G13G10G19G23G27G28
   2161165.67248   1679446.92444  23593855.6974   23593856.7404
     -1704.6094
  -2461861.38649  -1911201.44446  22442531.6434   22442531.1824
       780.4534
   4061349.90748   3153037.24048  21080871.1664   21080869.4864
     -2401.3594
   -547839.76246   -422834.64042  24525930.7294   24525930.7564
       610.8444
  -2417962.73447  -1880884.64645  23662556.4474   23662555.2324
       568.0474
   9289505.57047   7207275.74245  23384509.2834   23384507.2094
     -4423.9224
    426881.47648    330026.76747  21627249.1354   21627248.1624
      -453.3594
   -423333.90748   -330245.68042  24786128.6584   24786130.9474
      2055.2034
 04  9 10 21 38 15.0020000  0  8G 3G 8G13G10G19G23G27G28
   2186804.54148   1699425.26544  23598734.4244   23598735.8074
     -1713.9844
  -2473548.71749  -1920308.44047  22440307.2684   22440307.1544
       777.6884
   4097427.62449   3181149.73648  21087736.6194   21087735.3774
     -2409.1724
   -556943.90846   -429928.76842  24524197.5964   24524198.4394
       602.8284
  -2426435.79047  -1887486.98745  23660944.0334   23660942.4864
       561.5474
   9355894.68847   7259007.48745  23397142.7914   23397140.5294
     -4428.0784
    433701.05748    335340.73247  21628546.7364   21628545.7714
      -456.0474
   -454145.92348   -354254.97343  24780266.4944   24780267.8464
      2052.8284
 04  9 10 21 38 30.0020000  0  8G 3G 8G13G10G19G23G27G28
   2212589.67548   1719517.58044  23603641.3544   23603642.1894
     -1723.9534
  -2485187.30149  -1929377.44846  22438092.4554   22438092.0214
       774.1254
   4133627.29048   3209357.25648  21094625.2294   21094623.4284
     -2417.4694
   -565921.83246   -436924.53042  24522489.8934   24522490.0374
       594.3134
  -2434806.36447  -1894009.47445  23659351.6434   23659349.8384
       554.5164
   9422352.50147   7310792.74745  23409789.1274   23409787.3424
     -4432.9064
    440566.42348    340690.36548  21629853.1354   21629852.3894
      -459.2974
   -484917.06848   -378232.38143  24774410.6824   24774411.6234
      2049.9694
 04  9 10 21 38 45.0020000  0  8G 3G 8G13G10G19G23G27G28
   2238523.35748   1739725.64944  23608576.8304   23608577.7134
     -1733.7344
  -2496774.74249  -1938406.61047  22435887.5494   22435887.2054
       770.9844
   4169951.32448   3237661.68848  21101537.3144   21101535.5184
     -2425.5474
   -574770.88146   -443819.86442  24520805.2364   24520805.4984
       585.8134
  -2443071.67747  -1900449.95145  23657778.3074   23657777.3074
       547.6094
   9488881.21248   7362633.23545  23422449.3224   23422447.8574
     -4437.3914
    447479.83048    346077.44147  21631168.5884   21631167.5844
      -462.3124
   -515644.79447   -402175.98943  24768562.5494   24768564.1274
      2047.2664
 04  9 10 21 39  0.0020000  0  8G 3G 8G13G10G19G23G27G28
   2264603.06148   1760047.50944  23613539.6744   23613540.4944
     -1743.7034
  -2508313.65849  -1947397.94447  22433692.1194   22433691.6394
       767.4844
   4206397.10348   3266060.98848  21108472.5724   21108470.6894
     -2433.9064
   -583493.39646   -450616.59642  24519146.1354   24519146.4824
       577.1094
  -2451234.15947  -1906810.28745  23656224.5804   23656223.6394
       540.5634
   9555478.17748   7414526.94245  23435122.5494   23435120.8034
     -4442.2344
    454438.90648    351500.10947  21632492.8694   21632492.3694
      -465.5944
   -546331.33347   -426087.49743  24762723.1354   24762724.6664
      2044.1724
 04  9 10 21 39 15.0020000  0  8G 3G 8G13G10G19G23G27G28
   2290826.81148   1780481.58644  23618529.7754   23618530.2564
     -1753.2194
  -2519805.84849  -1956352.88347  22431504.6974   22431503.9984
       764.3754
   4242962.69849   3294553.64847  21115431.1434   21115429.3734
     -2441.9374
   -592091.24245   -457316.23442  24517509.8464   24517510.6004
       568.9224
  -2459295.36047  -1913091.69045  23654691.3384   23654689.5024
       533.8134
   9622141.20647   7466472.10745  23447808.5964   23447806.2954
     -4446.6724
    461441.55248    356956.71747  21633825.2364   21633824.9714
      -468.4694
   -576978.50647   -449968.28543  24756891.0574   24756892.8854
      2041.6884
 04  9 10 21 39 30.0020000  0  8G 3G 8G13G10G19G23G27G28
   2317201.92748   1801033.64544  23623548.2754   23623549.8464
     -1763.3444
  -2531244.06549  -1965265.75847  22429328.0184   22429328.0644
       760.7504
   4279655.41049   3323145.35948  21122413.1584   21122411.4674
     -2450.5004
   -600556.72346   -463912.64842  24515898.1974   24515899.0454
       560.0004
  -2467247.60747  -1919288.19545  23653177.8074   23653175.9794
       526.5314
   9688877.34147   7518474.24744  23460507.7684   23460505.3424
     -4451.5164
    468495.19349    362453.06448  21635167.9474   21635166.8144
      -471.9694
   -607578.84648   -473812.59243  24751067.5884   24751069.8224
      2038.5634
 04  9 10 21 39 45.0020000  0  8G 3G 8G13G10G19G23G27G28
   2343726.71348   1821702.29944  23628595.8144   23628597.5214
     -1773.6414
  -2542630.11549  -1974137.98146  22427161.6434   22427161.5804
       757.0474
   4316473.37249   3351834.67048  21129419.6824   21129418.3694
     -2458.9534
   -608891.44746   -470407.23443  24514312.8074   24514313.7874
       551.1724
  -2475092.36247  -1925400.97445  23651685.0334   23651683.1934
       519.1094
   9755684.74248   7570531.91445  23473220.7054   23473218.7644
     -4456.3594
    475598.02248    367987.74748  21636519.5334   21636518.2094
      -475.4844
   -638134.04448   -497621.78243  24745253.6274   24745254.7174
      2035.2194
 04  9 10 21 40  0.0020000  0  8G 3G 8G13G10G19G23G27G28
   2370399.12148   1842485.99444  23633671.7754   23633673.1464
     -1782.9374
  -2553965.60649  -1982970.81046  22425004.2524   22425003.8654
       754.1414
   4353414.74249   3380620.14347  21136449.4474   21136447.6974
     -2466.6254
   -617097.08446   -476801.24743  24512750.7444   24512752.2524
       543.0004
  -2482831.30747  -1931431.26945  23650212.2604   23650210.6434
       512.5784
   9822561.25547   7622643.42145  23485946.4164   23485944.3774
     -4460.5004
    482748.17148    373559.30248  21637880.3614   21637879.2404
      -478.0474
   -668645.62148   -521396.93443  24739447.7364   24739448.5494
      2032.8134
 04  9 10 21 40 15.0020000  0  8G 3G 8G13G10G19G23G27G28
   2397215.82648   1863382.14544  23638775.2054   23638775.9434
     -1792.4224
  -2565253.98449  -1991766.92747  22422856.3304   22422856.2714
       751.1564
   4390476.13149   3409499.14747  21143501.8144   21143499.8894
     -2474.5314
   -625176.84746   -483097.12142  24511213.5494   24511214.6974
       534.6414
  -2490467.34447  -1937381.38245  23648759.2134   23648757.5844
       505.8134
   9889503.31147   7674806.00945  23498685.8144   23498683.5294
     -4464.8754
    489942.32949    379165.14347  21639248.9944   21639247.8694
      -480.8754
   -699116.83048   -545140.65743  24733649.1894   24733650.0764
      2030.2504
 04  9 10 21 40 30.0020000  0  8G 3G 8G13G10G19G23G27G28
   2424180.82248   1884393.83044  23643905.6664   23643907.0644
     -1802.7194
  -2576491.35649  -2000523.29747  22420718.1824   22420717.8304
       747.4224
   4427661.55449   3438474.79448  21150578.0184   21150576.2444
     -2483.2504
   -633126.34846   -489291.51843  24509701.1664   24509701.6784
       525.5634
  -2497996.16547  -1943247.95745  23647326.1504   23647324.9864
       498.2974
   9956514.81447   7727022.73744  23511437.3074   23511435.5374
     -4469.7974
    497184.49849    384808.39547  21640627.2054   21640626.3424
      -484.5004
   -729543.32748   -568849.52243  24727858.6114   24727859.9284
      2026.7974
 04  9 10 21 40 45.0020000  0  8G 3G 8G13G10G19G23G27G28
   2451295.89548   1905522.46544  23649065.4394   23649066.7254
     -1813.0004
  -2587675.58249  -2009238.26047  22418589.6044   22418589.0684
       743.5004
   4464972.88549   3467548.53948  21157678.2834   21157676.2444
     -2491.8594
   -640943.65346   -495382.90943  24508213.2214   24508213.9084
       516.3754
  -2505415.75547  -1949029.41745  23645913.9244   23645912.7054
       490.6254
  10023597.34647   7779294.77445  23524202.5184   23524201.2564
     -4474.8444
    504476.56149    390490.52647  21642014.8224   21642014.0374
      -488.1724
   -759923.17947   -592522.01243  24722077.3774   24722079.0064
      2023.4384
 04  9 10 21 41  0.0020000  0  8G 3G 8G13G10G19G23G27G28
   2478563.93848   1926770.30444  23654254.6434   23654255.7174
     -1823.1414
  -2598803.80549  -2017909.57647  22416472.0724   22416471.4944
       739.8914
   4502412.96049   3496722.61647  21164802.6114   21164800.8574
     -2500.4224
   -648625.58445   -501368.75642  24506751.4084   24506752.2564
       507.1724
  -2512722.75047  -1954723.13745  23644524.0184   23644522.6074
       483.1564
  10090753.70947   7831624.36745  23536982.4794   23536980.6194
     -4479.7034
    511821.41749    396213.79847  21643412.5104   21643411.3964
      -491.6094
   -790253.17048   -616155.69543  24716305.5104   24716307.5214
      2020.1414
 04  9 10 21 41 15.0020000  0  8G 3G 8G13G10G19G23G27G28
   2505976.26948   1948130.56144  23659470.9554   23659471.8814
     -1832.3914
  -2609884.85649  -2026544.14646  22414363.1114   22414363.0144
       737.1254
   4539973.09249   3525990.23548  21171950.2294   21171948.3964
     -2508.1414
   -656180.57445   -507255.78642  24505313.2754   24505314.2604
       499.4534
  -2519925.60147  -1960335.71845  23643153.2524   23643152.3544
       476.6094
  10157974.94947   7884004.50244  23549774.0494   23549772.6864
     -4483.7344
    519210.40949    401971.45548  21644818.4394   21644817.4324
      -494.1414
   -820541.87748   -639757.18543  24710542.2604   24710543.6044
      2017.7814
 04  9 10 21 41 30.0020000  0  8G 3G 8G13G10G19G23G27G28
   2533540.32048   1969609.06244  23664716.2444   23664717.2754
     -1842.8284
  -2620910.97249  -2035135.89647  22412265.3464   22412265.0724
       733.1094
   4577660.80349   3555357.28047  21179122.1504   21179120.3184
     -2516.8914
   -663601.01845   -513037.93442  24503901.7684   24503902.2754
       489.9534
  -2527016.49047  -1965861.03945  23641803.7914   23641802.7444
       468.7664
  10225268.40547   7936440.91345  23562579.4394   23562578.2684
     -4488.8284
    526651.10149    407769.40848  21646234.4004   21646233.1074
      -497.9534
   -850781.61547   -663320.51343  24704787.9944   24704789.3854
      2014.1414
 04  9 10 21 41 45.0020000  0  8G 3G 8G13G10G19G23G27G28
   2561256.42648   1991206.04644  23669990.4944   23669991.7254
     -1852.2974
  -2631882.05049  -2043684.76346  22410177.4554   22410177.2954
       730.0944
   4615476.28649   3584823.88247  21186318.1044   21186316.1894
     -2524.7814
   -670886.39245   -518714.82042  24502515.0724   24502515.9434
       481.7664
  -2533994.83647  -1971298.66345  23640475.6354   23640474.4284
       461.9844
  10292634.10947   7988933.61745  23575399.2834   23575397.6704
     -4492.8754
    534143.72248    413607.82147  21647660.2054   21647659.4754
      -500.6414
   -880971.85548   -686845.31243  24699041.8544   24699043.7174
      2011.5784
 04  9 10 21 42  0.0020000  0  8G 3G 8G13G10G19G23G27G28
   2589112.63948   2012912.17144  23675291.2524   23675292.2214
     -1861.9844
  -2642809.66449  -2052199.77147  22408098.0104   22408097.3344
       726.8444
   4653407.44748   3614380.61648  21193536.0414   21193534.4634
     -2532.7344
   -678048.42745   -524295.60443  24501151.8774   24501153.0024
       473.1884
  -2540872.30347  -1976657.66545  23639166.7054   23639166.3894
       454.7814
  10360060.05347   8041473.25345  23588229.6354   23588227.7714
     -4497.2344
    541676.43448    419477.47347  21649094.0574   21649092.5534
      -503.7194
   -911124.37648   -710340.69443  24693304.9394   24693305.7014
      2008.6254
 04  9 10 21 42 15.0020000  0  8G 3G 8G13G10G19G23G27G28
   2617114.59948   2034731.90444  23680619.9554   23680621.2444
     -1871.5624
  -2653688.21249  -2060676.53647  22406027.6744   22406027.1114
       723.6724
   4691460.09648   3644032.01947  21200777.1974   21200775.7994
     -2540.8914
   -685081.19045   -529775.63143  24499814.2834   24499814.5374
       464.7194
  -2547642.76947  -1981933.35845  23637879.0254   23637878.0144
       447.8594
  10427551.72447   8094064.14145  23601073.1664   23601071.7364
     -4501.5784
    549254.86848    425382.75047  21650535.7604   21650534.9794
      -506.6564
   -941233.29048   -733802.09043  24687575.0104   24687575.7994
      2005.8914
 04  9 10 21 42 30.0020000  0  8G 3G 8G13G10G19G23G27G28
   2645267.14848   2056668.96544  23685976.8144   23685978.5214
     -1881.6414
  -2664512.97349  -2069111.39447  22403968.0414   22403967.1004
       719.9844
   4729639.28348   3673782.02947  21208042.5724   21208040.9204
     -2549.2974
   -691979.45545   -535150.91343  24498500.9474   24498502.0064
       455.5164
  -2554301.12347  -1987121.65145  23636611.6504   23636610.7324
       440.2974
  10495113.91247   8146709.93745  23613929.4864   23613928.1114
     -4506.2504
    556884.04948    431327.55747  21651987.4084   21651986.6274
      -510.1094
   -971293.48048   -757225.53043  24681854.8304   24681855.4754
      2002.5314
 04  9 10 21 42 45.0020000  0  8G 3G 8G13G10G19G23G27G28
   2673563.22248   2078717.85844  23691361.9324   23691363.1154
     -1891.0004
  -2675290.49349  -2077509.44746  22401917.0334   22401916.0064
       717.1724
   4767937.93548   3703625.11848  21215330.4244   21215329.1274
     -2557.0004
   -698750.21345   -540426.79442  24497213.0184   24497213.6744
       447.2344
  -2560854.20447  -1992227.91545  23635364.7134   23635363.2174
       433.5784
  10562739.25547   8199404.96245  23626798.3614   23626797.2014
     -4510.2814
    564556.93348    437306.43847  21653447.4634   21653446.6234
      -512.8444
  -1001311.73248   -780616.31143  24676142.7134   24676143.4164
      1999.9694
 04  9 10 21 43  0.0020000  0  8G 3G 8G13G10G19G23G27G28
   2701998.07448   2100874.89144  23696772.7444   23696773.7874
     -1900.5624
  -2686025.75949  -2085874.56147  22399873.8384   22399873.5574
       714.0314
   4806351.24549   3733557.55747  21222640.4164   21222638.8894
     -2565.0004
   -705398.00145   -545606.88343  24495947.4864   24495948.0574
       438.8284
  -2567306.37147  -1997255.54145  23634136.9944   23634135.4944
       426.4694
  10630422.79547   8252145.31644  23639678.1584   23639676.8934
     -4514.4224
    572268.74749    443315.65747  21654915.1974   21654914.6584
      -515.7344
  -1031292.68248   -803978.00243  24670436.5964   24670437.8964
      1997.1564
 04  9 10 21 43 15.0020000  0  8G 3G 8G13G10G19G23G27G28
   2730584.07548   2123149.70944  23702212.3224   23702213.1784
     -1910.3754
  -2696706.10649  -2094196.89047  22397841.5334   22397840.8574
       710.5784
   4844891.63248   3763589.02047  21229974.4794   21229972.5454
     -2573.2664
   -711910.01345   -550681.15042  24494707.9634   24494709.0884
       430.1884
  -2573644.78848  -2002194.51845  23632930.4474   23632929.4474
       419.1884
  10698176.94347   8304940.68944  23652571.3224   23652569.5884
     -4518.8594
    580032.06848    449364.99747  21656392.4084   21656391.3384
      -518.7814
  -1061223.61448   -827300.71343  24664741.6664   24664742.2404
      1994.1254
 04  9 10 21 43 30.0020000  0  8G 3G 8G13G10G19G23G27G28
   2759320.38748   2145541.65344  23707681.0184   23707681.7874
     -1920.4694
  -2707332.40549  -2102477.09347  22395819.5254   22395819.0454
       706.9064
   4883558.19749   3793718.81247  21237332.4714   21237330.5724
     -2581.7034
   -718286.89945   -555650.12443  24493494.9084   24493495.8384
       420.9694
  -2579869.98947  -2007045.29145  23631745.5964   23631744.6114
       411.4844
  10766000.63247   8357790.27944  23665477.9714   23665476.2444
     -4523.5004
    587846.10449    455453.87247  21657879.8144   21657878.5644
      -522.4224
  -1091105.06248   -850584.90443  24659055.0804   24659055.6354
      1990.7034
 04  9 10 21 43 45.0020000  0  8G 3G 8G13G10G19G23G27G28
   2788205.93048   2168049.86844  23713177.4164   23713178.5184
     -1930.7344
  -2717905.72749  -2110716.03647  22393807.5184   22393807.1154
       703.0784
   4922349.81449   3823946.02147  21244714.0574   21244712.7604
     -2590.3444
   -724529.62246   -560514.57542  24492306.6744   24492307.6194
       411.7664
  -2585982.70848  -2011808.42745  23630582.4324   23630581.1464
       403.6724
  10833892.63047   8410693.07244  23678397.6434   23678395.4434
     -4528.4224
    595709.68849    461581.33647  21659375.7834   21659375.1194
      -526.0004
  -1120937.99748   -873831.27343  24653378.3854   24653378.9084
      1987.1564
 04  9 10 21 44  0.0020000  0  8G 3G 8G13G10G19G23G27G28
   2817234.13548   2190669.26344  23718701.3544   23718702.0924
     -1940.4844
  -2728432.66849  -2118918.82747  22391804.1434   22391803.6784
       699.7814
   4961259.90849   3854265.56447  21252118.6354   21252117.0414
     -2598.5004
   -730644.52946   -565279.40442  24491142.3544   24491143.9284
       402.8754
  -2591989.23848  -2016488.81445  23629439.4554   23629438.0724
       396.3914
  10901846.08048   8463643.76245  23691328.7834   23691326.2954
     -4532.7034
    603616.34449    467742.37847  21660880.8464   21660879.6464
      -529.0314
  -1150728.72148   -897044.73843  24647709.0804   24647710.0684
      1984.1414
 04  9 10 21 44 15.0020000  0  8G 3G 8G13G10G19G23G27G28
   2846413.33948   2213406.30944  23724254.0104   23724254.8774
     -1950.0314
  -2738904.48249  -2127078.65247  22389811.0574   22389810.9394
       696.5474
   5000296.92549   3884684.02147  21259546.9394   21259545.5924
     -2606.4224
   -736622.87245   -569937.81242  24490005.5254   24490006.3034
       394.1724
  -2597880.85748  -2021079.64445  23628318.5184   23628317.3614
       389.1724
  10969869.44648   8516648.94744  23704273.5254   23704270.9124
     -4536.9064
    611574.62349    473943.64147  21662394.8384   21662393.4084
      -531.9374
  -1180468.60947   -920218.60343  24642049.3224   24642051.1584
      1981.2974
 04  9 10 21 44 30.0020000  0  8G 3G 8G13G10G19G23G27G28
   2875734.56448   2236254.01944  23729833.6434   23729835.0534
     -1959.5004
  -2749330.31549  -2135202.66947  22387827.6194   22387826.5924
       693.4844
   5039451.93649   3915194.38747  21266997.8854   21266996.8424
     -2614.2814
   -742473.43746   -574496.69243  24488891.6044   24488893.1894
       385.7664
  -2603666.33248  -2025587.77145  23627217.4794   23627216.0104
       382.2194
  11037953.31447   8569701.25244  23717228.9794   23717227.3464
     -4540.9694
    619575.42949    480178.03347  21663917.3614   21663915.9984
      -534.8284
  -1210166.46947   -943359.70443  24636398.3384   24636399.2954
      1978.4844
 04  9 10 21 44 45.0020000  0  8G 3G 8G13G10G19G23G27G28
   2905199.76448   2259213.92744  23735441.1504   23735441.8034
     -1969.0164
  -2759707.93949  -2143289.10647  22385852.6274   22385852.4794
       690.4064
   5078726.79549   3945798.17247  21274471.8464   21274469.8344
     -2622.2344
   -748194.13046   -578954.33042  24487803.8934   24487804.8734
       377.2194
  -2609343.37747  -2030011.41945  23626137.1434   23626136.2174
       375.0784
  11106099.51148   8622802.12245  23730196.4324   23730195.4634
     -4545.0004
    627620.71749    486447.09447  21665448.0804   21665447.3144
      -537.7034
  -1239820.26547   -966466.48443  24630755.2134   24630755.8074
      1975.6254
 04  9 10 21 45  0.0020000  0  8G 3G 8G13G10G19G23G27G28
   2934809.53048   2282286.47144  23741075.7524   23741076.0414
     -1978.4224
  -2770036.72949  -2151337.49647  22383887.2364   22383886.7254
       687.3444
   5118122.10249   3976495.80147  21281968.3614   21281967.2644
     -2629.9844
   -753783.91845   -583309.98643  24486739.7444   24486741.0454
       368.7194
  -2614910.89347  -2034349.72945  23625077.3694   23625076.1704
       367.8134
  11174308.53747   8675951.94644  23743176.4244   23743175.4324
     -4548.9064
    635711.38149    492751.51147  21666988.0024   21666986.7364
      -540.5474
  -1269429.04647   -989538.20543  24625120.4794   24625121.5614
      1972.8444
 04  9 10 21 45 15.0030000  0  8G 3G 8G13G10G19G23G27G28
   2964564.58748   2305472.24744  23746737.2964   23746738.3154
     -1988.5784
  -2780318.80549  -2159349.49047  22381930.4444   22381930.0654
       683.6414
   5157639.16049   4007288.29747  21289488.3124   21289486.6944
     -2638.5004
   -759244.37546   -587564.86843  24485700.7964   24485702.2264
       359.5314
  -2620370.32548  -2038603.79145  23624039.1944   23624037.4444
       360.0474
  11242583.58247   8729153.24244  23756168.8824   23756167.6284
     -4553.6724
    643846.63349    499090.67747  21668536.2494   21668535.3274
      -544.0004
  -1298995.73047  -1012577.11843  24619494.4294   24619494.9764
      1969.2504
 04  9 10 21 45 30.0030000  0  8G 3G 8G13G10G19G23G27G28
   2994462.56248   2328769.38244  23752426.9054   23752427.7024
     -1997.7664
  -2790550.81949  -2167322.47047  22379983.2964   22379982.9644
       680.8444
   5197274.51549   4038172.98247  21297030.5224   21297028.9564
     -2646.0784
   -764572.92245   -591716.96643  24484685.9994   24484688.1364
       351.1414
  -2625718.89248  -2042771.48045  23623020.6244   23623019.5814
       353.1094
  11310916.96348   8782399.96944  23769172.4604   23769170.7924
     -4557.4224
    652027.07249    505465.04448  21670092.7264   21670091.8744
      -546.5474
  -1328514.70847  -1035578.85843  24613877.0154   24613877.7494
      1966.6884
 04  9 10 21 45 45.0030000  0  8G 3G 8G13G10G19G23G27G28
   3024504.81248   2352178.94044  23758143.9214   23758145.0264
     -2007.6094
  -2800734.08949  -2175257.46847  22378045.9524   22378045.4994
       677.2814
   5237030.14549   4069151.38748  21304595.7574   21304594.3514
     -2654.2664
   -769770.36346   -595766.89442  24483697.6164   24483698.6444
       342.0784
  -2630957.34148  -2046853.35345  23622023.9374   23622022.6444
       345.5944
  11379312.39448   8835695.06344  23782187.6874   23782186.0694
     -4561.6874
    660252.70549    511874.63447  21671658.1164   21671656.9834
      -549.8444
  -1357988.25747  -1058545.18743  24608268.4994   24608268.8584
      1963.4064
 04  9 10 21 46  0.0030000  0  8G 3G 8G13G10G19G23G27G28
   3054692.30148   2375701.65344  23763888.2334   23763888.9054
     -2017.4064
  -2810867.24549  -2183153.42247  22376117.2724   22376116.7414
       673.7814
   5276907.06049   4100224.29148  21312183.9684   21312182.6554
     -2662.6094
   -774835.22945   -599713.51243  24482733.1474   24482735.2294
       333.0944
  -2636084.16347  -2050848.26645  23621048.1874   23621046.9604
       337.9844
  11447770.82747   8889039.24644  23795215.2804   23795213.4724
     -4566.0784
    668524.60749    518320.27847  21673232.0224   21673231.0694
      -553.0474
  -1387415.02247  -1081475.06543  24602668.6164   24602668.9794
      1960.0634
 04  9 10 21 46 15.0030000  0  8G 3G 8G13G10G19G23G27G28
   3085027.75948   2399339.69244  23769660.7884   23769661.9174
     -2026.9224
  -2820947.84949  -2191008.41747  22374198.9684   22374198.6164
       670.6564
   5316907.94449   4131393.80148  21319796.0544   21319794.5934
     -2670.4844
   -779764.59046   -603554.55743  24481795.4834   24481796.5584
       324.4064
  -2641096.46248  -2054753.91445  23620094.2334   23620092.8864
       330.6564
  11516294.83948   8942434.51944  23808254.4294   23808252.8124
     -4570.1564
    676845.61149    524804.17747  21674815.3124   21674814.2334
      -556.0314
  -1416791.99447  -1104366.14043  24597077.8664   24597079.4684
      1957.1254
 04  9 10 21 46 30.0030000  0  8G 3G 8G13G10G19G23G27G28
   3115505.16848   2423088.33544  23775460.3044   23775461.8704
     -2036.6254
  -2830981.70749  -2198826.98447  22372289.6474   22372288.9644
       667.3284
   5357026.82549   4162655.26248  21327430.6014   21327429.0154
     -2678.5784
   -784564.25446   -607294.52843  24480882.8274   24480883.4174
       315.6724
  -2646000.00348  -2058574.83345  23619161.1404   23619160.1944
       323.2344
  11584878.20348   8995876.05944  23821305.4054   23821303.8124
     -4574.1874
    685209.83849    531321.76747  21676407.1794   21676406.1404
      -559.0474
  -1446124.94947  -1127222.92143  24591496.0224   24591497.6324
      1954.0634
 04  9 10 21 46 45.0030000  0  8G 3G 8G13G10G19G23G27G28
   3146126.46348   2446949.10644  23781287.4444   23781288.8744
     -2046.5314
  -2840966.71049  -2206607.48747  22370389.7574   22370389.1124
       663.7344
   5397265.71849   4194010.21747  21335087.6794   21335086.0264
     -2686.8754
   -789232.22247   -610931.90043  24479994.4684   24479994.7374
       306.3914
  -2650792.45647  -2062309.18545  23618249.6014   23618248.1204
       315.4064
  11653522.72148   9049365.23144  23834368.6014   23834366.8274
     -4578.6724
    693619.20449    537874.51947  21678007.3044   21678005.9094
      -562.4374
  -1475411.93247  -1150043.88943  24585922.5074   24585924.3084
      1950.6564
 04  9 10 21 47  0.0030000  0  8G 3G 8G13G10G19G23G27G28
   3176896.30348   2470925.60644  23787142.7184   23787144.2264
     -2056.2194
  -2850898.26649  -2214346.35147  22368499.3044   22368498.9874
       660.3284
   5437629.16249   4225462.24747  21342768.6874   21342767.2264
     -2694.9374
   -793763.55746   -614462.79143  24479132.2104   24479132.9724
       297.6724
  -2655468.78647  -2065953.05545  23617359.1084   23617357.6554
       307.9384
  11722232.92548   9102905.58644  23847443.7494   23847441.9994
     -4582.7974
    702078.36349    544466.07447  21679616.9764   21679616.1164
      -565.5164
  -1504648.02548  -1172825.17643  24580359.8514   24580360.9174
      1947.5634
 04  9 10 21 47 15.0030000  0  8G 3G 8G13G10G19G23G27G28
   3207812.77948   2495016.37744  23793026.3434   23793027.0734
     -2065.7344
  -2860778.13549  -2222044.92847  22366619.5934   22366619.0584
       657.2344
   5478115.34349   4257009.90947  21350473.1554   21350471.2964
     -2702.8444
   -798159.79446   -617888.38743  24478295.4054   24478296.4954
       288.8444
  -2660030.49148  -2069507.59745  23616491.6244   23616490.0304
       300.5944
  11791006.77448   9156495.54744  23860531.0074   23860528.9764
     -4586.6564
    710585.57449    551095.07347  21681236.1324   21681235.0344
      -568.4064
  -1533834.77747  -1195568.03243  24574804.8824   24574806.4094
      1944.4844
 04  9 10 21 47 30.0030000  0  8G 3G 8G13G10G19G23G27G28
   3238872.28748   2519218.60044  23798936.2264   23798938.0154
     -2075.6094
  -2870609.72349  -2229705.89047  22364748.8664   22364748.0504
       653.7034
   5518720.65649   4288650.40248  21358199.8274   21358198.2494
     -2711.1724
   -802424.48446   -621211.51443  24477484.2264   24477485.1674
       279.7034
  -2664480.80948  -2072975.34745  23615645.0464   23615643.4254
       292.7664
  11859840.50948   9210132.18044  23873629.5384   23873627.8784
     -4591.0624
    719137.34349    557758.80347  21682863.5694   21682862.3274
      -571.7974
  -1562975.53748  -1218275.05243  24569260.1474   24569260.9834
      1940.9844
 04  9 10 21 47 45.0030000  0  8G 3G 8G13G10G19G23G27G28
   3270078.00748   2543534.74644  23804874.5384   23804876.1044
     -2085.0164
  -2880389.79249  -2237326.69947  22362887.4604   22362887.1594
       650.4844
   5559448.28249   4320386.21847  21365950.0934   21365948.8474
     -2719.0004
   -806554.02647   -624429.32243  24476698.6324   24476699.0654
       271.0164
  -2668816.12848  -2076353.48845  23614819.5854   23614818.0624
       285.3594
  11928737.06948   9263817.75544  23886740.2494   23886738.3474
     -4594.9694
    727736.84549    564459.71447  21684499.6404   21684498.8704
      -574.7194
  -1592066.91148  -1240943.60943  24563724.0074   24563725.3624
      1938.0004
 04  9 10 21 48  0.0030000  0  8G 3G 8G13G10G19G23G27G28
   3301424.12148   2567960.29644  23810839.5774   23810840.9524
     -2094.7664
  -2890124.18449  -2244911.93047  22361035.1554   22361034.4834
       647.0634
   5600292.46849   4352212.83547  21373721.9054   21373720.3784
     -2727.2194
   -810554.03746   -627546.18143  24475936.5544   24475938.0074
       261.9534
  -2673041.96948  -2079646.33445  23614015.5854   23614014.0304
       277.6884
  11997690.71748   9317547.78644  23899861.2184   23899860.0264
     -4599.1724
    736378.46949    571193.44547  21686144.3744   21686142.6714
      -577.9064
  -1621114.38447  -1263577.92343  24558195.9994   24558197.1404
      1934.5784
 04  9 10 21 48 15.0030000  0  8G 3G 8G13G10G19G23G27G28
   3332915.43048   2592498.98944  23816831.9214   23816833.3784
     -2104.3594
  -2899807.79949  -2252457.57447  22359192.1084   22359191.4254
       643.7974
   5641258.07649   4384134.08747  21381517.8664   21381516.3864
     -2735.2034
   -814419.40146   -630558.15943  24475200.7494   24475201.5774
       253.1564
  -2677153.19648  -2082849.85045  23613233.0224   23613231.6754
       270.1414
  12066706.08547   9371325.94844  23912994.4524   23912993.5224
     -4603.0944
    745067.03149    577963.76447  21687797.4914   21687796.7534
      -580.8914
  -1650112.96147  -1286174.17643  24552678.5934   24552678.7614
      1931.3594
 04  9 10 21 48 30.0030000  0  8G 3G 8G13G10G19G23G27G28
   3364554.01448   2617152.43744  23822852.7724   23822853.9254
     -2114.3914
  -2909438.40749  -2259961.94147  22357359.9684   22357359.2294
       640.0474
   5682347.10449   4416151.49448  21389336.9834   21389335.2414
     -2743.6564
   -818147.94046   -633463.47143  24474491.6084   24474492.2924
       243.7194
  -2681147.57048  -2085962.33945  23612473.1164   23612471.7454
       262.2504
  12135784.99848   9425153.61344  23926140.1244   23926138.6834
     -4607.5784
    753804.74049    584772.35747  21689460.3584   21689459.6324
      -584.4064
  -1679060.34347  -1308730.49643  24547169.8584   24547170.5974
      1927.8754
 04  9 10 21 48 45.0030000  0  8G 3G 8G13G10G19G23G27G28
   3396335.62248   2641917.35444  23828900.8904   23828901.7964
     -2124.0624
  -2919020.35449  -2267428.37147  22355536.2574   22355535.6474
       636.6724
   5723555.42749   4448261.85547  21397178.8744   21397176.8784
     -2751.7034
   -821743.59646   -636265.27343  24473807.4214   24473808.8274
       234.8444
  -2685028.91948  -2088986.73045  23611734.2574   23611733.0424
       254.5314
  12204923.06948   9479027.38544  23939296.5694   23939295.3944
     -4611.6874
    762587.47749    591616.06347  21691131.9294   21691130.7534
      -587.5624
  -1707960.45448  -1331250.02943  24541670.6474   24541671.0974
      1924.6254
 04  9 10 21 49  0.0030000  0  8G 3G 8G13G10G19G23G27G28
   3428263.86048   2666796.49944  23834976.6554   23834977.2264
     -2133.2814
  -2928549.63149  -2274853.76147  22353722.8044   22353721.9994
       633.7194
   5764886.66649   4480468.00847  21405043.9684   21405041.5384
     -2759.3754
   -825202.39046   -638960.41643  24473149.3824   24473150.4794
       226.3444
  -2688793.23548  -2091919.94045  23611017.8744   23611016.7184
       247.1884
  12274123.92148   9532950.06244  23952465.2964   23952463.8474
     -4615.2974
    771418.99749    598497.77347  21692812.4524   21692811.1474
      -590.2344
  -1736809.43348  -1353729.67143  24536180.4374   24536180.8744
      1921.6724
 04  9 10 21 49 15.0030000  0  8G 3G 8G13G10G19G23G27G28
   3460334.99648   2691787.00844  23841079.4914   23841080.2494
     -2143.0944
  -2938029.95949  -2282241.00847  22351919.0304   22351917.9764
       630.1414
   5806337.08049   4512767.03547  21412931.5624   21412929.7694
     -2767.5784
   -828527.83646   -641551.65343  24472516.4444   24472517.4724
       217.0944
  -2692443.98048  -2094764.64645  23610323.2964   23610322.1554
       239.3444
  12343383.74547   9586918.70244  23965644.3974   23965643.4994
     -4619.5474
    780295.57549    605414.59347  21694501.1164   21694500.2104
      -593.5784
  -1765610.78948  -1376172.23343  24530699.9054   24530699.9604
      1918.2504
 04  9 10 21 49 30.0030000  0  8G 3G 8G13G10G19G23G27G28
   3492552.52748   2716891.57844  23847210.1714   23847211.5464
     -2152.7814
  -2947457.95449  -2289587.48947  22350125.0074   22350124.4684
       626.8134
   5847910.11149   4545161.58247  21420842.6874   21420841.2264
     -2775.5944
   -831716.34946   -644036.18343  24471909.8434   24471910.8004
       208.0314
  -2695977.38548  -2097517.91945  23609651.0854   23609649.6444
       231.7194
  12412705.64847   9640935.70144  23978836.2494   23978835.3044
     -4623.5474
    789220.74349    612369.27047  21696199.7024   21696198.9524
      -596.6414
  -1794360.76748  -1398574.75543  24525228.4834   24525228.6204
      1915.0314
 04  9 10 21 49 45.0030000  0  8G 3G 8G13G10G19G23G27G28
   3524914.94048   2742109.04344  23853368.3904   23853370.1514
     -2162.6724
  -2956834.81449  -2296894.11147  22348340.2654   22348340.1674
       623.0164
   5889604.40149   4577650.64148  21428776.6244   21428775.1634
     -2784.0164
   -834769.12646   -646414.94943  24471328.7264   24471329.9214
       198.5944
  -2699394.40748  -2100180.51145  23609001.0304   23608999.4014
       223.6094
  12482088.10148   9694999.89444  23992039.9524   23992038.7724
     -4627.8754
    798193.24049    619360.83047  21697907.2024   21697906.1474
      -600.0944
  -1823060.63248  -1420938.23643  24519767.1794   24519767.6324
      1911.3134
 04  9 10 21 50  0.0030000  0  8G 3G 8G13G10G19G23G27G28
   3557419.18148   2767437.04644  23859553.7654   23859554.8004
     -2171.6724
  -2966163.25749  -2304163.01747  22346565.1244   22346564.5544
       620.3134
   5931417.00249   4610231.87548  21436733.3514   21436731.7724
     -2791.4224
   -837688.98847   -648690.16343  24470772.8124   24470773.9724
       190.2814
  -2702697.76048  -2102754.53445  23608372.0224   23608370.0814
       216.4844
  12551527.94347   9749108.79244  24005254.1474   24005252.6284
     -4631.2034
    807210.05049    626386.91347  21699623.1244   21699621.9484
      -602.5314
  -1851713.04548  -1443264.74543  24514314.6474   24514315.6244
      1908.5944
 04  9 10 21 50 15.0030000  0  8G 3G 8G13G10G19G23G27G28
   3590065.06048   2792875.39844  23865766.3434   23865766.9724
     -2180.7664
  -2975443.49049  -2311394.34347  22344799.0224   22344798.7224
       617.3444
   5973347.51049   4642904.98747  21444712.6084   21444710.5734
     -2798.9064
   -840475.81246   -650861.69043  24470242.7184   24470244.6164
       181.6724
  -2705887.37148  -2105239.91945  23607765.0154   23607763.5974
       209.1254
  12621024.74047   9803262.08344  24018478.7964   24018478.0584
     -4634.6564
    816271.09749    633447.48747  21701347.0774   21701346.0584
      -605.2034
  -1880318.06148  -1465554.29443  24508871.7414   24508871.8824
      1905.7194
 04  9 10 21 50 30.0030000  0  8G 3G 8G13G10G19G23G27G28
   3622855.60348   2818426.46544  23872005.9604   23872006.6834
     -2191.0474
  -2984672.38649  -2318585.67547  22343042.9134   22343042.5034
       613.3754
   6015398.97449   4675672.34347  21452714.4524   21452712.9174
     -2807.6414
   -843126.42447   -652927.10643  24469738.2724   24469739.2964
       171.8754
  -2708959.77448  -2107633.97645  23607180.4134   23607178.6594
       200.7034
  12690581.57447   9857462.14544  24031714.9214   24031713.5694
     -4639.3594
    825379.53949    640544.97347  21703080.5854   21703079.3274
      -608.9844
  -1908872.42848  -1487804.37843  24503437.7264   24503438.1944
      1901.7194
 04  9 10 21 50 45.0030000  0  8G 3G 8G13G10G19G23G27G28
   3655791.95748   2844091.16144  23878273.7024   23878274.6674
     -2200.4844
  -2993849.13549  -2325736.37347  22341296.6014   22341296.1874
       610.2034
   6057572.64349   4708534.94247  21460739.9374   21460738.3824
     -2815.4844
   -845639.37647   -654885.21643  24469260.5384   24469261.1444
       163.0474
  -2711913.64648  -2109935.67645  23606618.3124   23606616.7694
       193.2034
  12760199.31147   9911709.68144  24044962.6794   24044961.5114
     -4643.0474
    834536.57549    647680.33047  21704823.1164   21704822.3394
      -611.9694
  -1937374.69848  -1510013.88343  24498014.5154   24498014.2804
      1898.5634
 04  9 10 21 51  0.0030000  0  8G 3G 8G13G10G19G23G27G28
   3688874.44248   2869869.73144  23884569.0384   23884569.5504
     -2210.4064
  -3002972.74249  -2332845.64347  22339560.6084   22339560.4604
       606.3754
   6099868.88049   4741493.05447  21468788.6164   21468787.4014
     -2823.8754
   -848014.01547   -656735.56943  24468808.7184   24468809.3154
       153.6254
  -2714748.21648  -2112144.40345  23606079.2264   23606077.4834
       184.9694
  12829878.24947   9966004.90544  24058222.0224   24058221.1514
     -4647.3284
    843742.67349    654853.91648  21706575.0624   21706573.8354
      -615.3914
  -1965824.23948  -1532182.27343  24492599.3974   24492600.5154
      1894.8444
 04  9 10 21 51 15.0030000  0  8G 3G 8G13G10G19G23G27G28
   3722106.05748   2895764.51244  23890892.7654   23890893.6324
     -2219.7814
  -3012040.18749  -2339911.17447  22337834.9914   22337834.8044
       603.2344
   6142290.52749   4774548.86847  21476861.4444   21476859.2454
     -2831.7194
   -850247.31847   -658475.78243  24468383.3514   24468384.2414
       144.7194
  -2717460.24248  -2114257.64345  23605562.5854   23605560.8584
       177.2974
  12899621.18747  10020349.98244  24071494.3274   24071493.1834
     -4651.0314
    853000.86949    662068.10747  21708336.7804   21708335.5544
      -618.2974
  -1994217.99448  -1554307.21443  24487196.7804   24487197.2374
      1891.7194
 04  9 10 21 51 30.0030000  0  8G 3G 8G13G10G19G23G27G28
   3755478.47748   2921768.98844  23897243.5544   23897244.1364
     -2229.7504
  -3021059.78149  -2346939.42247  22336118.5854   22336117.6984
       599.4844
   6184829.47449   4807696.07648  21484956.1244   21484954.4374
     -2840.0784
   -852347.21047   -660112.07243  24467983.8974   24467984.3234
       135.3444
  -2720057.54348  -2116281.50945  23605068.7264   23605066.9174
       169.0474
  12969419.68047  10074738.34244  24084775.6404   24084775.3194
     -4655.3124
    862302.97749    669316.49347  21710106.9524   21710105.7184
      -621.8284
  -2022563.76448  -1576394.76243  24481802.2964   24481803.4014
      1887.8914
 04  9 10 21 51 45.0030000  0  8G 3G 8G13G10G19G23G27G28
   3788985.60848   2947878.45244  23903619.7104   23903620.4254
     -2238.7344
  -3030037.34149  -2353934.89547  22334410.0074   22334410.1754
       596.6094
   6227479.72049   4840930.03548  21493072.4214   21493070.3704
     -2847.5314
   -854319.48147   -661648.87043  24467608.8124   24467608.9794
       126.7034
  -2722545.95148  -2118220.47945  23604595.0544   23604593.8434
       161.7974
  13039267.57347  10129165.22844  24098067.3044   24098067.0624
     -4658.6254
    871643.07649    676594.50347  21711884.0464   21711882.8124
      -624.4694
  -2050867.39348  -1598449.44943  24476416.6084   24476417.3544
      1885.0164
 04  9 10 21 52  0.0030000  0  8G 3G 8G13G10G19G23G27G28
   3822634.10148   2974098.05444  23910022.3434   23910023.0424
     -2248.1094
  -3038966.25249  -2360892.47247  22332711.1244   22332711.2264
       593.4224
   6270247.99649   4874255.96147  21501210.7414   21501209.2454
     -2855.3124
   -856157.23546   -663080.84443  24467258.8744   24467259.6594
       117.8284
  -2724918.31648  -2120069.05145  23604143.5694   23604141.9994
       154.1094
  13109171.43247  10183635.69344  24111370.2654   24111369.4684
     -4662.3284
    881028.01349    683907.44547  21713670.1794   21713668.6014
      -627.3284
  -2079121.94648  -1620465.90644  24471040.2024   24471039.9564
      1881.7814
 04  9 10 21 52 15.0030000  0  8G 3G 8G13G10G19G23G27G28
   3856427.61448   3000430.65644  23916453.0694   23916454.1164
     -2257.3284
  -3047842.48749  -2367809.01647  22331022.0694   22331021.3044
       590.3754
   6313137.81149   4907676.58047  21509372.8514   21509370.7294
     -2863.0314
   -857856.64746   -664405.07343  24466935.6714   24466935.5074
       109.0944
  -2727170.73348  -2121824.17345  23603715.2724   23603713.3664
       146.5944
  13179134.72447  10238152.46544  24124683.8194   24124683.2024
     -4665.9064
    890461.43649    691258.16547  21715465.3194   21715463.8044
      -630.1724
  -2107323.58948  -1642441.13543  24465672.6634   24465673.8514
      1878.6564
 04  9 10 21 52 30.0030000  0  8G 3G 8G13G10G19G23G27G28
   3890363.35748   3026874.10344  23922910.7494   23922912.3154
     -2267.2814
  -3056668.70349  -2374686.56547  22329342.6474   22329341.9014
       586.5314
   6356146.40649   4941189.76147  21517556.9294   21517555.6834
     -2871.3914
   -859420.23347   -665623.44843  24466637.5624   24466638.4954
        99.5164
  -2729305.61348  -2123487.69745  23603308.5854   23603307.2454
       138.1724
  13249154.67047  10292713.40244  24138008.1794   24138006.7104
     -4670.1094
    899940.77549    698644.66647  21717269.5384   21717268.2144
      -633.6724
  -2135474.78748  -1664377.05743  24460316.3194   24460316.9954
      1874.8914
 04  9 10 21 52 45.0030000  0  8G 3G 8G13G10G19G23G27G28
   3924443.34248   3053429.93544  23929396.3354   23929396.9764
     -2276.5474
  -3065442.63949  -2381523.38847  22327673.0854   22327672.3194
       583.4844
   6399275.87149   4974797.11947  21525764.2024   21525762.4444
     -2879.0784
   -860845.75846   -666734.22943  24466366.8044   24466366.7414
        90.7194
  -2731320.62848  -2125057.81145  23602925.1714   23602923.4684
       130.6564
  13319233.11447  10347319.90844  24151343.1404   24151342.8624
     -4673.5004
    909468.17849    706068.61547  21719081.8904   21719080.4484
      -636.5164
  -2163573.22148  -1686271.85643  24454969.5074   24454969.8944
      1871.7664
 04  9 10 21 53  0.0030000  0  8G 3G 8G13G10G19G23G27G28
   3958664.24448   3080095.57944  23935908.2494   23935909.3394
     -2286.0004
  -3074167.81149  -2388322.20947  22326012.4684   22326012.0654
       580.1254
   6442522.92349   5008496.11748  21533993.5694   21533992.3084
     -2886.9844
   -862136.25646   -667739.79943  24466120.2494   24466121.1204
        81.6254
  -2733218.71048  -2126536.80545  23602564.0934   23602562.0734
       122.6724
  13389366.57048  10401969.29544  24164689.3974   24164688.7494
     -4677.3594
    919040.32149    713527.45147  21720903.4444   21720902.3194
      -639.5624
  -2191622.01548  -1708127.98443  24449631.2264   24449632.2844
      1868.3594
 04  9 10 21 53 15.0030000  0  8G 3G 8G13G10G19G23G27G28
   3993029.52248   3106873.71644  23942447.7494   23942448.6984
     -2295.5314
  -3082840.60849  -2395080.21447  22324362.0774   22324361.7374
       576.7664
   6485891.11549   5042289.51147  21542246.2264   21542244.7964
     -2894.9694
   -863287.98447   -668637.21943  24465901.5074   24465902.0894
        72.5004
  -2734996.01048  -2127921.69345  23602225.5154   23602223.6904
       114.8134
  13459558.39947  10456664.15644  24178046.1794   24178046.0194
     -4681.1254
    928660.87549    721023.98147  21722734.6404   21722732.7334
      -642.5944
  -2219617.43748  -1729942.52343  24444304.0694   24444304.6444
      1864.8914
 04  9 10 21 53 30.0030000  0  8G 3G 8G13G10G19G23G27G28
   4027535.77548   3133761.71144  23949013.7104   23949014.8904
     -2304.9534
  -3091464.10749  -2401799.81147  22322721.2654   22322720.7724
       573.4534
   6529377.05849   5076174.65548  21550521.3044   21550519.9724
     -2902.8284
   -864304.03046   -669428.93743  24465707.9684   24465708.8624
        63.3134
  -2736655.47947  -2129214.76845  23601909.8974   23601907.9874
       106.9064
  13529805.27448  10511401.92244  24191414.4134   24191413.4524
     -4684.6874
    938326.71149    728555.81047  21724573.6794   21724572.4294
      -645.6874
  -2247562.57248  -1751717.88043  24438985.8514   24438986.4374
      1861.4384
 04  9 10 21 53 45.0030000  0  8G 3G 8G13G10G19G23G27G28
   4062184.60748   3160760.79044  23955607.3904   23955608.5194
     -2314.7814
  -3100036.60149  -2408479.67947  22321090.0544   22321089.0774
       569.7344
   6572982.34449   5110152.78247  21558819.1944   21558817.5464
     -2911.1724
   -865182.75745   -670113.66443  24465540.7184   24465541.4174
        53.9844
  -2738195.38847  -2130414.67645  23601616.7024   23601614.9564
        98.5784
  13600108.43047  10566183.54844  24204792.7024   24204791.7184
     -4688.9844
    948039.36249    736124.10947  21726421.8124   21726420.7374
      -649.2034
  -2275455.58448  -1773452.64343  24433678.0774   24433678.8904
      1857.7194
 04  9 10 21 54  0.0030000  0  8G 3G 8G13G10G19G23G27G28
   4096977.82648   3187872.38944  23962228.0464   23962229.2884
     -2324.0624
  -3108556.04249  -2415118.18047  22319468.7184   22319468.0624
       566.4694
   6616708.81549   5144225.34647  21567140.1014   21567138.4444
     -2918.8284
   -865921.99246   -670689.64243  24465399.9134   24465401.2104
        44.9534
  -2739613.51748  -2131519.67145  23601347.0154   23601345.3744
        90.8594
  13670469.52348  10621010.30144  24218182.2494   24218181.1984
     -4692.3594
    957800.78649    743730.42047  21728279.2574   21728278.4724
      -652.0784
  -2303294.29948  -1795145.05743  24428380.7654   24428381.4794
      1854.3754
 04  9 10 21 54 15.0030000  0  8G 3G 8G13G10G19G23G27G28
   4131909.17548   3215091.61144  23968875.7884   23968876.3124
     -2333.7504
  -3117028.45149  -2421720.05347  22317856.5074   22317855.9134
       562.7504
   6660550.15849   5178387.41747  21575482.8584   21575481.5034
     -2927.0474
   -866527.75646   -671161.67443  24465285.2964   24465285.7184
        35.3284
  -2740915.71348  -2132534.36645  23601098.7334   23601097.2334
        82.4534
  13740882.24848  10675877.30244  24231581.1244   24231579.9644
     -4696.3124
    967604.85649    751369.95048  21730145.2724   21730144.1634
      -655.5314
  -2331084.74848  -1816799.90443  24423092.2334   24423092.8394
      1850.6564
 04  9 10 21 54 30.0030000  0  8G 3G 8G13G10G19G23G27G28
   4166981.21148   3242420.46944  23975550.1164   23975550.6124
     -2342.8284
  -3125451.49349  -2428283.45247  22316253.8514   22316252.7724
       559.9224
   6704509.06949   5212641.10947  21583847.9134   21583846.3354
     -2934.5004
   -866997.27446   -671527.50043  24465194.8124   24465196.4914
        26.7814
  -2742099.07648  -2133456.44845  23600874.1714   23600872.0854
        74.9694
  13811349.27348  10730786.60344  24244990.5224   24244989.6124
     -4699.5314
    977454.24749    759044.81547  21732019.5544   21732018.2414
      -658.1414
  -2358824.02448  -1838414.84644  24417813.5694   24417814.0934
      1847.6094
 04  9 10 21 54 45.0030000  0  8G 3G 8G13G10G19G23G27G28
   4202191.13548   3269856.79644  23982249.7804   23982250.7694
     -2352.1564
  -3133827.71349  -2434810.36247  22314659.5074   22314658.8974
       556.6254
   6748582.78749   5246984.26747  21592234.9214   21592233.4644
     -2942.3284
   -867333.02546   -671789.12243  24465131.3124   24465132.3194
        17.6094
  -2743166.07848  -2134287.83745  23600670.7964   23600669.1404
        66.9844
  13881867.53048  10785735.83544  24258410.1714   24258408.8744
     -4703.1564
    987346.41349    766753.00047  21733901.6244   21733901.1634
      -661.0784
  -2386514.66548  -1859991.89844  24412544.2884   24412544.5424
      1844.2034
 04  9 10 21 55  0.0030000  0  8G 3G 8G13G10G19G23G27G28
   4237539.86448   3297401.26444  23988976.4684   23988977.4444
     -2361.0624
  -3142155.80149  -2441299.76547  22313075.0544   22313074.6594
       553.6564
   6792772.22949   5281417.57647  21600643.9054   21600642.4524
     -2949.6874
   -867533.83747   -671945.58743  24465093.3744   24465093.8434
         9.0314
  -2744115.46048  -2135027.59545  23600490.0464   23600487.8974
        59.4694
  13952437.79947  10840725.58544  24271839.2184   24271838.2574
     -4706.2974
    997282.39049    774495.32547  21735792.5854   21735791.6674
      -663.7814
  -2414155.51648  -1881530.17344  24407284.4994   24407284.3974
      1841.1564
 04  9 10 21 55 15.0030000  0  8G 3G 8G13G10G19G23G27G28
   4273033.09148   3325058.30544  23995730.5464   23995731.1364
     -2371.3594
  -3150430.07949  -2447747.24247  22311500.1714   22311499.4054
       549.4384
   6837083.08649   5315945.51847  21609075.9604   21609074.6984
     -2958.4224
   -867593.93547   -671992.38343  24465082.0224   24465082.4094
        -1.0164
  -2744941.22148  -2135671.01845  23600333.1244   23600331.1874
        50.6724
  14023065.57348  10895760.15944  24285279.0154   24285278.5774
     -4710.7814
   1007267.87549    782276.23247  21737692.2574   21737691.1514
      -667.6254
  -2441740.68948  -1903025.02443  24402034.8824   24402035.0734
      1836.7664
 04  9 10 21 55 30.0030000  0  8G 3G 8G13G10G19G23G27G28
   4308670.58948   3352827.79644  24002512.3124   24002513.5934
     -2380.7664
  -3158650.52849  -2454152.78247  22309935.7884   22309935.3944
       546.1254
   6881515.10349   5350567.84947  21617530.9374   21617529.8784
     -2966.3444
   -867513.12447   -671929.43443  24465097.4294   24465097.8514
       -10.2664
  -2745643.07848  -2136217.89446  23600199.3124   23600197.7694
        42.5314
  14093750.62548  10950839.32944  24298730.0074   24298729.7844
     -4714.3914
   1017302.90949    790095.74747  21739601.9214   21739601.1794
      -670.8444
  -2469270.08148  -1924476.44944  24396796.3664   24396796.8974
      1833.2814
 04  9 10 21 55 45.0030000  0  8G 3G 8G13G10G19G23G27G28
   4344449.37748   3380707.36744  24009320.8514   24009322.0264
     -2390.1724
  -3166820.19349  -2460518.74447  22308381.1634   22308380.6874
       542.7344
   6926065.41749   5385282.36447  21626008.9054   21626007.4954
     -2974.1724
   -867294.20146   -671758.83143  24465139.2334   24465139.3154
       -19.3444
  -2746223.69848  -2136670.30046  23600089.2414   23600087.3584
        34.4844
  14164489.89547  11005960.76944  24312191.1014   24312190.7064
     -4718.0004
   1027384.63149    797951.63547  21741520.6244   21741519.6084
      -673.8914
  -2496746.46948  -1945886.56544  24391567.5624   24391568.1044
      1829.7974
 04  9 10 21 56  0.0030000  0  8G 3G 8G13G10G19G23G27G28
   4380367.02547   3408695.14744  24016155.2024   24016156.1324
     -2399.5624
  -3174941.16649  -2466846.75947  22306835.7654   22306835.7334
       539.3594
   6970731.66249   5420087.24047  21634508.4604   21634506.9994
     -2982.0474
   -866939.24846   -671482.21343  24465206.2804   24465206.9604
       -28.5784
  -2746685.18048  -2137029.85546  23600000.7104   23599998.9294
        26.3444
  14235280.90747  11061122.57044  24325662.6474   24325662.0814
     -4721.4844
   1037510.76349    805842.13347  21743447.8124   21743447.0544
      -676.8914
  -2524171.72048  -1967256.81143  24386348.7964   24386349.1404
      1826.2504
 04  9 10 21 56 15.0030000  0  8G 3G 8G13G10G19G23G27G28
   4416425.13148   3436792.37944  24023016.9684   24023017.9724
     -2408.7344
  -3183011.67449  -2473135.46347  22305300.2184   22305299.4094
       536.1564
   7015515.45749   5454983.68947  21643030.4134   21643028.9644
     -2989.7344
   -866446.41146   -671098.18843  24465299.8194   24465300.7144
       -37.6564
  -2747025.51148  -2137295.01746  23599935.9134   23599934.3314
        18.3444
  14306125.04148  11116325.70644  24339143.6874   24339142.9054
     -4724.9224
   1047683.06349    813768.60947  21745383.2964   21745382.6124
      -679.8914
  -2551544.09248  -1988585.87944  24381139.8824   24381140.5074
      1822.8284
 04  9 10 21 56 30.0030000  0  8G 3G 8G13G10G19G23G27G28
   4452623.37547   3464998.81044  24029905.5154   24029906.1124
     -2418.0164
  -3191031.89049  -2479384.97247  22303773.9764   22303773.3544
       532.7814
   7060416.66249   5489971.63147  21651574.9524   21651573.1284
     -2997.5474
   -865815.66046   -670606.66243  24465420.3824   24465420.8474
       -46.7194
  -2747244.59048  -2137465.70045  23599894.2724   23599892.7454
        10.4064
  14377022.09547  11171570.11044  24352634.9214   24352634.3354
     -4728.3594
   1057901.50749    821731.04047  21747328.0074   21747327.2844
      -682.9224
  -2578863.50448  -2009873.67944  24375941.6164   24375941.2614
      1819.3444
 04  9 10 21 56 45.0030000  0  8G 3G 8G13G10G19G23G27G28
   4488966.50447   3493318.13244  24036821.6164   24036822.2844
     -2427.1564
  -3198996.96049  -2485591.51047  22302258.2104   22302258.1834
       529.7664
   7105439.90649   5525054.68147  21660142.9444   21660141.3084
     -3005.0004
   -865042.06247   -670003.85543  24465568.2494   24465568.1794
       -55.7504
  -2747337.38148  -2137537.97546  23599876.6634   23599875.1674
         2.5004
  14447976.63147  11226859.28944  24366137.3904   24366136.3544
     -4731.6414
   1068170.87749    829733.14647  21749282.0544   21749281.4094
      -685.7344
  -2606125.05748  -2031116.37944  24370753.7724   24370753.8744
      1816.1414
 04  9 10 21 57  0.0030000  0  8G 3G 8G13G10G19G23G27G28
   4525447.50848   3521744.88344  24043763.3044   24043764.7614
     -2437.2814
  -3206913.61649  -2491760.31847  22300751.6244   22300751.3124
       525.5784
   7150578.20749   5560227.36347  21668732.0934   21668730.8474
     -3013.6874
   -864132.47247   -669295.05343  24465740.9604   24465741.6084
       -65.7814
  -2747310.60148  -2137517.07745  23599881.3274   23599881.0264
        -6.3754
  14518981.42348  11282187.63344  24379649.4834   24379648.0894
     -4735.8914
   1078484.27449    837769.56647  21751244.6474   21751243.5774
      -689.6254
  -2633335.37648  -2052319.18344  24365575.1554   24365575.4444
      1811.6564
 04  9 10 21 57 15.0030000  0  8G 3G 8G13G10G19G23G27G28
   4562072.85247   3550284.11444  24050732.5694   24050733.7374
     -2446.5624
  -3214775.23249  -2497886.23447  22299255.7804   22299255.1124
       522.2974
   7195838.06549   5595494.77347  21677344.6404   21677343.2184
     -3021.3594
   -863080.21046   -668475.10743  24465940.7494   24465941.4914
       -74.8754
  -2747157.39948  -2137397.66146  23599910.7184   23599909.2064
       -14.4694
  14590042.91648  11337560.15444  24393171.6634   24393170.8434
     -4739.2974
   1088848.27049    845845.41747  21753216.6714   21753215.9644
      -692.6564
  -2660487.74048  -2073476.78944  24360408.5854   24360408.8194
      1808.2344
 04  9 10 21 57 30.0030000  0  8G 3G 8G13G10G19G23G27G28
   4598837.48448   3578931.87944  24057729.4134   24057729.9334
     -2455.2194
  -3222586.59449  -2503972.99747  22297769.3514   22297768.5854
       519.4844
   7241214.62949   5630853.12147  21685979.7264   21685978.4174
     -3028.6254
   -861889.93547   -667547.60343  24466167.0774   24466167.9254
       -83.5314
  -2746882.32748  -2137183.28146  23599963.2184   23599961.9334
       -22.0474
  14661155.99348  11392972.87044  24406703.6944   24406703.4604
     -4742.2344
   1099258.06449    853956.94547  21755197.8274   21755196.6164
      -695.1254
  -2687586.76548  -2094592.87144  24355251.7654   24355252.4914
      1805.2194
 04  9 10 21 57 45.0030000  0  8G 3G 8G13G10G19G23G27G28
   4635738.80148   3607686.16044  24064751.3044   24064751.5034
     -2464.6874
  -3230350.44249  -2510022.74047  22296291.8354   22296291.2844
       515.9224
   7286705.05849   5666300.19847  21694636.0774   21694634.7574
     -3036.5944
   -860564.07447   -666514.45443  24466419.5854   24466420.1444
       -92.9064
  -2746487.88048  -2136875.88846  23600038.3044   23600036.6514
       -30.2504
  14732317.92247  11448423.66344  24420245.6244   24420245.3824
     -4745.7504
   1109711.23349    862102.27047  21757187.0224   21757185.3744
      -698.3284
  -2714634.99648  -2115669.35444  24350104.8044   24350104.9914
      1801.4534
 04  9 10 21 58  0.0030000  0  8G 3G 8G13G10G19G23G27G28
   4672782.29748   3636551.21844  24071800.4764   24071801.1944
     -2474.2664
  -3238060.76749  -2516030.77047  22294824.7184   22294824.4764
       512.2664
   7332315.03649   5701840.43947  21703315.6474   21703314.2224
     -3044.5784
   -859096.94147   -665371.23043  24466698.2654   24466699.7184
      -102.4844
  -2745968.07548  -2136470.81346  23600137.2654   23600135.6554
       -38.7194
  14803534.05748  11503916.68244  24433797.5464   24433797.0074
     -4749.4374
   1120213.33349    870285.73047  21759185.4994   21759184.5154
      -701.7664
  -2741626.59648  -2136701.72644  24344967.9054   24344968.5114
      1797.5314
 04  9 10 21 58 15.0030000  0  8G 3G 8G13G10G19G23G27G28
   4709966.20748   3665525.69044  24078876.1874   24078877.1204
     -2483.5314
  -3245719.51649  -2521998.61747  22293367.3904   22293366.7264
       509.0164
   7378042.96849   5737472.58347  21712017.1874   21712015.9374
     -3052.2974
   -857489.93446   -664119.00143  24467004.8434   24467005.6244
      -111.5164
  -2745324.26348  -2135969.10246  23600260.0074   23600258.1444
       -46.8594
  14874802.65948  11559450.58743  24447359.6874   24447359.4724
     -4752.8444
   1130762.86349    878506.14547  21761192.9214   21761191.6284
      -704.7504
  -2768563.04148  -2157691.09844  24339842.3824   24339842.8744
      1794.0784
 04  9 10 21 58 30.0030000  0  8G 3G 8G13G10G19G23G27G28
   4747287.98848   3694607.60244  24085978.2414   24085979.0694
     -2492.5624
  -3253328.80849  -2527927.92147  22291919.1084   22291918.2574
       505.8914
   7423886.19849   5773194.57047  21720741.0694   21720739.6444
     -3059.8754
   -855745.37546   -662759.58243  24467336.7804   24467337.4404
      -120.7194
  -2744558.78748  -2135372.59146  23600405.4524   23600403.7064
       -54.9064
  14946121.06948  11615023.28643  24460931.1634   24460929.9524
     -4756.0624
   1141357.44949    886761.66847  21763208.7334   21763208.1014
      -707.6254
  -2795446.55648  -2178639.25344  24334726.5694   24334726.8824
      1790.6564
 04  9 10 21 58 45.0030000  0  8G 3G 8G13G10G19G23G27G28
   4784749.40748   3723798.32444  24093106.4914   24093107.9174
     -2502.1564
  -3260886.76049  -2533817.22447  22290480.7334   22290479.9764
       502.0164
   7469846.46149   5809007.74747  21729486.9214   21729485.5544
     -3068.0004
   -853861.30746   -661291.47543  24467694.8354   24467695.6244
      -130.4534
  -2743669.32748  -2134679.46846  23600574.7024   23600572.6404
       -63.5474
  15017490.85447  11670636.05244  24474512.4524   24474511.6244
     -4759.8284
   1151998.86449    895053.68647  21765233.9914   21765233.0974
      -711.1414
  -2822275.09648  -2199544.55143  24329621.5854   24329621.0504
      1786.5784
 04  9 10 21 59  0.0030000  0  8G 3G 8G13G10G19G23G27G28
   4822346.95447   3753095.11344  24100261.3974   24100262.2264
     -2511.0314
  -3268396.56549  -2539669.00447  22289051.9214   22289051.0774
       499.0474
   7515920.38449   5844909.50247  21738254.5854   21738253.0694
     -3075.3594
   -851840.97747   -659717.16643  24468080.0154   24468080.5774
      -139.2974
  -2742659.10148  -2133892.24846  23600767.1474   23600765.3274
       -71.4064
  15088908.42147  11726286.05243  24488102.5464   24488102.6794
     -4762.8444
   1162683.95249    903379.73147  21767267.2654   21767266.7454
      -713.7504
  -2849051.88648  -2220409.54244  24324526.0384   24324525.6014
      1783.4224
 04  9 10 21 59 15.0030000  0  8G 3G 8G13G10G19G23G27G28
   4860084.16248   3782500.72644  24107442.8584   24107443.7614
     -2520.1564
  -3275854.63549  -2545480.46747  22287632.4214   22287632.3044
       495.8284
   7562111.54949   5880902.60347  21747044.5384   21747043.1444
     -3082.9694
   -849680.60048   -658033.74043  24468490.5544   24468491.3584
      -148.3124
  -2741524.22948  -2133007.88345  23600982.8824   23600981.2264
       -79.4534
  15160377.28147  11781975.99744  24501702.8124   24501703.0264
     -4765.9694
   1173416.26749    911742.57947  21769309.3974   21769308.5734
      -716.7034
  -2875772.96148  -2241231.10643  24319440.6244   24319441.1364
      1779.9064
 04  9 10 21 59 30.0030000  0  8G 3G 8G13G10G19G23G27G28
   4897959.18848   3812013.72544  24114650.0464   24114650.8744
     -2530.0944
  -3283262.64649  -2551252.94147  22286222.7184   22286222.3784
       491.6724
   7608418.02249   5916985.54747  21755856.3584   21755854.9564
     -3091.5004
   -847381.81147   -656242.45343  24468928.1404   24468929.0384
      -158.3754
  -2740266.25548  -2132027.62046  23601222.1874   23601220.7294
       -88.5314
  15231895.43448  11837704.36344  24515312.5694   24515312.4484
     -4770.0164
   1184194.23949    920140.99247  21771360.4604   21771359.2614
      -720.5624
  -2902439.92348  -2262010.50844  24314366.0854   24314366.2764
      1775.4384
 04  9 10 21 59 45.0030000  0  8G 3G 8G13G10G19G23G27G28
   4935971.61748   3841633.80244  24121883.5694   24121884.4054
     -2538.5624
  -3290620.86449  -2556986.59447  22284822.3744   22284822.3274
       488.9844
   7654839.45649   5953158.09147  21764690.1164   21764688.8434
     -3098.4844
   -844944.82047   -654343.49143  24469392.5934   24469392.9014
      -166.9534
  -2738885.23748  -2130951.45446  23601484.2804   23601482.8434
       -96.0944
  15303462.44247  11893470.79844  24528931.1084   24528931.1674
     -4772.6874
   1195017.52749    928574.73947  21773420.1474   21773419.4484
      -722.9694
  -2929052.99248  -2282747.91044  24309301.9374   24309301.8474
      1772.5784
 04  9 10 22  0  0.0030000  0  8G 3G 8G13G10G19G23G27G28
   4974123.06947   3871362.21044  24129143.7334   24129144.6204
     -2548.0624
  -3297927.43949  -2562680.01747  22283431.9834   22283431.3864
       485.4384
   7701377.71249   5989421.65547  21773545.8514   21773544.3434
     -3106.4224
   -842367.52247   -652335.19443  24469882.4994   24469883.5424
      -176.5164
  -2737378.89848  -2129777.65046  23601771.6634   23601769.2924
      -104.5944
  15375079.93347  11949276.55244  24542559.0384   24542560.0384
     -4776.0784
   1205888.10649    937045.31947  21775488.5154   21775487.9954
      -726.3124
  -2955609.98348  -2303441.62144  24304248.0854   24304248.1874
      1768.5784
 04  9 10 22  0 15.0030000  0  8G 3G 8G13G10G19G23G27G28
   5012411.51248   3901197.36744  24136429.8124   24136430.9294
     -2557.0474
  -3305184.15049  -2568334.57947  22282051.1944   22282050.7104
       482.2194
   7748030.72249   6025774.63947  21782423.9214   21782421.9484
     -3113.8444
   -839651.74747   -650218.99243  24470399.1554   24470399.6164
      -185.5004
  -2735749.15048  -2128507.68246  23602081.7414   23602079.9054
      -112.6874
  15446745.71147  12005119.94444  24556197.3434   24556197.7614
     -4779.2344
   1216804.00549    945551.22447  21777566.1554   21777564.8624
      -729.0474
  -2982112.72948  -2324093.05844  24299204.6874   24299204.6084
      1765.1414
 04  9 10 22  0 30.0030000  0  8G 3G 8G13G10G19G23G27G28
   5050837.83248   3931139.95844  24143742.0694   24143743.0504
     -2566.2344
  -3312389.90249  -2573949.43547  22280680.1084   22280679.3084
       478.8284
   7794799.39349   6062217.74747  21791323.5694   21791322.1904
     -3121.5624
   -836796.38247   -647994.01343  24470942.6714   24470943.3154
      -194.8754
  -2733994.69348  -2127140.54646  23602415.9214   23602414.0194
      -121.0474
  15518460.59047  12061001.59643  24569844.6554   24569844.3004
     -4782.4534
   1227766.41249    954093.35547  21779651.8194   21779650.9254
      -732.2034
  -3008560.06548  -2344701.34344  24294171.7024   24294172.2534
      1761.4224
 04  9 10 22  0 45.0030000  0  8G 3G 8G13G10G19G23G27G28
   5089400.21848   3961188.57644  24151080.0464   24151081.2144
     -2575.6094
  -3319546.15949  -2579525.73047  22279318.3664   22279317.8044
       475.2664
   7841682.03249   6098749.66447  21800245.4684   21800243.7724
     -3129.5004
   -833803.02647   -645661.52443  24471511.9914   24471512.6874
      -204.3754
  -2732117.02148  -2125677.38246  23602772.5304   23602771.2334
      -129.4844
  15590222.65947  12116920.04143  24583500.1634   24583500.2294
     -4785.7974
   1238773.60549    962670.39547  21781746.8514   21781745.1474
      -735.4374
  -3034953.56148  -2365267.64544  24289148.9134   24289149.5734
      1757.6094
 04  9 10 22  1  0.0030000  0  8G 3G 8G13G10G19G23G27G28
   5128102.03748   3991345.85544  24158444.8974   24158446.1364
     -2584.9534
  -3326649.59049  -2585060.85847  22277966.2104   22277965.3664
       471.6094
   7888682.01549   6135373.01547  21809188.8274   21809187.6324
     -3137.5164
   -830668.02347   -643218.64543  24472108.6874   24472109.2374
      -214.0314
  -2730112.39348  -2124115.30446  23603154.0224   23603152.0074
      -138.1414
  15662035.26747  12172877.84143  24597166.2804   24597165.1204
     -4789.4694
   1249829.14549    971285.09647  21783850.4764   21783849.5654
      -738.9374
  -3061289.48448  -2385789.08544  24284137.3664   24284138.1834
      1753.5784
 04  9 10 22  1 15.0030000  0  8G 3G 8G13G10G19G23G27G28
   5166941.64448   4021610.48544  24165835.7024   24165836.7884
     -2593.9224
  -3333701.49849  -2590555.84347  22276624.4294   22276623.8784
       468.4694
   7935797.54749   6172086.41147  21818154.8354   21818153.4294
     -3144.8444
   -827392.89748   -640666.58243  24472731.9444   24472732.3904
      -223.0164
  -2727982.10048  -2122455.29246  23603559.0624   23603557.4254
      -146.1874
  15733896.57647  12228873.60643  24610840.9214   24610840.2764
     -4792.3284
   1260931.57349    979936.36047  21785963.0224   21785962.5034
      -741.6874
  -3087569.27048  -2406266.77144  24279137.2104   24279137.3624
      1750.1094
 04  9 10 22  1 30.0030000  0  8G 3G 8G13G10G19G23G27G28
   5205919.34148   4051982.69044  24173253.1874   24173254.0154
     -2603.2194
  -3340701.60149  -2596010.46047  22275292.4054   22275291.9014
       464.8754
   7983028.92749   6208890.06947  21827142.2414   21827141.3274
     -3152.6094
   -823977.02247   -638004.85543  24473381.8354   24473382.3864
      -232.5004
  -2725725.46548  -2120696.86046  23603988.8974   23603987.0074
      -154.7034
  15805806.80847  12284907.48143  24624524.5384   24624524.0114
     -4795.7504
   1272081.27249    988624.43347  21788084.8124   21788083.9294
      -745.0474
  -3113792.36448  -2426700.32144  24274146.8664   24274147.0194
      1746.2814
 04  9 10 22  1 45.0030000  0  8G 3G 8G13G10G19G23G27G28
   5245037.48748   4082464.35844  24180697.0224   24180697.6204
     -2612.5944
  -3347647.22949  -2601422.62147  22273971.0624   22273970.2534
       461.1724
   8030378.86949   6245786.12347  21836152.6714   21836151.5734
     -3160.6094
   -820417.74947   -635231.37743  24474058.8744   24474059.8514
      -242.0164
  -2723339.67548  -2118837.77046  23604443.5854   23604441.0074
      -163.4064
  15877768.45447  12340981.41443  24638218.7494   24638218.2374
     -4799.2504
   1283280.86149    997351.39347  21790216.0624   21790215.1594
      -748.3284
  -3139955.87848  -2447087.41544  24269168.0544   24269168.5504
      1742.1884
 04  9 10 22  2  0.0030000  0  8G 3G 8G13G10G19G23G27G28
   5284292.49048   4113052.69844  24188166.8194   24188167.8824
     -2621.5314
  -3354541.88049  -2606795.05747  22272658.8514   22272657.8544
       457.9534
   8077843.74249   6282771.72647  21845185.1634   21845184.1404
     -3168.2814
   -816718.36548   -632348.73243  24474763.1554   24474763.6634
      -251.2974
  -2720828.02448  -2116880.60346  23604921.0854   23604919.9054
      -171.5004
  15949777.69747  12397092.42444  24651921.6244   24651921.2724
     -4802.2344
   1294527.01849   1006114.63247  21792356.2024   21792355.0854
      -751.2814
  -3166063.17348  -2467430.70044  24264199.8824   24264200.7964
      1738.6094
 04  9 10 22  2 15.0030000  0  8G 3G 8G13G10G19G23G27G28
   5323686.71348   4143749.48344  24195663.6554   24195664.6794
     -2630.8594
  -3361383.03849  -2612125.82047  22271356.6794   22271356.1244
       454.2974
   8125425.94749   6319848.75347  21854239.6794   21854238.4724
     -3176.1094
   -812876.30248   -629354.89043  24475494.0074   24475494.8784
      -260.8594
  -2718187.78248  -2114823.22245  23605423.3744   23605421.6084
      -180.2974
  16021836.83547  12453242.33943  24665634.3194   24665633.5424
     -4805.5164
   1305822.13849   1014916.03147  21794505.2884   21794504.3004
      -754.6094
  -3192111.51348  -2487728.06544  24259243.1014   24259243.4874
      1734.5784
 04  9 10 22  2 30.0030000  0  8G 3G 8G13G10G19G23G27G28
   5363219.99748   4174554.64844  24203186.3824   24203187.3314
     -2640.5944
  -3368170.53149  -2617414.76247  22270065.2574   22270064.8044
       450.2974
   8173125.25049   6357017.02848  21863316.4294   21863315.3544
     -3184.2664
   -808891.56048   -626249.88144  24476252.4914   24476253.3664
      -270.7504
  -2715418.88548  -2112665.62245  23605949.8514   23605948.4644
      -189.2504
  16093945.56347  12509430.89544  24679356.0934   24679355.6984
     -4809.2194
   1317166.36249   1023755.69347  21796664.3514   21796663.4724
      -758.3444
  -3218100.79648  -2507979.37144  24254297.6404   24254297.4484
      1730.2974
 04  9 10 22  2 45.0030000  0  8G 3G 8G13G10G19G23G27G28
   5402888.47148   4205465.15144  24210734.9374   24210735.6014
     -2648.9224
  -3374907.88349  -2622664.63247  22268782.8744   22268782.2724
       447.5944
   8220937.95149   6394273.67047  21872415.1404   21872414.2764
     -3191.1874
   -804767.67747   -623036.46743  24477037.1084   24477038.0074
      -279.4224
  -2712524.75148  -2110410.42146  23606500.7334   23606499.0384
      -197.0004
  16166100.02848  12565655.07443  24693086.5934   24693086.1164
     -4811.7504
   1328555.91249   1032630.66447  21798831.3664   21798830.5384
      -760.7034
  -3244034.58048  -2528187.46344  24249362.3044   24249362.2764
      1727.2034
 04  9 10 22  3  0.0030000  0  8G 3G 8G13G10G19G23G27G28
   5442693.09948   4236481.74844  24218309.1014   24218310.5194
     -2658.4534
  -3381593.93449  -2627874.53347  22267510.5624   22267509.7294
       443.7664
   8268865.04849   6431619.44047  21881535.3274   21881534.0304
     -3199.1724
   -800503.39147   -619713.63143  24477848.7414   24477849.4254
      -289.2344
  -2709503.82148  -2108056.43446  23607075.6554   23607074.0424
      -205.9374
  16238301.16147  12621915.63543  24706826.3354   24706825.5654
     -4815.1724
   1339992.17849   1041542.03747  21801007.8974   21801006.8394
      -764.2344
  -3269911.53848  -2548351.27644  24244438.4994   24244437.5734
      1722.9844
 04  9 10 22  3 15.0030000  0  8G 3G 8G13G10G19G23G27G28
   5482634.44348   4267604.86544  24225910.0304   24225910.2144
     -2667.7974
  -3388227.95849  -2633043.88247  22266248.5224   22266247.5734
       440.1254
   8316907.14649   6469054.83648  21890677.2104   21890676.0734
     -3207.1094
   -796097.91548   -616280.78843  24478687.0384   24478687.3004
      -298.9224
  -2706355.37748  -2105603.06046  23607674.8664   23607673.7574
      -214.7344
  16310549.43247  12678212.91743  24720574.8354   24720573.7804
     -4818.6724
   1351475.77049   1050490.29847  21803193.1164   21803191.9764
      -767.6564
  -3295730.88748  -2568470.17444  24239525.0384   24239524.6084
      1718.8594
 04  9 10 22  3 30.0030000  0  8G 3G 8G13G10G19G23G27G28
   5522714.52748   4298836.11144  24233536.7964   24233537.7844
     -2676.8124
  -3394807.82449  -2638171.04547  22264996.1794   22264995.5654
       436.7664
   8365066.29649   6506581.43548  21899841.9764   21899840.5074
     -3214.6874
   -791549.04947   -612736.20143  24479552.6714   24479553.3044
      -308.1874
  -2703077.07548  -2103048.51846  23608298.7654   23608297.0894
      -223.0944
  16382846.75747  12734548.42143  24734332.0304   24734331.3044
     -4821.6254
   1363008.88349   1059477.14247  21805387.7884   21805386.6874
      -770.7504
  -3321490.34147  -2588542.42144  24234623.0224   24234622.8584
      1715.1724
 04  9 10 22  3 45.0030000  0  8G 3G 8G13G10G19G23G27G28
   5562932.05848   4330174.45244  24241190.3434   24241190.9874
     -2685.4224
  -3401334.53449  -2643256.77847  22263754.2654   22263753.6284
       433.6724
   8413341.26149   6544198.27948  21909028.2024   21909026.6404
     -3221.8284
   -786857.74147   -609080.60443  24480445.5854   24480446.0224
      -317.1874
  -2699669.74748  -2100393.43146  23608947.0384   23608945.3274
      -231.1254
  16455191.75747  12790921.06644  24748099.3044   24748098.7804
     -4824.2344
   1374590.43849   1068501.74347  21807591.8904   21807590.8544
      -773.3754
  -3347190.64648  -2608568.59144  24229732.2654   24229732.3394
      1711.7194
 04  9 10 22  4  0.0030000  0  8G 3G 8G13G10G19G23G27G28
   5603283.94548   4361617.48044  24248868.7414   24248869.7334
     -2695.0164
  -3407810.71949  -2648303.13747  22262521.6164   22262521.4724
       429.6254
   8461729.05749   6581903.04447  21918236.2574   21918234.7454
     -3230.0164
   -782026.87847   -605316.29844  24481364.7724   24481365.6904
      -327.0314
  -2696136.10948  -2097639.92446  23609619.2804   23609617.6634
      -240.3284
  16527581.27148  12847328.40743  24761873.9914   24761874.4794
     -4827.8444
   1386217.73449   1077561.97647  21809804.4054   21809803.2264
      -777.0784
  -3372834.71947  -2628550.92544  24224852.8274   24224851.9564
      1707.3284
 04  9 10 22  4 15.0030000  0  8G 3G 8G13G10G19G23G27G28
   5643773.77448   4393167.99344  24256573.6714   24256574.4444
     -2703.9064
  -3414232.92849  -2653307.44147  22261299.8664   22261299.1444
       426.2974
   8510233.26549   6619698.51347  21927465.9524   21927465.0034
     -3237.4844
   -777052.56047   -601440.19143  24482311.4764   24482311.9214
      -336.4844
  -2692472.13648  -2094784.86246  23610316.7884   23610314.6834
      -248.7664
  16600018.92347  12903773.26443  24775658.4054   24775657.7414
     -4830.9534
   1397894.30049   1086660.60947  21812026.2724   21812025.2614
      -780.1414
  -3398418.54147  -2648486.31944  24219983.7264   24219983.7334
      1703.5004
 04  9 10 22  4 30.0030000  0  8G 3G 8G13G10G19G23G27G28
   5684401.04448   4424825.59844  24264304.8274   24264305.8584
     -2712.8124
  -3420601.51449  -2658269.96247  22260087.7964   22260087.3234
       422.9534
   8558853.35649   6657584.28347  21936718.4524   21936716.8864
     -3245.0314
   -771935.13147   -597452.57543  24483284.5934   24483285.5894
      -345.7974
  -2688678.18648  -2091828.49946  23611038.8274   23611036.7884
      -257.0944
  16672504.01347  12960255.06743  24789452.2724   24789451.9874
     -4833.7344
   1409619.95849   1095797.47747  21814257.7264   21814256.6554
      -783.1724
  -3423942.43047  -2668375.01544  24215126.5694   24215126.2224
      1699.7034
 04  9 10 22  4 45.0030000  0  8G 3G 8G13G10G19G23G27G28
   5725161.17247   4456586.74744  24272061.2264   24272062.5384
     -2722.2344
  -3426920.61649  -2663193.92647  22258885.5074   22258884.7844
       419.1414
   8607584.74749   6695556.78647  21945991.6874   21945990.5734
     -3252.9694
   -766678.95947   -593356.85043  24484284.7654   24484285.7574
      -355.5474
  -2684758.41848  -2088774.11146  23611784.3514   23611782.7104
      -265.9844
  16745031.87747  13016770.22543  24803254.0464   24803253.6874
     -4837.0314
   1421390.19549   1104969.10247  21816497.2494   21816496.0584
      -786.6254
  -3449410.66747  -2688220.35544  24210279.9134   24210279.8394
      1695.4844
 04  9 10 22  5  0.0030000  0  8G 3G 8G13G10G19G23G27G28
   5766058.22648   4488454.56444  24279843.5774   24279844.7334
     -2731.0004
  -3433186.15549  -2668076.14747  22257692.8194   22257692.2064
       415.9694
   8656431.57649   6733619.23447  21955286.7104   21955285.8394
     -3260.2664
   -761279.63047   -589149.57143  24485312.7804   24485313.4214
      -364.7034
  -2680708.32548  -2085618.17446  23612555.1164   23612552.9604
      -274.3124
  16817606.71247  13073321.95443  24817064.8354   24817064.4604
     -4839.7814
   1433209.51249   1114178.96447  21818746.5694   21818745.5424
      -789.5624
  -3474818.77347  -2708018.80444  24205445.0694   24205445.2294
      1691.9384
 04  9 10 22  5 15.0040000  0  8G 3G 8G13G10G19G23G27G28
   5807089.49448   4520426.98944  24287651.8014   24287652.7384
     -2739.5314
  -3439403.66749  -2672920.95047  22256509.8014   22256509.4344
       412.9224
   8705391.98549   6771770.19547  21964603.9654   21964603.0474
     -3267.4374
   -755741.99048   -584834.48644  24486366.5984   24486367.5744
      -373.6564
  -2676532.73348  -2082364.44046  23613349.3094   23613348.1724
      -282.4534
  16890227.73247  13129909.70443  24830884.3404   24830883.6054
     -4842.3124
   1445073.40349   1123423.56247  21821004.0664   21821002.7194
      -792.2504
  -3500173.55647  -2727775.72144  24200620.3014   24200620.4144
      1688.3594
 04  9 10 22  5 30.0040000  0  8G 3G 8G13G10G19G23G27G28
   5848256.47048   4552505.13544  24295485.7624   24295486.5624
     -2748.8444
  -3445565.17549  -2677722.12347  22255337.1914   22255336.7344
       409.1724
   8754466.32849   6810009.91347  21973942.1914   21973941.1294
     -3275.3124
   -750059.62747   -580406.68843  24487447.8634   24487448.9924
      -383.4534
  -2672224.96948  -2079007.72746  23614169.8634   23614167.3484
      -291.3444
  16962892.13147  13186531.24343  24844711.5904   24844710.8944
     -4845.7814
   1456987.35549   1132707.15447  21823271.6054   21823270.3874
      -795.7664
  -3525464.47847  -2747482.88844  24195807.5664   24195807.6024
      1684.2344
 04  9 10 22  5 45.0040000  0  8G 3G 8G13G10G19G23G27G28
   5889557.31148   4584687.61744  24303344.9804   24303346.1334
     -2758.0004
  -3451675.50849  -2682483.40647  22254174.5744   22254174.2034
       405.5474
   8803653.23949   6848337.38247  21983302.2154   21983300.7424
     -3283.0314
   -744236.50548   -575869.16943  24488556.3944   24488556.3554
      -392.9534
  -2667788.91848  -2075551.03646  23615013.4024   23615011.8944
      -300.1874
  17035600.04847  13243186.67643  24858547.1444   24858546.7504
     -4848.7504
   1468947.79749   1142026.99447  21825547.2304   21825546.8444
      -799.0474
  -3550697.40747  -2767144.84444  24191005.6054   24191005.5594
      1680.1414
 04  9 10 22  6  0.0040000  0  8G 3G 8G13G10G19G23G27G28
   5930994.56548   4616976.37344  24311230.2384   24311231.4734
     -2767.1254
  -3457731.82149  -2687202.59947  22253022.0124   22253021.2774
       401.8914
   8852955.26849   6886754.53947  21992683.9264   21992682.3874
     -3290.7664
   -738269.74648   -571219.73343  24489691.2304   24489691.8984
      -402.6724
  -2663221.57048  -2071992.03646  23615882.6134   23615880.6334
      -308.9694
  17108354.07047  13299878.03543  24872391.7234   24872391.6214
     -4852.0164
   1480957.49749   1151385.21047  21827832.2154   21827831.4614
      -802.3594
  -3575869.36148  -2786759.30344  24186215.4804   24186215.4304
      1676.0314
 04  9 10 22  6 15.0040000  0  8G 3G 8G13G10G19G23G27G28
   5972563.67747   4649367.90144  24319140.7154   24319141.3244
     -2775.4844
  -3463738.33749  -2691882.98747  22251878.8554   22251878.4184
       398.9384
   8902368.09749   6925258.02047  22002087.2854   22002085.7234
     -3297.6874
   -732163.69548   -566461.78044  24490853.5274   24490853.6094
      -411.5004
  -2658527.09248  -2068333.96946  23616776.0514   23616774.3674
      -317.0004
  17181149.61847  13356601.76543  24886244.5044   24886244.3754
     -4854.0944
   1493012.19749   1160778.48247  21830126.2384   21830125.5904
      -805.0004
  -3600984.74147  -2806329.65844  24181436.2544   24181436.0824
      1672.6254
 04  9 10 22  6 30.0040000  0  8G 3G 8G13G10G19G23G27G28
   6014265.21747   4681862.61644  24327075.9964   24327077.0554
     -2784.3914
  -3469694.14149  -2696523.85947  22250745.6994   22250745.0474
       395.4694
   8951892.31749   6963848.31847  22011511.0744   22011509.8554
     -3305.2194
   -725917.38648   -561594.50544  24492041.6604   24492042.6294
      -421.0164
  -2653704.67248  -2064576.21546  23617693.7624   23617692.0594
      -325.7034
  17253987.14747  13413358.20543  24900105.9104   24900103.9734
     -4857.0624
   1505112.72949   1170207.48147  21832428.9654   21832428.1294
      -808.0004
  -3626042.56947  -2825855.17144  24176667.7854   24176667.6874
      1668.7974
 04  9 10 22  6 45.0040000  0  8G 3G 8G13G10G19G23G27G28
   6056098.62448   4714460.06244  24335037.1374   24335037.5784
     -2793.4064
  -3475599.86049  -2701125.69747  22249621.8484   22249621.4304
       392.0004
   9001527.29649   7002524.91547  22020956.2694   22020954.5084
     -3312.7974
   -719531.24848   -556618.29744  24493257.2234   24493257.9344
      -430.4844
  -2648754.55548  -2060718.96346  23618635.5824   23618633.4844
      -334.3594
  17326866.08447  13470146.91343  24913973.6294   24913973.2034
     -4860.0944
   1517258.66149   1179671.84947  21834740.6134   21834739.2274
      -811.2814
  -3651043.14647  -2845336.08644  24171910.1994   24171910.6254
      1664.6414
 04  9 10 22  7  0.0040000  0  8G 3G 8G13G10G19G23G27G28
   6098064.70548   4747160.89344  24343022.7234   24343023.4614
     -2802.0004
  -3481454.33049  -2705687.62147  22248508.0744   22248507.6444
       388.6254
   9051274.01049   7041288.57047  22030422.9024   22030421.2074
     -3320.0314
   -713004.23448   -551532.30543  24494499.4414   24494500.1054
      -439.7814
  -2643675.39648  -2056761.15546  23619602.0434   23619599.9654
      -342.7664
  17399787.07447  13526968.37043  24927849.8944   24927849.7774
     -4862.6094
   1529451.01149   1189172.37947  21837060.6844   21837059.6684
      -814.2814
  -3675985.16848  -2864771.38844  24167164.2074   24167164.3834
      1660.8444
 04  9 10 22  7 15.0040000  0  8G 3G 8G13G10G19G23G27G28
   6140163.99647   4779965.53344  24351033.7544   24351034.6764
     -2810.9374
  -3487256.87649  -2710209.07147  22247403.7624   22247403.3834
       385.2344
   9101132.79949   7080139.57047  22039910.6914   22039909.6294
     -3327.5004
   -706335.51448   -546335.87644  24495768.1054   24495768.7114
      -449.2344
  -2638466.33248  -2052702.12146  23620593.3944   23620591.4574
      -351.4064
  17472750.82147  13583823.16943  24941735.0904   24941734.8524
     -4865.5944
   1541690.63749   1198709.75647  21839389.8554   21839388.7694
      -817.4064
  -3700867.86048  -2884160.43344  24162428.7464   24162429.0124
      1657.0004
 04  9 10 22  7 30.0040000  0  8G 3G 8G13G10G19G23G27G28
   6182395.08347   4812872.87444  24359069.9734   24359071.0624
     -2819.7034
  -3493008.58649  -2714690.90247  22246309.1444   22246308.7424
       381.8444
   9151102.47949   7119076.97847  22049419.8634   22049418.4844
     -3334.9844
   -699526.25248   -541029.94843  24497064.2074   24497064.8164
      -458.5164
  -2633128.41148  -2048542.67446  23621609.1684   23621607.1254
      -360.1564
  17545755.69847  13640709.99643  24955626.9344   24955627.0664
     -4868.2034
   1553976.28649   1208283.00547  21841727.5904   21841726.9494
      -820.5164
  -3725692.31748  -2903504.09744  24157705.0434   24157704.9774
      1653.1094
 04  9 10 22  7 45.0040000  0  8G 3G 8G13G10G19G23G27G28
   6224756.91548   4845882.08444  24367131.3794   24367131.7584
     -2828.5624
  -3498710.27449  -2719133.77647  22245224.4494   22245223.3794
       378.3284
   9201182.08549   7158100.02547  22058949.9414   22058948.0904
     -3342.3284
   -692577.33148   -535615.20144  24498386.2694   24498386.6994
      -468.0784
  -2627662.32248  -2044283.37246  23622649.2074   23622647.2464
      -368.8444
  17618800.74346  13697628.14143  24969527.3094   24969527.6214
     -4871.2034
   1566307.00049   1217891.34047  21844074.1844   21844073.3014
      -823.6724
  -3750459.19447  -2922802.94644  24152992.0744   24152991.6214
      1649.0474
 04  9 10 22  8  0.0040000  0  8G 3G 8G13G10G19G23G27G28
   6267252.07547   4878995.17844  24375218.1214   24375219.0554
     -2837.4694
  -3504359.11349  -2723535.45447  22244149.2464   22244148.9184
       374.8444
   9251374.25449   7197210.79947  22068500.8794   22068499.7854
     -3349.8754
   -685485.92348   -530089.41843  24499735.9104   24499736.5394
      -477.5624
  -2622065.18048  -2039921.92746  23623714.5594   23623712.3284
      -377.4534
  17691888.31546  13754579.41043  24983435.2074   24983436.0594
     -4873.9844
   1578685.76949   1227537.14447  21846429.4414   21846429.0624
      -826.8284
  -3775165.73447  -2942054.73744  24148290.4884   24148290.1874
      1645.0784
 04  9 10 22  8 15.0040000  0  8G 3G 8G13G10G19G23G27G28
   6309877.94547   4912210.14044  24383328.8714   24383330.4414
     -2845.7664
  -3509957.57449  -2727897.88047  22243083.7624   22243082.7074
       371.8444
   9301676.39549   7236407.26147  22078073.0124   22078071.3834
     -3356.7344
   -678254.36347   -524454.42543  24501112.2074   24501112.6764
      -486.3914
  -2616339.27248  -2035460.16346  23624804.2234   23624802.2974
      -385.6254
  17765015.69447  13811561.69043  24997351.4884   24997351.4414
     -4876.1414
   1591110.17649   1237218.50247  21848793.7464   21848793.1804
      -829.4374
  -3799814.10547  -2961261.20044  24143600.3714   24143599.8404
      1641.7034
 04  9 10 22  8 30.0040000  0  8G 3G 8G13G10G19G23G27G28
   6352636.23447   4945528.27244  24391466.4884   24391466.8794
     -2854.6094
  -3515503.56249  -2732219.41247  22242028.4264   22242027.7774
       368.3134
   9352090.28649   7275690.80647  22087666.1844   22087664.9804
     -3364.2814
   -670880.75448   -518708.73343  24502515.4264   24502515.3984
      -495.9374
  -2610482.45448  -2030896.38146  23625918.5744   23625916.4344
      -394.4534
  17838184.59747  13868576.34543  25011274.6684   25011274.9224
     -4878.9224
   1603582.04649   1246936.85747  21851167.2154   21851166.3444
      -832.6724
  -3824402.29147  -2980420.78744  24138921.5194   24138921.3554
      1637.5004
 04  9 10 22  8 45.0040000  0  8G 3G 8G13G10G19G23G27G28
   6395526.86647   4978949.55043  24399627.8164   24399629.0274
     -2863.8914
  -3520996.90949  -2736499.93747  22240983.1134   22240982.5394
       364.3134
   9402615.86649   7315061.37347  22097280.8874   22097279.7934
     -3372.2034
   -663364.90748   -512852.22743  24503945.6914   24503945.9144
      -505.9064
  -2604494.46848  -2026230.40546  23627058.2854   23627055.7384
      -403.6414
  17911395.04446  13925623.35143  25025205.6524   25025206.5824
     -4882.2194
   1616101.71749   1256692.44047  21853549.5594   21853548.7854
      -836.3594
  -3848930.09747  -2999533.30444  24134253.8714   24134253.0944
      1633.0784
 04  9 10 22  9  0.0040000  0  8G 3G 8G13G10G19G23G27G28
   6438551.13247   5012474.94944  24407815.1994   24407816.4534
     -2872.8124
  -3526435.94249  -2740738.13547  22239948.1994   22239947.2774
       360.7344
   9453254.57449   7354520.09747  22106917.3944   22106916.2114
     -3379.8284
   -655705.20748   -506883.61143  24505402.7304   24505403.3124
      -515.4844
  -2598373.51448  -2021460.80846  23628222.6684   23628220.2194
      -412.6254
  17984648.19547  13982703.64343  25039145.3944   25039146.3094
     -4885.0314
   1628670.62549   1266486.40047  21855941.5824   21855940.5824
      -839.6564
  -3873395.78047  -3018597.41944  24129598.1524   24129597.8014
      1628.9064
 04  9 10 22  9 15.0040000  0  8G 3G 8G13G10G19G23G27G28
   6481706.70447   5046102.65343  24416026.8324   24416028.6564
     -2881.1874
  -3531822.83649  -2744935.71147  22238922.9964   22238922.3714
       357.6564
   9504004.21349   7394065.25847  22116574.8714   22116573.7974
     -3386.8444
   -647903.74548   -500804.53743  24506887.1844   24506887.6874
      -524.6414
  -2592121.67148  -2016589.21746  23629412.4734   23629410.0944
      -421.0164
  18057941.68847  14039815.40143  25053093.7234   25053093.8524
     -4887.4374
   1641286.71249   1276317.11547  21858342.5274   21858341.3554
      -842.4064
  -3897801.31447  -3037614.67344  24124953.5984   24124953.2894
      1625.2974
 04  9 10 22  9 30.0040000  0  8G 3G 8G13G10G19G23G27G28
   6524992.13748   5079831.55244  24424264.4414   24424265.5664
     -2890.5624
  -3537158.97349  -2749093.71947  22237907.9414   22237907.4344
       353.3754
   9554863.18249   7433695.60847  22126253.0434   22126251.6844
     -3394.8594
   -639961.69748   -494615.91243  24508398.9654   24508399.3794
      -534.8594
  -2585740.05148  -2011616.51046  23630626.6844   23630624.8834
      -430.4534
  18131274.02346  14096957.35843  25067048.2384   25067048.4104
     -4890.7344
   1653948.70349   1286183.60447  21860751.9264   21860751.0864
      -846.2664
  -3922147.84747  -3056585.93844  24120320.7624   24120320.4734
      1620.5474
 04  9 10 22  9 45.0040000  0  8G 3G 8G13G10G19G23G27G28
   6568406.79248   5113661.12244  24432525.6054   24432526.6484
     -2898.4064
  -3542444.69949  -2753212.46247  22236901.6684   22236901.1174
       350.9384
   9605830.90549   7473410.70147  22135951.5594   22135950.4304
     -3401.2344
   -631879.51247   -488318.10843  24509936.5434   24509937.3634
      -543.1874
  -2579228.86148  -2006542.83646  23631865.9734   23631863.8284
      -438.2034
  18204644.52146  14154129.09743  25081010.4884   25081011.5554
     -4892.3594
   1666656.34049   1296085.65347  21863169.8944   21863168.4734
      -848.5164
  -3946435.62548  -3075511.43645  24115698.4184   24115698.5194
      1617.5164
 04  9 10 22 10  0.0040000  0  8G 3G 8G13G10G19G23G27G28
   6611952.34148   5147592.73243  24440812.0434   24440813.5394
     -2907.3754
  -3547678.11049  -2757290.42847  22235905.8094   22235905.3124
       347.2504
   9656909.17549   7513211.93847  22145671.6914   22145670.5624
     -3408.8284
   -623655.25348   -481909.58043  24511501.3794   24511502.0124
      -552.9374
  -2572586.05048  -2001366.59446  23633129.5744   23633127.5554
      -447.1414
  18278054.77946  14211331.81443  25094979.4964   25094979.9264
     -4895.2664
   1679411.39449   1306024.66347  21865597.0904   21865595.9654
      -851.8594
  -3970662.66348  -3094389.58845  24111088.2934   24111088.5394
      1613.1564
 04  9 10 22 10 15.0040000  0  8G 3G 8G13G10G19G23G27G28
   6655629.88548   5181627.16343  24449123.3714   24449124.6094
     -2916.4064
  -3552857.88449  -2761326.61647  22234920.0904   22234919.2504
       343.2664
   9708099.17149   7553100.23147  22155413.1134   22155411.8284
     -3416.5474
   -615287.63148   -475389.34743  24513093.9494   24513093.8284
      -562.7974
  -2565810.32148  -1996086.79446  23634419.1524   23634417.1334
      -456.3124
  18351505.83847  14268566.30743  25108957.0594   25108958.1094
     -4898.3284
   1692215.19249   1316001.65247  21868033.6524   21868032.7974
      -855.4534
  -3994827.64947  -3113219.40445  24106490.1374   24106489.8124
      1608.7034
 04  9 10 22 10 30.0040000  0  8G 3G 8G13G10G19G23G27G28
   6699441.15648   5215765.81544  24457460.8944   24457461.7974
     -2925.1414
  -3557981.88349  -2765319.32848  22233945.0664   22233944.6374
       339.7974
   9759402.58249   7593076.90147  22165175.4024   22165174.5044
     -3423.9534
   -606774.60048   -468755.80843  24514713.5904   24514713.9804
      -572.3284
  -2558899.44248  -1990701.66746  23635734.4414   23635732.0824
      -465.1414
  18424999.40446  14325833.94943  25122941.8404   25122943.6294
     -4900.8914
   1705069.72649   1326018.18147  21870479.6054   21870478.7234
      -858.6094
  -4018928.49347  -3131999.23245  24101903.5434   24101903.3944
      1604.6414
 04  9 10 22 10 45.0040000  0  8G 3G 8G13G10G19G23G27G28
   6743384.42148   5250007.30743  24465822.8554   24465824.0744
     -2934.0474
  -3563051.69849  -2769269.82348  22232980.2854   22232979.7424
       336.1094
   9810817.79549   7633140.69647  22174959.3324   22174958.0554
     -3431.5314
   -598117.62947   -462010.08343  24516361.5194   24516361.4964
      -581.9534
  -2551854.73248  -1985212.25846  23637074.6844   23637073.0514
      -474.2194
  18498533.81446  14383133.38143  25136936.2234   25136936.9494
     -4903.7974
   1717973.54649   1336073.09347  21872935.5664   21872934.4694
      -862.0314
  -4042966.47348  -3150730.08445  24097329.6214   24097329.1844
      1600.2974
 04  9 10 22 11  0.0040000  0  8G 3G 8G13G10G19G23G27G28
   6787458.20748   5284350.51844  24474209.9654   24474210.9264
     -2942.5944
  -3568068.59449  -2773179.07547  22232025.7384   22232025.2194
       332.6724
   9862343.44449   7673290.53647  22184764.6994   22184762.8444
     -3438.7194
   -589317.95347   -455153.19843  24518036.4804   24518036.0594
      -591.5004
  -2544677.40348  -1979619.51446  23638440.2384   23638439.1764
      -483.0004
  18572107.47147  14440463.40543  25150936.2234   25150937.2304
     -4906.3284
   1730925.47849   1346165.51848  21875400.0594   21875399.2274
      -865.0944
  -4066942.80848  -3169412.88844  24092766.6214   24092766.4654
      1596.3754
 04  9 10 22 11 15.0040000  0  8G 3G 8G13G10G19G23G27G28
   6831665.49148   5318797.72543  24482622.1764   24482622.8794
     -2951.2034
  -3573029.26749  -2777044.52147  22231081.2544   22231080.6174
       329.2344
   9913982.47149   7713528.73247  22194591.0354   22194589.8444
     -3445.9844
   -580372.44347   -448182.65243  24519737.7464   24519738.4104
      -600.8284
  -2537364.18348  -1973920.86746  23639832.4264   23639830.0624
      -491.6724
  18645723.24346  14497826.26943  25164945.3014   25164946.5944
     -4908.7664
   1743928.63449   1356297.86347  21877874.0514   21877873.5234
      -868.1564
  -4090854.23348  -3188045.11844  24088216.6134   24088216.5124
      1592.3594
 04  9 10 22 11 30.0040000  0  8G 3G 8G13G10G19G23G27G28
   6876000.28048   5353344.29444  24491058.6994   24491059.4144
     -2959.2344
  -3577939.42949  -2780870.62347  22230147.2304   22230146.4024
       326.2814
   9965728.94149   7753850.63147  22204437.8634   22204436.7034
     -3452.6724
   -571286.74147   -441102.89643  24521467.3484   24521467.7544
      -609.7194
  -2529920.65148  -1968120.70946  23641248.7304   23641246.3714
      -499.9064
  18719375.28546  14555217.38043  25178961.0194   25178962.6484
     -4910.8444
   1756977.32849   1366465.66147  21880357.6134   21880356.2584
      -870.8124
  -4114706.29548  -3206631.09345  24083677.4804   24083677.5314
      1588.8444
 04  9 10 22 11 45.0040000  0  8G 3G 8G13G10G19G23G27G28
   6920462.44848   5387990.13843  24499519.6444   24499520.7464
     -2968.3754
  -3582798.80649  -2784657.13747  22229222.7074   22229222.0354
       322.2194
  10017582.94249   7794256.33947  22214305.3714   22214303.9844
     -3460.5314
   -562060.80847   -433913.82443  24523222.3944   24523222.8794
      -619.7504
  -2522346.45348  -1962218.72246  23642689.9884   23642687.3914
      -509.3594
  18793063.37346  14612636.55143  25192983.2694   25192984.4964
     -4913.8594
   1770071.75749   1376669.12047  21882849.2624   21882848.2274
      -874.5624
  -4138498.75648  -3225170.63145  24079150.2384   24079149.6604
      1584.1254
 04  9 10 22 12  0.0040000  0  8G 3G 8G13G10G19G23G27G28
   6965057.95448   5422739.85944  24508005.9414   24508007.3874
     -2977.5474
  -3587601.54349  -2788399.51647  22228308.2694   22228308.1294
       318.2344
  10069550.36449   7834750.42047  22224194.5434   22224193.8524
     -3468.3754
   -552688.44947   -426610.66243  24525005.8874   24525006.6804
      -629.7504
  -2514635.33348  -1956210.02746  23644157.5354   23644155.5594
      -518.7034
  18866793.28547  14670088.33943  25207013.5744   25207015.4304
     -4916.8124
   1783217.97549   1386912.92647  21885351.0514   21885349.4964
      -878.2194
  -4162225.37948  -3243658.85745  24074634.8794   24074634.4104
      1579.5944
 04  9 10 22 12 15.0040000  0  8G 3G 8G13G10G19G23G27G28
   7009784.44548   5457591.67244  24516517.6994   24516518.0784
     -2986.0784
  -3592349.64349  -2792099.31847  22227404.9574   22227404.5864
       314.8134
  10121628.86049   7875331.05047  22234104.9184   22234103.6994
     -3475.5314
   -543171.78047   -419195.06243  24526817.1684   24526817.2774
      -639.1254
  -2506789.33548  -1950096.24146  23645650.4734   23645648.3324
      -527.4374
  18940562.72647  14727570.93143  25221051.2774   25221052.9024
     -4919.2664
   1796414.01549   1397195.55947  21887861.8484   21887860.4144
      -881.2814
  -4185888.17348  -3262097.34145  24070132.2154   24070131.1174
      1575.4844
 04  9 10 22 12 30.0040000  0  8G 3G 8G13G10G19G23G27G28
   7054636.15248   5492541.03543  24525051.9184   24525053.3594
     -2994.9694
  -3597048.17849  -2795760.51147  22226510.8794   22226510.5744
       310.8444
  10173812.76649   7915993.82047  22244035.0354   22244034.4774
     -3483.1254
   -533516.30747   -411671.32143  24528655.0744   24528654.8634
      -649.0784
  -2498813.84548  -1943881.55346  23647167.6524   23647166.0314
      -536.7034
  19014365.83747  14785079.75843  25235096.0984   25235097.0744
     -4921.9844
   1809654.24349   1407512.62547  21890381.5194   21890380.5664
      -884.9374
  -4209492.54448  -3280490.32045  24065640.1994   24065639.7424
      1570.9534
 04  9 10 22 12 45.0040000  0  8G 3G 8G13G10G19G23G27G28
   7099616.48648   5527590.63544  24533611.4574   24533612.5664
     -3002.7504
  -3601693.89149  -2799380.53347  22225626.6604   22225626.1524
       308.2034
  10226105.66149   7956741.51347  22253986.1294   22253985.3404
     -3489.6254
   -523718.30147   -404036.48843  24530519.2854   24530519.2694
      -657.7974
  -2490704.99348  -1937562.95146  23648711.0274   23648708.8944
      -544.8124
  19088206.23047  14842617.64743  25249148.1294   25249148.2934
     -4923.6564
   1822942.47749   1417867.09047  21892909.6844   21892908.5124
      -887.3284
  -4233034.65548  -3298834.76245  24061160.1524   24061159.9654
      1567.5944
 04  9 10 22 13  0.0040000  0  8G 3G 8G13G10G19G23G27G28
   7144728.90648   5562743.15543  24542196.3324   24542197.1214
     -3011.3914
  -3606282.66749  -2802956.19248  22224753.5984   22224752.7344
       304.4384
  10278511.02249   7997576.84947  22263958.9574   22263957.4064
     -3497.0474
   -513774.11847   -396287.76943  24532411.4184   24532411.1294
      -667.3754
  -2482458.94948  -1931137.44446  23650280.1994   23650278.1604
      -553.8444
  19162087.18146  14900187.11743  25263206.2544   25263207.7894
     -4926.4064
   1836282.38149   1428261.82547  21895448.5824   21895447.7304
      -890.6094
  -4256510.69748  -3317127.73845  24056692.9964   24056692.6054
      1563.3444
 04  9 10 22 13 15.0040000  0  8G 3G 8G13G10G19G23G27G28
   7189963.45348   5597990.84043  24550803.9414   24550805.2304
     -3019.7344
  -3610824.53549  -2806495.28647  22223889.1524   22223888.6914
       301.2194
  10331018.95949   8038492.11647  22273950.5984   22273949.3444
     -3504.0164
   -503693.36347   -388432.62543  24534329.4344   24534329.6444
      -676.6254
  -2474085.27948  -1924612.48246  23651873.8014   23651871.7304
      -562.4844
  19235998.79147  14957780.47843  25277271.6604   25277272.0944
     -4928.4844
   1849664.27749   1438689.28747  21897995.0904   21897994.1874
      -893.6254
  -4279930.27748  -3335376.70245  24052236.3874   24052235.6604
      1559.3444
 04  9 10 22 13 30.0040000  0  7G 3G 8G13G10G19G27G28
   7235323.58348   5633336.40343  24559436.0594   24559437.0274
     -3028.2814
  -3615315.54949  -2809994.77348  22223034.7624   22223033.8984
       297.5944
  10383632.84449   8079489.93347  22283962.7234   22283961.3874
     -3511.2664
   -493472.46847   -380468.29143  24536274.6374   24536274.4414
      -686.2194
  -2465580.30148  -1917985.21246  23653491.9654   23653490.3914
      -571.4844
   1863091.76049   1449152.26347  21900550.3164   21900549.4184
      -896.8284
  -4303289.78648  -3353578.87745  24047790.9264   24047790.6174
      1555.1414
 04  9 10 22 13 45.0040000  0  7G 3G 8G13G10G19G27G28
   7280811.33048   5668781.37643  24568092.4414   24568092.9844
     -3036.7814
  -3619753.70449  -2813453.06947  22222190.1684   22222189.5004
       294.1414
  10436354.78549   8120571.94347  22293995.7234   22293994.2384
     -3518.4534
   -483109.12947   -372392.95343  24538246.3404   24538246.5084
      -695.5944
  -2456941.67048  -1911253.79546  23655136.1604   23655133.9494
      -580.2974
   1876567.20049   1459652.60148  21903114.7304   21903113.1724
      -899.9694
  -4326586.76648  -3371732.32345  24043357.6844   24043357.0664
      1551.0474
 04  9 10 22 14  0.0040000  0  7G 3G 8G13G10G19G27G28
   7326428.99148   5704327.58543  24576772.7694   24576773.4694
     -3045.4374
  -3624136.53049  -2816868.24047  22221355.8634   22221355.6174
       290.4384
  10489187.18249   8161740.03447  22304049.0664   22304048.0274
     -3525.7344
   -472600.81247   -364204.61743  24540246.3324   24540246.2274
      -705.2344
  -2448166.55048  -1904416.01846  23656805.6524   23656803.8054
      -589.5004
   1890093.11549   1470192.27947  21905688.6444   21905687.5084
      -903.3124
  -4349818.53848  -3389834.94845  24038936.8874   24038936.8874
      1546.7504
 04  9 10 22 14 15.0040000  0  7G 3G 8G13G10G19G27G28
   7372172.32148   5739971.72343  24585477.4654   24585478.0944
     -3053.7814
  -3628467.66649  -2820243.14647  22220531.8554   22220530.9374
       286.9844
  10542125.79749   8202990.89647  22314122.7464   22314121.5274
     -3532.7814
   -461951.53947   -355906.48743  24542272.1844   24542272.1914
      -714.5784
  -2439259.02748  -1897475.06446  23658500.6764   23658498.6804
      -598.2814
   1903665.62049   1480768.25947  21908271.0904   21908270.3524
      -906.4374
  -4372989.03948  -3407889.83745  24034527.7384   24034526.9374
      1542.6254
 04  9 10 22 14 30.0040000  0  7G 3G 8G13G10G19G27G28
   7418045.52948   5775717.07143  24594207.2304   24594208.1644
     -3062.2344
  -3632742.78549  -2823574.40147  22219718.4184   22219717.5004
       283.3914
  10595175.12749   8244328.01347  22324217.8404   22324216.7854
     -3540.0314
   -451156.72447   -347494.93743  24544326.6444   24544326.8364
      -724.2194
  -2430214.44548  -1890427.32946  23660222.0194   23660220.0004
      -607.2504
   1917289.12349   1491383.97847  21910863.7774   21910862.8324
      -909.6564
  -4396093.52648  -3425893.29145  24030131.1054   24030130.4964
      1538.3594
 04  9 10 22 14 45.0040000  0  7G 3G 8G13G10G19G27G28
   7464046.51248   5811561.97743  24602960.4734   24602961.4184
     -3071.0944
  -3636963.39249  -2826863.17247  22218915.0984   22218914.5904
       279.3134
  10648332.92649   8285749.66147  22334333.4184   22334332.3484
     -3547.6874
   -440218.36248   -338971.51943  24546408.5124   24546408.2624
      -734.2664
  -2421034.47948  -1883274.09046  23661968.9414   23661966.4734
      -616.7194
   1930961.88749   1502038.08747  21913465.9104   21913464.9064
      -913.3284
  -4419133.84248  -3443846.73945  24025746.5664   24025746.1414
      1533.6094
 04  9 10 22 15  0.0040000  0  7G 3G 8G13G10G19G27G28
   7510172.10748   5847503.97943  24611737.9734   24611738.8204
     -3079.2504
  -3641132.59649  -2830111.89947  22218122.0434   22218121.2774
       276.1094
  10701596.15749   8327253.46047  22344469.0904   22344467.8014
     -3554.4844
   -429139.52247   -330338.65043  24548516.4414   24548516.7194
      -743.3284
  -2411721.97348  -1876017.57546  23663741.0044   23663738.6804
      -625.2974
   1944680.89249   1512728.21347  21916076.3634   21916075.2694
      -916.2504
  -4442112.90548  -3461752.45845  24021373.7544   24021372.8164
      1529.7974
 04  9 10 22 15 15.0040000  0  7G 3G 8G13G10G19G27G28
   7556427.85348   5883547.41043  24620540.0124   24620541.3634
     -3087.5474
  -3645244.66249  -2833316.09647  22217339.4184   22217338.3634
       272.7974
  10754970.35049   8368843.73047  22354625.9024   22354624.3244
     -3561.4844
   -417914.17147   -321591.62143  24550652.3634   24550652.6914
      -752.8284
  -2402270.97948  -1868653.14946  23665539.1764   23665537.5044
      -634.1724
   1958451.90149   1523458.87647  21918696.6994   21918695.8444
      -919.2664
  -4465024.75848  -3479605.81444  24017013.8634   24017013.1564
      1525.7344
 04  9 10 22 15 30.0040000  0  7G 3G 8G13G10G19G27G28
   7602808.55848   5919688.18343  24629366.0664   24629367.0824
     -3096.4224
  -3649304.35549  -2836479.48547  22216566.9184   22216565.9614
       268.6884
  10808450.41749   8410516.47947  22364802.3944   22364801.4454
     -3569.1254
   -406547.40647   -312734.40843  24552816.0514   24552815.9184
      -762.7664
  -2392686.40048  -1861184.63146  23667363.1214   23667361.1094
      -643.6414
   1972270.14749   1534226.33347  21921326.3324   21921324.6724
      -923.0164
  -4487874.28748  -3497410.59245  24012665.5664   24012664.5554
      1520.9694
 04  9 10 22 15 45.0040000  0  7G 3G 8G13G10G19G27G28
   7649314.16848   5955926.31243  24638216.2624   24638216.8404
     -3104.8124
  -3653311.78949  -2839602.14448  22215804.0744   22215803.3834
       265.1724
  10862036.37349   8452271.76947  22374999.9344   22374998.9574
     -3576.2194
   -395038.92447   -303766.74243  24555006.3714   24555005.8634
      -772.2974
  -2382967.88048  -1853611.73446  23669212.5744   23669210.1954
      -652.7034
   1986135.82549   1545030.76647  21923964.6524   21923963.9614
      -926.2814
  -4510661.12548  -3515166.53545  24008329.4574   24008328.8484
      1516.7034
 04  9 10 22 16  0.0040000  0  7G 3G 8G13G10G19G27G28
   7695949.04348   5992265.15743  24647089.7934   24647091.2424
     -3113.5164
  -3657262.22649  -2842680.40347  22215052.4184   22215051.2464
       261.2974
  10915732.52949   8494112.91247  22385218.0124   22385216.8124
     -3583.5624
   -383384.23647   -294685.15643  24557223.1524   24557223.8594
      -782.0314
  -2373110.84648  -1845930.91046  23671088.1444   23671086.7664
      -661.9064
   2000053.41449   1555875.64347  21926613.3164   21926611.8714
      -929.7814
  -4533380.69748  -3532870.05445  24004006.0904   24004005.1214
      1512.2344
 04  9 10 22 16 15.0040000  0  7G 3G 8G13G10G19G27G28
   7742706.55148   6028699.56643  24655988.0514   24655988.8204
     -3121.5784
  -3661161.68349  -2845718.92747  22214310.5434   22214309.4804
       257.9534
  10969532.58549   8536035.01747  22395455.8634   22395455.3094
     -3590.4694
   -371589.61447   -285494.54243  24559468.2154   24559468.4574
      -791.3124
  -2363121.44148  -1838146.94446  23672988.6054   23672986.9694
      -670.7034
   2014016.73349   1566756.16347  21929270.4734   21929269.2384
      -932.7504
  -4556039.11948  -3550525.91145  23999694.0514   23999693.4144
      1508.2344
 04  9 10 22 16 30.0040000  0  7G 3G 8G13G10G19G27G28
   7789590.99148   6065232.89443  24664909.7544   24664911.1874
     -3129.8124
  -3665005.67649  -2848714.24147  22213579.0824   22213578.2854
       254.4064
  11023440.74849   8578041.35547  22405714.2934   22405713.4144
     -3597.4534
   -359650.61747   -276191.40643  24561740.3404   24561739.9654
      -800.8124
  -2352995.03548  -1830256.21546  23674916.3014   23674913.9614
      -679.6414
   2028030.28049   1577675.80947  21931937.1604   21931935.6094
      -935.8444
  -4578631.73348  -3568130.51545  23995395.1604   23995393.9804
      1504.0164
 04  9 10 22 16 45.0040000  0  7G 3G 8G13G10G19G27G28
   7836601.49248   6101864.44343  24673855.3794   24673857.0044
     -3137.8124
  -3668795.00849  -2851666.95547  22212857.6294   22212856.8094
       251.2034
  11077456.14649   8620131.26547  22415992.7934   22415992.0474
     -3604.1874
   -347567.96647   -266776.34043  24564039.1994   24564039.5944
      -809.8914
  -2342732.16948  -1822259.15346  23676868.8944   23676867.0944
      -688.3284
   2042093.55149   1588634.21347  21934612.9884   21934611.5004
      -938.7814
  -4601159.15948  -3585684.30445  23991108.0044   23991107.0474
      1500.0784
 04  9 10 22 17  0.0040000  0  7G 3G 8G13G10G19G27G28
   7883733.13048   6138590.39743  24682824.6684   24682826.0664
     -3146.2814
  -3672534.25949  -2854580.65147  22212146.2384   22212145.1914
       247.4694
  11131574.09549   8662301.08947  22426291.2624   22426290.5744
     -3611.4374
   -335346.11747   -257252.82943  24566364.5434   24566365.3874
      -819.5624
  -2332337.36348  -1814159.29446  23678847.2154   23678845.0474
      -697.5474
   2056201.90749   1599627.72947  21937297.9264   21937296.6524
      -942.2344
  -4623625.77348  -3603190.72145  23986832.5194   23986831.6024
      1495.5784
 04  9 10 22 17 15.0040000  0  7G 3G 8G13G10G19G27G28
   7930989.56048   6175413.54743  24691817.1374   24691818.5124
     -3154.3754
  -3676219.17049  -2857452.00248  22211444.8874   22211444.1874
       244.1094
  11185798.04549   8704553.48847  22436609.6684   22436608.6134
     -3618.2664
   -322981.34048   -247617.93243  24568717.9964   24568718.2114
      -828.8444
  -2321806.63348  -1805953.51946  23680851.0044   23680848.8594
      -706.2664
   2070359.14149   1610659.34847  21939991.9184   21939990.8284
      -945.2034
  -4646027.75449  -3620646.77445  23982569.7934   23982569.2974
      1491.5314
 04  9 10 22 17 30.0040000  0  7G 3G 8G13G10G19G27G28
   7978368.32348   6212332.04943  24700833.0824   24700834.1524
     -3162.9694
  -3679852.22749  -2860282.95747  22210753.7774   22210753.2894
       240.2034
  11240125.72749   8746886.73547  22446948.0044   22446946.9844
     -3625.5944
   -310475.81947   -237873.37043  24571097.2464   24571097.9924
      -838.7034
  -2311142.08547  -1797643.46146  23682880.2544   23682878.6444
      -715.7194
   2084563.09149   1621727.35247  21942695.0044   21942693.4224
      -948.7814
  -4668367.12249  -3638054.02345  23978318.7304   23978318.0664
      1486.8754
 04  9 10 22 17 45.0040000  0  7G 3G 8G13G10G19G27G28
   8025868.56048   6249345.21743  24709871.8554   24709872.9804
     -3170.7194
  -3683433.88449  -2863073.83947  22210072.5354   22210071.7274
       237.0474
  11294556.42049   8789300.24247  22457305.8244   22457304.6874
     -3632.1564
   -297830.16148   -228019.60243  24573503.3164   24573504.2114
      -847.6724
  -2300344.21148  -1789229.50746  23684935.4104   23684933.1994
      -724.2814
   2098813.34949   1632831.46447  21945406.8484   21945405.0664
      -951.5624
  -4690644.44148  -3655412.92045  23974079.3014   23974078.7424
      1483.0784
 04  9 10 22 18  0.0040000  0  7G 3G 8G13G10G19G27G28
   8073496.28948   6286457.70543  24718935.0594   24718935.9264
     -3179.4374
  -3686958.02949  -2865819.93047  22209401.5354   22209400.8444
       232.9534
  11349096.23049   8831798.78347  22467684.1294   22467683.1914
     -3639.6414
   -285038.18047   -218051.81243  24575937.9804   24575938.4534
      -857.6874
  -2289406.59248  -1780706.67346  23687016.8794   23687014.5624
      -733.7974
   2113116.05149   1643976.42647  21948128.3484   21948126.9734
      -955.2814
  -4712853.21749  -3672718.41745  23969852.8944   23969852.2624
      1478.2664
 04  9 10 22 18 15.0040000  0  7G 3G 8G13G10G19G27G28
   8121245.93548   6323665.20343  24728021.6214   24728022.7624
     -3187.4374
  -3690429.77749  -2868525.16947  22208740.6524   22208739.7664
       229.6254
  11403739.52849   8874377.95347  22478082.5744   22478081.1604
     -3646.3444
   -272105.23047   -207974.18243  24578398.9734   24578399.2344
      -866.9064
  -2278334.46448  -1772079.02146  23689123.4964   23689121.2894
      -742.6564
   2127465.90349   1655158.13247  21950858.9654   21950857.3874
      -958.2664
  -4734998.77049  -3689974.65345  23965638.7544   23965638.8164
      1474.2344
 04  9 10 22 18 30.0040000  0  7G 3G 8G13G10G19G27G28
   8169117.94048   6360968.07143  24737131.5744   24737132.2814
     -3195.5474
  -3693848.26649  -2871188.91747  22208090.5824   22208089.8014
       226.1254
  11458486.75649   8917038.11547  22488500.6524   22488499.8244
     -3653.3284
   -259030.64647   -197786.20043  24580887.0044   24580887.3554
      -876.3594
  -2267127.03448  -1763345.95146  23691256.5594   23691254.3484
      -751.7344
   2141863.80549   1666377.28647  21953599.0124   21953598.1644
      -961.4694
  -4757080.30348  -3707180.99745  23961436.9574   23961436.8754
      1469.9534
 04  9 10 22 18 45.0040000  0  7G 3G 8G13G10G19G27G28
   8217111.70548   6398365.77143  24746264.3634   24746265.7774
     -3203.8444
  -3697213.91149  -2873811.50247  22207449.5044   22207448.4844
       222.3914
  11513337.48949   8959778.92247  22498938.1604   22498937.0664
     -3660.4224
   -245814.80547   -187488.14843  24583401.9574   24583402.4694
      -885.9534
  -2255784.66648  -1754507.72446  23693414.8794   23693412.5664
      -760.8124
   2156309.33749   1677633.54447  21956347.6994   21956346.6174
      -964.8594
  -4779098.06448  -3724337.66145  23957247.1994   23957246.6954
      1465.5944
 04  9 10 22 19  0.0040000  0  7G 3G 8G13G10G19G27G28
   8265232.13748   6435862.19743  24755421.6764   24755422.7974
     -3212.4844
  -3700521.50449  -2876388.82747  22206820.4804   22206820.0984
       218.3754
  11568296.65949   9002604.23447  22509396.8324   22509395.8714
     -3667.7504
   -232452.58247   -177076.01543  24585944.3794   24585945.1524
      -895.8754
  -2244302.02648  -1745560.20646  23695599.7464   23695597.3164
      -770.3754
   2170807.62549   1688930.91547  21959106.2934   21959105.5944
      -968.5474
  -4801046.73648  -3741440.46845  23953070.8164   23953069.3914
      1460.7664
 04  9 10 22 19 15.0040000  0  7G 3G 8G13G10G19G27G28
   8313479.22748   6473457.31743  24764603.1054   24764603.5594
     -3220.7344
  -3703770.65049  -2878920.62048  22206202.0354   22206201.5594
       214.5784
  11623364.31149   9045514.07947  22519875.8484   22519874.7934
     -3674.8914
   -218943.73047   -166549.62443  24588514.9414   24588515.4574
      -905.5784
  -2232678.71848  -1736503.07546  23697811.6134   23697809.1684
      -779.7034
   2185359.01649   1700269.66147  21961875.7694   21961874.4414
      -971.9224
  -4822926.04948  -3758489.24545  23948906.8794   23948906.0744
      1456.2034
 04  9 10 22 19 30.0040000  0  7G 3G 8G13G10G19G27G28
   8361848.07348   6511147.32043  24773806.4804   24773808.0944
     -3228.8914
  -3706966.17349  -2881410.63647  22205593.9654   22205593.4494
       211.0164
  11678535.55649   9088504.63647  22530374.4494   22530373.3834
     -3681.7504
   -205292.71747   -155912.46843  24591112.7464   24591112.9574
      -915.0004
  -2220919.27148  -1727339.83646  23700049.3794   23700047.3164
      -788.7504
   2199959.01349   1711646.29247  21964654.1524   21964652.8054
      -975.1724
  -4844740.45048  -3775487.42845  23944755.6844   23944754.9694
      1451.9064
 04  9 10 22 19 45.0040000  0  7G 3G 8G13G10G19G27G28
   8410335.29048   6548929.55943  24783033.4884   24783034.6024
     -3236.4694
  -3710111.07349  -2883861.19248  22204995.4414   22204995.0594
       207.9534
  11733807.17149   9131573.41147  22540892.5514   22540891.3754
     -3688.1874
   -191502.80646   -145167.08043  24593736.5664   24593737.3324
      -923.9844
  -2209026.77849  -1718072.95745  23702312.1684   23702309.7344
      -797.2814
   2214604.41949   1723058.29047  21967440.9574   21967439.7544
      -977.9534
  -4866492.92548  -3792437.36745  23940616.6994   23940615.6294
      1447.9844
 04  9 10 22 20  0.0040000  0  7G 3G 8G13G10G19G27G28
   8458948.50448   6586809.96543  24792284.5354   24792285.1524
     -3245.0314
  -3713197.34849  -2886266.07747  22204408.1214   22204407.4734
       203.8754
  11789186.78349   9174726.32847  22551430.8244   22551430.0274
     -3695.5624
   -177566.25646   -134307.44943  24596388.8634   24596389.3554
      -933.9844
  -2196993.31148  -1708696.20346  23704602.1134   23704599.9574
      -806.8914
   2229303.10149   1734511.81047  21970237.8404   21970236.9144
      -981.6874
  -4888175.56749  -3809332.88945  23936490.1054   23936489.5664
      1443.1724
 04  9 10 22 20 15.0040000  0  7G 3G 8G13G10G19G27G28
   8507686.72148   6624787.78843  24801559.2234   24801560.0044
     -3253.9224
  -3716225.85449  -2888625.95248  22203831.8874   22203830.9304
       199.4224
  11844673.49049   9217962.70647  22561989.9804   22561988.3634
     -3703.2194
   -163483.87447   -123334.16243  24599068.5984   24599069.1954
      -944.1874
  -2184819.59748  -1699210.19246  23706919.0194   23706916.4694
      -816.8284
   2244054.39549   1746006.32347  21973045.2234   21973043.6564
      -985.7034
  -4909789.02148  -3826174.48945  23932377.5274   23932376.3284
      1438.0474
 04  9 10 22 20 30.0040000  0  7G 3G 8G13G10G19G27G28
   8556546.02248   6662859.97643  24810856.3794   24810857.7464
     -3261.0784
  -3719200.38849  -2890943.74047  22203265.5664   22203264.9144
       196.7504
  11900263.31549   9261279.45047  22572568.1524   22572567.2234
     -3709.2194
   -149259.39147   -112250.12343  24601775.4024   24601776.3364
      -952.8124
  -2172509.07448  -1689617.54946  23709261.4964   23709258.9454
      -825.0314
   2258854.52749   1757538.91147  21975861.1764   21975860.4024
      -988.0474
  -4931336.97248  -3842965.05845  23928276.3634   23928276.2384
      1434.5944
 04  9 10 22 20 45.0040000  0  7G 3G 8G13G10G19G27G28
   8605525.11548   6701025.48543  24820176.6214   24820178.1134
     -3269.1094
  -3722121.31149  -2893219.78247  22202710.1524   22202709.5164
       193.0634
  11955955.15149   9304675.66147  22583165.9024   22583164.6054
     -3716.0784
   -134893.63947   -101056.06043  24604509.1134   24604510.1214
      -962.2664
  -2160062.62348  -1679918.99946  23711629.8634   23711627.5004
      -834.1874
   2273702.76249   1769108.95747  21978687.0904   21978685.9804
      -991.3754
  -4952820.10849  -3859705.12945  23924189.0984   23924187.9064
      1430.1414
 04  9 10 22 21  0.0040000  0  7G 3G 8G13G10G19G27G28
   8654628.68348   6739287.98443  24829520.6444   24829522.8014
     -3277.4064
  -3724983.87849  -2895450.34547  22202165.1134   22202164.4774
       189.1564
  12011753.88049   9348155.17247  22593783.9884   22593782.7544
     -3723.2504
   -120381.79947    -89748.11243  24607270.8794   24607270.8984
      -972.1254
  -2147475.19048  -1670110.60846  23714025.1214   23714022.7814
      -843.5944
   2288604.09549   1780720.38047  21981522.6524   21981521.5514
      -994.9694
  -4974233.35148  -3876390.73145  23920113.6134   23920113.0164
      1425.4224
 04  9 10 22 21 15.0040000  0  7G 3G 8G13G10G19G27G28
   8703850.96648   6777642.99643  24838887.6524   24838889.9104
     -3285.8914
  -3727793.65449  -2897639.76947  22201630.3944   22201630.0194
       185.1254
  12067653.69349   9391713.45247  22604421.3554   22604420.4264
     -3730.4534
   -105729.38047    -78330.63643  24610059.6524   24610059.7114
      -981.9374
  -2134752.26748  -1660196.62746  23716445.6524   23716444.1844
      -853.1724
   2303553.00749   1792368.88748  21984367.4884   21984366.3484
      -998.5944
  -4995582.25449  -3893026.19845  23916051.2304   23916050.4224
      1420.6724
 04  9 10 22 21 30.0040000  0  7G 3G 8G13G10G19G27G28
   8753196.32648   6816093.91043  24848277.6684   24848278.8874
     -3293.4844
  -3730545.83249  -2899784.31748  22201106.8484   22201106.2234
       181.7814
  12123659.09949   9435354.00947  22615079.1294   22615078.1054
     -3736.9844
    -90931.67948    -66799.96443  24612875.1524   24612875.2584
      -991.1254
  -2121889.02948  -1650173.31246  23718893.9574   23718891.4144
      -862.0164
   2318554.27549   1804058.19147  21987222.1374   21987221.1684
     -1001.5474
  -5016861.94249  -3909607.74345  23912001.6294   23912000.9024
      1416.5634
 04  9 10 22 21 45.0040000  0  7G 3G 8G13G10G19G27G28
   8802661.17048   6854637.93043  24857690.3944   24857691.6644
     -3301.5164
  -3733243.63549  -2901886.48248  22200593.3014   22200592.4024
       178.1724
  12179766.36349   9479073.94247  22625755.9574   22625754.6334
     -3743.7194
    -75992.22548    -55158.84743  24615718.7694   24615718.3284
     -1000.5944
  -2108888.76748  -1640043.21846  23721367.7234   23721365.4734
      -871.1254
   2333604.48349   1815785.63047  21990085.8634   21990084.8754
     -1004.8444
  -5038075.77348  -3926137.95945  23907964.9884   23907964.3834
      1412.2344
 04  9 10 22 22  0.0040000  0  7G 3G 8G13G10G19G27G28
   8852247.33848   6893276.49243  24867126.5904   24867127.4104
     -3310.3754
  -3735885.12549  -2903944.78448  22200090.8554   22200090.3014
       173.6724
  12235977.56649   9522874.86147  22636452.8094   22636451.6564
     -3751.3754
    -60908.90247    -43405.62843  24618588.3324   24618588.5624
     -1010.8914
  -2095749.33648  -1629804.70046  23723868.0434   23723866.3984
      -881.0944
   2348705.76249   1827552.85947  21992959.4184   21992958.5984
     -1009.0004
  -5059221.49249  -3942615.11545  23903941.0194   23903940.0864
      1406.9064
 04  9 10 22 22 15.0040000  0  7G 3G 8G13G10G19G27G28
   8901958.87148   6932012.74843  24876586.5194   24876587.5004
     -3318.1564
  -3738465.95849  -2905955.80747  22199599.4184   22199598.9374
       170.2034
  12292296.66849   9566759.86447  22647169.6604   22647168.8404
     -3758.0944
    -45677.56748    -31537.00343  24621487.1684   24621486.7664
     -1020.1724
  -2082466.37849  -1619454.32046  23726395.9024   23726393.7934
      -890.1874
   2363862.49149   1839363.30647  21995843.5744   21995842.4924
     -1012.1874
  -5080294.67349  -3959035.73245  23899931.0124   23899930.2694
      1402.6254
 04  9 10 22 22 30.0040000  0  7G 3G 8G13G10G19G27G28
   8951792.34948   6970844.01243  24886069.3164   24886070.6994
     -3326.2344
  -3740989.18649  -2907921.95848  22199119.1524   22199118.7464
       166.2814
  12348720.34949   9610726.34547  22657907.0824   22657905.9734
     -3765.0624
    -30301.40848    -19555.60843  24624413.5514   24624413.1214
     -1029.9064
  -2069043.01748  -1608994.54946  23728950.0514   23728948.5944
      -899.5784
   2379071.43849   1851214.42947  21998737.7624   21998736.6054
     -1015.6414
  -5101298.49349  -3975402.31145  23895934.1214   23895933.4574
      1397.9534
 04  9 10 22 22 45.0040000  0  7G 3G 8G13G10G19G27G28
   9001744.64548   7009767.87343  24895575.0044   24895575.9104
     -3334.2034
  -3743457.50549  -2909845.30648  22198649.4884   22198649.2234
       162.6254
  12405245.66749   9654772.04047  22668663.4574   22668662.3014
     -3771.8444
    -14783.19748     -7463.48143  24627365.8554   24627365.9144
     -1039.3914
  -2055481.96548  -1598427.47646  23731530.5664   23731529.0394
      -908.7034
   2394329.91749   1863104.15547  22001641.3874   22001640.9574
     -1019.0164
  -5122235.49149  -3991716.81445  23891949.8484   23891948.5704
      1393.4694
 04  9 10 22 23  0.0040000  0  7G 3G 8G13G10G19G27G28
   9051814.79548   7048783.55643  24905102.9964   24905104.1374
     -3341.8284
  -3745871.69649  -2911726.48548  22198190.3634   22198189.8714
       159.3134
  12461871.65349   9698896.16047  22679438.8324   22679437.5394
     -3778.2974
       876.24648      4738.68843  24630345.6524   24630345.9414
     -1048.5004
  -2041783.79748  -1587753.56546  23734137.7234   23734135.8324
      -917.7034
   2409637.27949   1875031.96447  22004554.3094   22004553.1294
     -1022.0004
  -5143106.40049  -4007979.84145  23887977.9494   23887977.1844
      1389.3284
 04  9 10 22 23 15.0040000  0  7G 3G 8G13G10G19G27G28
   9102005.17248   7087892.93643  24914654.0744   24914655.7934
     -3350.1874
  -3748229.22749  -2913563.52348  22197741.6994   22197741.3404
       155.2034
  12518600.79349   9743100.66947  22690234.3014   22690233.3524
     -3785.5474
     16679.50048     17052.90343  24633352.7154   24633353.4304
     -1058.4694
  -2027945.87249  -1576970.75046  23736770.7234   23736768.3794
      -927.2974
   2424996.08749   1886999.87647  22007477.1054   22007475.8484
     -1025.7344
  -5163908.47649  -4024189.20845  23884019.3244   23884018.5004
      1384.4384
 04  9 10 22 23 30.0040000  0  7G 3G 8G13G10G19G27G28
   9152316.22748   7127096.33243  24924228.3634   24924228.9144
     -3357.9534
  -3750529.06249  -2915355.58648  22197304.0744   22197303.7464
       151.4844
  12575433.52249   9787385.89447  22701048.9184   22701047.6804
     -3792.2814
     32627.26348     29479.73743  24636387.5354   24636388.1024
     -1067.8754
  -2013967.32948  -1566078.36946  23739431.0124   23739428.6954
      -936.5474
   2440407.18149   1899008.51247  22010409.7464   22010408.8404
     -1029.1094
  -5184640.90949  -4040344.30545  23880074.5664   23880073.7814
      1379.8754
 04  9 10 22 23 45.0040000  0  7G 3G 8G13G10G19G27G28
   9202748.50048   7166394.17143  24933824.9804   24933826.0194
     -3366.0624
  -3752770.33749  -2917102.03348  22196877.5354   22196876.3944
       147.6254
  12632370.51049   9831752.35347  22711883.4494   22711882.4804
     -3799.1094
     48720.41848     42019.84343  24639450.2854   24639450.7694
     -1077.5474
  -1999847.22849  -1555075.68046  23742117.5594   23742115.3984
      -945.8594
   2455871.48249   1911058.61247  22013352.5354   22013351.4694
     -1032.5474
  -5205302.70849  -4056444.37445  23876142.2304   23876141.7234
      1375.2814
 04  9 10 22 24  0.0040000  0  7G 3G 8G13G10G19G27G28
   9253297.24248   7205782.81643  24943443.6444   24943445.0904
     -3373.5624
  -3754957.56449  -2918806.35047  22196461.3484   22196460.9804
       144.2664
  12689407.09549   9876196.43447  22722737.5514   22722736.9104
     -3805.5004
     64954.30946     54669.64343  24642539.1134   24642539.2694
     -1086.6564
  -1985589.98149  -1543966.11846  23744830.6054   23744828.1954
      -954.8284
   2471384.61949   1923146.78547  22016304.6214   22016303.2424
     -1035.5784
  -5225898.24049  -4072492.80045  23872223.1604   23872222.3634
      1371.1094
 04  9 10 22 24 15.0040000  0  7G 3G 8G13G10G19G27G28
   9303968.22948   7245266.68343  24953086.3404   24953087.5194
     -3381.6874
  -3757084.42548  -2920463.63248  22196056.7544   22196055.9414
       140.3134
  12746549.07348   9920722.63647  22733611.5274   22733609.8874
     -3812.5314
     81335.02046     67433.82443  24645656.2234   24645657.3524
     -1096.4064
  -1971189.46748  -1532744.92446  23747570.7234   23747568.7814
      -964.2974
   2486952.63249   1935277.70347  22019267.2774   22019266.0744
     -1039.2344
  -5246421.38049  -4088484.80945  23868317.6294   23868317.2774
      1366.3284
 04  9 10 22 24 30.0040000  0  7G 3G 8G13G10G19G27G28
   9354756.82948   7284842.19343  24962750.8874   24962752.2894
     -3389.6874
  -3759155.33648  -2922077.32648  22195662.4024   22195661.3364
       136.2814
  12803791.81549   9965327.35747  22744504.0124   22744503.0474
     -3819.4694
     97858.04147     80308.93243  24648800.3794   24648801.1134
     -1106.1874
  -1956650.10148  -1521415.53946  23750337.7074   23750335.2234
      -973.8594
   2502571.06949   1947447.92347  22022239.2154   22022237.7584
     -1042.7974
  -5266876.48949  -4104423.81545  23864425.1604   23864424.6644
      1361.5634
 04  9 10 22 24 45.0040000  0  7G 3G 8G13G10G19G27G28
   9405664.51648   7324510.49443  24972438.6294   24972439.2734
     -3398.0004
  -3761168.58149  -2923646.07447  22195279.1134   22195278.5354
       132.0944
  12861136.94449  10010011.85447  22755416.7624   22755415.9694
     -3826.6724
    114525.20347     93296.31043  24651972.4104   24651972.8484
     -1116.1724
  -1941970.03848  -1509976.51446  23753131.3634   23753129.1444
      -983.5474
   2518241.82349   1959658.88847  22025221.3404   22025220.2384
     -1046.6724
  -5287261.71349  -4120308.37645  23860545.8944   23860545.2584
      1356.4694
 04  9 10 22 25  0.0040000  0  7G 3G 8G13G10G19G27G28
   9456692.04448   7364272.20343  24982149.1604   24982149.7304
     -3406.0624
  -3763123.07448  -2925169.04847  22194907.3014   22194906.8944
       128.1094
  12918585.31848  10054776.79947  22766348.7774   22766347.8874
     -3833.5784
    131337.27947    106396.65143  24655171.2694   24655171.5514
     -1125.8754
  -1927148.19449  -1498427.00146  23755951.8714   23755949.2034
      -993.1564
   2533965.94849   1971911.46547  22028213.1684   22028212.5164
     -1050.3594
  -5307575.85948  -4136137.54145  23856680.1684   23856679.6094
      1351.6414
 04  9 10 22 25 15.0050000  0  7G 3G 8G13G10G19G27G28
   9507838.55648   7404126.60243  24991881.8684   24991882.9854
     -3412.7664
  -3765022.84649  -2926649.37548  22194545.9784   22194545.3134
       125.4384
  12976136.51549  10099621.86247  22777300.2044   22777299.6774
     -3839.1724
    148291.38748    119607.63143  24658397.4464   24658398.0134
     -1134.2814
  -1912187.48449  -1486769.29546  23758798.8764   23758796.4624
     -1001.2344
   2549740.61249   1984203.40848  22031215.2674   22031214.1424
     -1052.5784
  -5327824.22649  -4151915.44745  23852826.7904   23852826.1654
      1348.2344
 04  9 10 22 25 30.0050000  0  7G 3G 8G13G10G19G27G28
   9559099.95648   7444070.55643  25001636.5634   25001637.4664
     -3421.1724
  -3766864.49849  -2928084.42348  22194195.4464   22194194.9894
       121.0164
  13033785.57449  10144543.20247  22788270.7124   22788269.6534
     -3846.4534
    165388.18047    132929.80843  24661650.6734   24661651.5324
     -1144.4064
  -1897086.81049  -1475002.52746  23761672.3454   23761669.8104
     -1011.2504
   2565566.61649   1996535.37148  22034226.8064   22034225.6224
     -1056.6724
  -5348000.90649  -4167637.50845  23848987.5794   23848987.1034
      1343.0004
 04  9 10 22 25 45.0050000  0  7G 3G 8G13G10G19G27G28
   9610476.02348   7484103.83543  25011412.8924   25011414.2674
     -3429.0314
  -3768651.69449  -2929477.03748  22193855.3214   22193854.8104
       117.1724
  13091532.86849  10189541.07047  22799259.3684   22799258.3134
     -3853.2344
    182625.58747    146361.55243  24664930.6264   24664931.3334
     -1153.9694
  -1881848.34149  -1463128.38546  23764572.2044   23764569.8174
     -1020.6414
   2581441.80349   2008905.63248  22037247.8064   22037246.6424
     -1060.1564
  -5368110.53449  -4183307.33045  23845161.1884   23845159.7354
      1338.2814
 04  9 10 22 26  0.0050000  0  7G 3G 8G13G10G19G27G28
   9661970.50948   7524229.39843  25021212.1344   25021213.4584
     -3436.9224
  -3770380.19249  -2930823.90748  22193526.6424   22193526.1574
       113.2344
  13149382.21749  10234618.47347  22810268.0324   22810266.7354
     -3860.0004
    200007.48148    159905.87043  24668238.4784   24668239.7084
     -1163.5784
  -1866468.02249  -1451143.70246  23767498.7044   23767496.2984
     -1030.0624
   2597370.31849   2021317.47247  22040278.6494   22040277.4854
     -1063.6564
  -5388148.91249  -4198921.59645  23841347.9784   23841346.7204
      1333.4694
 04  9 10 22 26 15.0050000  0  7G 3G 8G13G10G19G27G28
   9713580.84848   7564445.23443  25031033.0634   25031033.9854
     -3444.6724
  -3772052.37449  -2932126.90748  22193208.2434   22193207.7944
       109.5164
  13207330.84849  10279773.22847  22821295.1494   22821294.0484
     -3866.6414
    217531.33148    173560.81143  24671573.3534   24671573.6574
     -1173.0164
  -1850948.36348  -1439050.44246  23770451.8994   23770449.8134
     -1039.3594
   2613349.77149   2033768.99347  22043319.5484   22043318.8174
     -1067.0784
  -5408118.55649  -4214482.33045  23837547.5954   23837546.4074
      1328.9224
 04  9 10 22 26 30.0050000  0  7G 3G 8G13G10G19G27G28
   9765308.47848   7604752.43443  25040876.9854   25040878.1224
     -3452.3594
  -3773666.43949  -2933384.60047  22192901.2594   22192900.8254
       105.7814
  13265380.46549  10325006.67447  22832342.0484   22832340.6264
     -3873.2194
    235198.99748    187327.83243  24674935.7204   24674936.3064
     -1182.6094
  -1835287.28648  -1426846.99346  23773432.0324   23773429.9384
     -1048.7664
   2629382.05149   2046261.68747  22046370.1344   22046369.0674
     -1070.5164
  -5428017.40849  -4229987.90945  23833760.7044   23833760.1384
      1324.3134
 04  9 10 22 26 45.0050000  0  7G 3G 8G13G10G19G27G28
   9817149.11448   7645147.73343  25050740.9074   25050742.9704
     -3459.7814
  -3775226.24149  -2934600.03847  22192604.6344   22192604.0134
       102.2504
  13323526.97849  10370315.61947  22843406.6574   22843405.3844
     -3879.6414
    253006.35947    201203.70143  24678324.3454   24678324.9664
     -1191.7814
  -1819488.81448  -1414536.49646  23776438.3844   23776436.5674
     -1057.8284
   2645463.16448   2058792.41647  22049430.6734   22049429.6454
     -1073.6564
  -5447849.51049  -4245441.44945  23829986.8924   23829986.0404
      1319.9534
 04  9 10 22 27  0.0050000  0  7G 3G 8G13G10G19G27G28
   9869106.19847   7685633.75743  25060628.1264   25060630.1104
     -3467.6094
  -3776728.05049  -2935770.25948  22192318.6184   22192317.8644
        98.3594
  13381773.98049  10415702.87047  22854490.6814   22854489.5484
     -3886.3444
    270957.00748    215191.19843  24681740.5484   24681740.7704
     -1201.3284
  -1803549.21947  -1402116.02346  23779471.7674   23779469.5524
     -1067.2814
   2661596.96448   2071364.20947  22052500.5714   22052499.5484
     -1077.2504
  -5467610.92149  -4260839.93045  23826226.4854   23826225.6454
      1315.1414
 04  9 10 22 27 15.0050000  0  7G 3G 8G13G10G19G27G28
   9921177.36448   7726208.65143  25070538.0244   25070538.6774
     -3475.2344
  -3778173.90949  -2936896.90348  22192043.4154   22192042.5404
        94.4534
  13440118.94749  10461166.47447  22865593.2674   22865592.1454
     -3892.9374
    289048.81048    229288.71643  24685182.7044   24685183.4894
     -1210.9224
  -1787470.55148  -1389587.18146  23782531.2204   23782528.9624
     -1076.6254
   2677781.25348   2083975.34647  22055580.6424   22055579.3064
     -1080.7194
  -5487303.67349  -4276184.90145  23822479.0094   23822478.0444
      1310.5474
 04  9 10 22 27 30.0050000  0  7G 3G 8G13G10G19G27G28
   9973356.20748   7766867.45943  25080467.2204   25080468.0054
     -3481.8594
  -3779569.59549  -2937984.43848  22191777.9384   22191776.8104
        91.7034
  13498555.59849  10506701.50147  22876713.5634   22876712.7084
     -3898.5474
    307275.67648    243491.45943  24688651.6344   24688651.8534
     -1219.2814
  -1771258.84648  -1376954.67946  23785616.8134   23785614.4194
     -1084.8124
   2694009.99049   2096621.13047  22058668.5954   22058667.4624
     -1083.0784
  -5506933.68549  -4291480.98345  23818743.3844   23818742.7514
      1306.9844
 04  9 10 22 27 45.0050000  0  7G 3G 8G13G10G19G27G28
  10025645.08448   7807612.06143  25090417.4854   25090418.3644
     -3489.6564
  -3780912.63349  -2939030.94348  22191522.1574   22191521.4504
        87.6884
  13557086.34849  10552309.86647  22887851.6264   22887850.6424
     -3905.1874
    325640.08648    257801.39543  24692146.6184   24692146.4154
     -1228.9534
  -1754911.41148  -1364216.41046  23788727.2514   23788725.0754
     -1094.4694
   2710285.91048   2109303.67247  22061765.7674   22061764.7824
     -1086.6874
  -5526498.35249  -4306726.13445  23815020.6574   23815019.7314
      1302.0784
 04  9 10 22 28  0.0050000  0  7G 3G 8G13G10G19G27G28
  10078045.99748   7848443.94343  25100388.3764   25100389.6184
     -3497.1254
  -3782200.90649  -2940034.78748  22191276.9074   22191276.3024
        84.1094
  13615713.21549  10597993.11747  22899008.1344   22899007.0134
     -3911.6874
    344144.14747    272220.15643  24695667.1034   24695667.4744
     -1238.2504
  -1738425.94347  -1351370.57046  23791863.7824   23791862.1184
     -1103.6564
   2726611.30348   2122024.75647  22064872.6494   22064871.1384
     -1090.0164
  -5545995.48749  -4321918.66745  23811310.4464   23811309.2594
      1297.5164
 04  9 10 22 28 15.0050000  0  7G 3G 8G13G10G19G27G28
  10130557.55748   7889362.00843  25110381.6184   25110383.0244
     -3504.2974
  -3783435.26449  -2940996.61748  22191041.8994   22191041.3414
        80.6254
  13674434.86949  10643750.23647  22910181.8454   22910181.3294
     -3917.8444
    362786.82148    286746.91543  24699214.8684   24699215.2744
     -1247.3754
  -1721803.42748  -1338417.94746  23795027.2514   23795025.3334
     -1112.6564
   2742985.20348   2134783.63747  22067988.6494   22067987.2944
     -1093.1254
  -5565425.84749  -4337059.17745  23807612.6964   23807611.7594
      1293.2504
 04  9 10 22 28 30.0050000  0  7G 3G 8G13G10G19G27G28
  10183182.02648   7930368.06743  25120395.3764   25120396.3334
     -3511.8124
  -3784613.01749  -2941914.33348  22190818.0014   22190817.1884
        76.9224
  13733253.78149  10689583.12647  22921375.1424   22921373.8134
     -3924.3284
    381570.56648    301383.57743  24702789.4464   24702789.6454
     -1256.7194
  -1705041.28548  -1325356.54146  23798216.7284   23798214.6384
     -1121.8754
   2759410.11449   2147582.27847  22071113.9704   22071112.7084
     -1096.4374
  -5584786.80349  -4352145.61945  23803928.3064   23803927.4194
      1288.6414
 04  9 10 22 28 45.0050000  0  7G 3G 8G13G10G19G27G28
  10235920.67848   7971463.09143  25130431.3764   25130432.4744
     -3520.4374
  -3785732.43049  -2942786.60248  22190605.2744   22190603.8534
        71.9844
  13792171.26849  10735492.82147  22932586.7354   22932585.8254
     -3931.7504
    400496.74248    316131.25243  24706390.5174   24706391.4664
     -1267.2194
  -1688137.91448  -1312185.08246  23801433.6424   23801431.4544
     -1132.2344
   2775887.69149   2160421.94047  22074249.7044   22074248.5914
     -1100.9374
  -5604076.70949  -4367176.69045  23800257.7354   23800256.8454
      1282.8284
 04  9 10 22 29  0.0050000  0  7G 3G 8G13G10G19G27G28
  10288770.72148   8012644.94343  25140488.1654   25140488.9074
     -3526.6564
  -3786796.23949  -2943615.53748  22190402.4784   22190401.7594
        69.4534
  13851184.57149  10781477.20747  22943816.8214   22943815.7084
     -3937.0624
    419562.88648    330987.99843  24710019.3064   24710019.4544
     -1275.3594
  -1671095.79749  -1298905.48946  23804676.8374   23804674.7204
     -1140.4224
   2792415.50849   2173300.76547  22077394.6034   22077393.4624
     -1103.1724
  -5623298.07349  -4382154.32845  23796600.0954   23796598.9504
      1279.5004
 04  9 10 22 29 15.0050000  0  7G 3G 8G13G10G19G27G28
  10341726.90648   8053909.47743  25150565.4154   25150566.6344
     -3534.0004
  -3787809.45049  -2944405.05548  22190209.8684   22190208.4274
        65.7814
  13910288.38049  10827532.10047  22955063.5404   22955062.5324
     -3943.3444
    438763.93448    345949.82843  24713672.9704   24713673.7244
     -1284.5944
  -1653919.83349  -1285521.62046  23807945.1344   23807942.8994
     -1149.5004
   2808988.67649   2186214.92347  22080548.0174   22080547.1964
     -1106.4534
  -5642455.63549  -4397082.27145  23792954.4784   23792953.3174
      1274.9844
 04  9 10 22 29 30.0050000  0  7G 3G 8G13G10G19G27G28
  10394792.13848   8095259.00543  25160663.9074   25160664.3804
     -3541.4064
  -3788768.53249  -2945152.37848  22190027.2984   22190026.7434
        62.0474
  13969485.77449  10873659.91847  22966328.8844   22966327.7864
     -3949.6564
    458102.92148    361019.18443  24717353.1734   24717353.8254
     -1293.9374
  -1636606.71549  -1272030.86746  23811239.8064   23811237.4704
     -1158.8594
   2825610.29349   2199166.83347  22083711.3454   22083710.2314
     -1109.7664
  -5661546.16449  -4411957.98245  23789321.6494   23789320.5404
      1270.4534
 04  9 10 22 29 45.0050000  0  7G 3G 8G13G10G19G27G28
  10447967.69148   8136694.50743  25170782.3534   25170783.3884
     -3548.5004
  -3789671.86249  -2945856.25748  22189855.0324   22189854.2554
        58.6094
  14028777.98349  10919861.61747  22977611.6424   22977610.6264
     -3955.7504
    477581.42048    376197.23643  24721059.5094   24721060.3884
     -1303.0474
  -1619154.94649  -1258432.07746  23814560.5174   23814557.7314
     -1167.9064
   2842282.09149   2212157.85147  22086883.7674   22086882.7124
     -1112.8754
  -5680568.03349  -4426780.18345  23785701.7354   23785700.4544
      1266.0634
 04  9 10 22 30  0.0050000  0  7G 3G 8G13G10G19G27G28
  10501252.12648   8178214.82843  25180922.0794   25180922.8884
     -3555.9064
  -3790520.76749  -2946517.74248  22189693.8134   22189693.0834
        54.8444
  14088163.73749  10966136.21747  22988912.4624   22988911.2674
     -3962.1254
    497198.03448    391482.89943  24724792.8134   24724793.6694
     -1312.3124
  -1601565.69549  -1244726.16046  23817907.4854   23817905.5284
     -1177.1414
   2859002.91749   2225187.07547  22090065.9154   22090064.9784
     -1116.2814
  -5699522.35449  -4441549.76145  23782094.9384   23782093.8254
      1261.4224
 04  9 10 22 30 15.0050000  0  7G 3G 8G13G10G19G27G28
  10554645.09548   8219819.73143  25191082.9384   25191083.1884
     -3563.0004
  -3791315.09049  -2947136.68748  22189542.3534   22189541.7784
        51.2194
  14147642.88949  11012483.58547  23000231.0794   23000230.4114
     -3968.2504
    516952.85448    406876.27043  24728551.2594   24728552.7354
     -1321.5314
  -1583838.84649  -1230913.01946  23821280.3844   23821278.8954
     -1186.2504
   2875772.90549   2238254.59147  22093257.1344   22093256.0564
     -1119.5784
  -5718409.05549  -4456266.64345  23778500.9934   23778499.5874
      1256.9844
 04  9 10 22 30 30.0050000  0  7G 3G 8G13G10G19G27G28
  10608148.79248   8261510.91643  25201264.3064   25201265.0134
     -3570.4844
  -3792052.31549  -2947711.14648  22189402.1884   22189401.6144
        47.3754
  14207217.64649  11058905.45647  23011567.4704   23011566.6344
     -3974.7344
    536848.19748    422379.12743  24732337.4704   24732338.2244
     -1330.9844
  -1565971.83249  -1216990.65346  23824680.8604   23824679.0094
     -1195.6724
   2892594.51949   2251362.34647  22096457.9384   22096457.0404
     -1123.0784
  -5737225.50049  -4470928.75545  23774919.9314   23774919.4074
      1252.1564
 04  9 10 22 30 45.0050000  0  7G 3G 8G13G10G19G27G28
  10661762.06748   8303287.46643  25211466.7354   25211466.8454
     -3578.0624
  -3792733.06949  -2948241.59548  22189272.5174   22189272.2004
        43.2814
  14266886.88149  11105400.93047  23022922.5484   23022921.4744
     -3981.3284
    556883.10048    437990.71943  24736149.9314   24736151.2674
     -1340.5164
  -1547965.54549  -1202959.78346  23828107.3134   23828105.5094
     -1205.2814
   2909466.97249   2264509.71047  22099668.9624   22099667.9544
     -1126.7504
  -5755972.45849  -4485536.76045  23771352.7674   23771351.7394
      1247.2344
 04  9 10 22 31  0.0050000  0  7G 3G 8G13G10G19G27G28
  10715484.29948   8345148.92943  25221689.2434   25221690.6574
     -3585.3914
  -3793357.60849  -2948728.25148  22189154.1264   22189153.1964
        39.4844
  14326649.95249  11151969.53547  23034294.7904   23034294.2204
     -3987.6414
    577057.16848    453710.76143  24739988.6264   24739989.7354
     -1349.8124
  -1529820.26849  -1188820.60946  23831560.3374   23831558.5324
     -1214.5784
   2926389.99149   2277696.48047  22102889.0874   22102888.2634
     -1130.1564
  -5774650.22649  -4500090.84345  23767798.4934   23767797.1184
      1242.6094
 04  9 10 22 31 15.0050000  0  7G 3G 8G13G10G19G27G28
  10769314.50548   8387094.57343  25231933.2434   25231933.7474
     -3591.9534
  -3793926.72649  -2949171.70048  22189045.7204   22189045.0714
        36.4064
  14386506.11848  11198610.69546  23045684.8764   23045684.0244
     -3993.1874
    597369.67248    469538.70443  24743854.1104   24743855.0524
     -1358.4374
  -1511536.61749  -1174573.58446  23835039.6884   23835038.1654
     -1223.1724
   2943362.89049   2290922.12147  22106118.9314   22106117.8684
     -1132.8754
  -5793259.32249  -4514591.40146  23764257.1654   23764255.8954
      1238.6564
 04  9 10 22 31 30.0050000  0  7G 3G 8G13G10G19G27G28
  10823249.70248   8429121.98343  25242196.2594   25242197.3174
     -3599.5784
  -3794442.96549  -2949573.96648  22188947.3294   22188946.6494
        32.1884
  14446452.43448  11245322.08247  23057092.6034   23057091.8104
     -3999.8444
    617817.68748    485472.18543  24747744.8994   24747746.2944
     -1368.1564
  -1493117.28049  -1160220.86146  23838544.8064   23838543.1814
     -1232.8914
   2960383.12349   2304184.63447  22109357.7124   22109356.7554
     -1136.7034
  -5811802.46049  -4529040.58146  23760728.5404   23760727.3534
      1233.5784
 04  9 10 22 31 45.0050000  0  7G 3G 8G13G10G19G27G28
  10877294.86048   8471235.08743  25252480.6964   25252481.0174
     -3606.3444
  -3794901.09149  -2949930.93048  22188860.0174   22188859.5284
        28.9694
  14506493.66149  11292107.43647  23068518.1424   23068517.2314
     -4005.5624
    638406.35548    501515.29043  24751663.4854   24751663.9664
     -1376.9064
  -1474557.13549  -1145758.39746  23842076.5014   23842074.8994
     -1241.6724
   2977455.85149   2317488.05947  22112606.4624   22112605.4934
     -1139.5004
  -5830274.37849  -4543434.24946  23757212.9934   23757212.3024
      1229.4534
 04  9 10 22 32  0.0050000  0  7G 3G 8G13G10G19G27G28
  10931450.22548   8513434.05743  25262786.4314   25262786.7904
     -3613.6094
  -3795300.42149  -2950242.09748  22188784.2434   22188783.5284
        25.0944
  14566630.33648  11338967.15846  23079961.5564   23079960.8254
     -4011.8754
    659136.25248    517668.46743  24755608.1344   24755608.7284
     -1386.2974
  -1455855.39649  -1131185.61146  23845635.5174   23845633.6224
     -1251.0314
   2994581.70349   2330832.88647  22115865.4314   22115864.8604
     -1143.1564
  -5848674.30849  -4557771.83246  23753711.9154   23753710.9034
      1224.6884
 04  9 10 22 32 15.0050000  0  7G 3G 8G13G10G19G27G28
  10985714.06848   8555717.56043  25273112.4784   25273113.1694
     -3621.4224
  -3795642.43249  -2950508.58948  22188719.0244   22188718.3064
        20.5944
  14626860.76449  11385899.94346  23091422.9154   23091422.2554
     -4018.7814
    680005.79848    533930.44743  24759579.3064   24759580.2204
     -1396.2814
  -1437013.68849  -1116503.74946  23849221.3534   23849219.5634
     -1261.0944
   3011759.39149   2344218.10347  22119134.0634   22119133.0484
     -1147.1874
  -5867003.61549  -4572054.38046  23750223.8684   23750222.8534
      1219.3284
 04  9 10 22 32 30.0050000  0  7G 3G 8G13G10G19G27G28
  11040079.71548   8598080.39243  25283458.6574   25283458.7594
     -3628.0784
  -3795933.38749  -2950735.30048  22188663.6654   22188662.9934
        17.4694
  14687178.24748  11432900.55646  23102901.2594   23102899.9074
     -4024.3594
    701008.40748    550296.11243  24763576.3374   24763576.7434
     -1404.9064
  -1418038.31349  -1101717.74946  23852831.7744   23852829.9664
     -1269.7194
   3028982.53649   2357638.72747  22122411.7674   22122410.8684
     -1150.0164
  -5885268.68649  -4586286.88246  23746748.2674   23746746.8134
      1215.2194
 04  9 10 22 32 45.0050000  0  7G 3G 8G13G10G19G27G28
  11094557.52848   8640530.61743  25293824.9784   25293825.9854
     -3635.2664
  -3796162.78449  -2950914.03148  22188620.0244   22188619.6424
        13.6254
  14747593.34449  11479977.23947  23114397.6574   23114397.1064
     -4030.6254
    722154.62647    566773.68443  24767600.4074   24767600.6884
     -1414.2344
  -1398918.52249  -1086819.19246  23856470.3294   23856468.1034
     -1279.1254
   3046261.78149   2371103.08347  22125700.0094   22125698.4034
     -1153.5004
  -5903458.69749  -4600460.88046  23743287.1964   23743285.4504
      1210.4384
 04  9 10 22 33  0.0050000  0  7G 3G 8G13G10G19G27G28
  11149144.28848   8683065.75843  25304212.4784   25304213.4974
     -3642.5004
  -3796333.26749  -2951046.88448  22188587.5324   22188586.9464
         9.5784
  14808102.90549  11527127.51747  23125912.2984   23125911.2084
     -4036.9374
    743441.60548    583360.92443  24771651.3764   24771651.6614
     -1423.5944
  -1379657.11949  -1071810.31946  23860136.1344   23860133.5674
     -1288.6564
   3063594.39249   2384609.00447  22128998.2044   22128997.0564
     -1157.0784
  -5921576.42049  -4614578.56246  23739839.4234   23739837.7634
      1205.6094
 04  9 10 22 33 15.0050000  0  7G 3G 8G13G10G19G27G28
  11203837.98348   8725684.19543  25314620.6344   25314621.2004
     -3649.8284
  -3796446.41449  -2951135.02848  22188566.1494   22188565.3104
         5.5784
  14868704.95748  11574349.87247  23137444.6734   23137443.9664
     -4043.2344
    764867.48848    600056.39943  24775728.2824   24775728.8764
     -1433.0314
  -1360255.94049  -1056692.50146  23863827.7124   23863825.2634
     -1298.0474
   3080978.67049   2398155.20047  22132306.5714   22132305.0094
     -1160.6724
  -5939623.51749  -4628641.20646  23736404.6104   23736403.5054
      1200.7504
 04  9 10 22 33 30.0050000  0  7G 3G 8G13G10G19G27G28
  11258640.87048   8768387.74643  25325048.7284   25325049.5994
     -3656.6414
  -3796499.50848  -2951176.40248  22188556.0954   22188555.1304
         2.0634
  14929401.94848  11621646.20146  23148995.1654   23148993.5134
     -4049.0944
    786434.69248    616862.01143  24779832.4624   24779832.6854
     -1441.9534
  -1340712.32649  -1041463.71746  23867546.3764   23867544.4704
     -1307.1254
   3098417.37249   2411743.79147  22135624.7674   22135623.6454
     -1163.9224
  -5957597.38449  -4642646.79446  23732984.4384   23732983.3644
      1196.3914
 04  9 10 22 33 45.0050000  0  7G 3G 8G13G10G19G27G28
  11313549.88848   8811174.01543  25335497.3294   25335498.1774
     -3664.3754
  -3796495.47349  -2951173.25048  22188557.0014   22188555.7284
        -2.4534
  14990190.72648  11669014.05246  23160562.8924   23160561.7824
     -4055.9064
    808140.37248    633775.52143  24783963.0564   24783963.6494
     -1451.9224
  -1321029.01848  -1026126.06646  23871292.1494   23871289.8214
     -1317.0784
   3115907.60449   2425372.54247  22138953.0014   22138952.1034
     -1168.0474
  -5975500.64249  -4656597.35146  23729577.5404   23729576.5604
      1191.0004
 04  9 10 22 34  0.0050000  0  7G 3G 8G13G10G19G27G28
  11368560.91748   8854039.73243  25345965.7204   25345966.9814
     -3670.8594
  -3796437.94049  -2951128.40048  22188568.0564   22188566.6264
        -5.7814
  15051067.21649  11716450.27346  23172147.1104   23172146.0674
     -4061.5314
    829980.55348    650793.86443  24788119.0014   24788119.5094
     -1460.7034
  -1301209.86049  -1010682.54946  23875063.4154   23875061.8414
     -1325.9534
   3133445.67949   2439038.59047  22142290.4234   22142289.4424
     -1170.9534
  -5993337.08849  -4670495.84346  23726183.3294   23726182.2784
      1186.7344
 04  9 10 22 34 15.0050000  0  7G 3G 8G13G10G19G27G28
  11423675.88348   8896986.44143  25356453.8374   25356455.3534
     -3678.0784
  -3796324.63449  -2951040.11948  22188589.5014   22188588.8604
        -9.6414
  15112033.52048  11763956.46146  23183748.7204   23183747.6064
     -4067.6724
    851957.41448    667918.67043  24792301.0874   24792301.4194
     -1469.9064
  -1281252.52949   -995131.38946  23878861.3374   23878859.0994
     -1335.3284
   3151033.88049   2452743.67647  22145637.2984   22145636.2554
     -1174.4064
  -6011104.50649  -4684340.57046  23722802.4384   23722800.8454
      1181.9534
 04  9 10 22 34 30.0050000  0  7G 3G 8G13G10G19G27G28
  11478896.09947   8940015.17143  25366961.7044   25366962.9234
     -3685.1254
  -3796153.67249  -2950906.88048  22188621.5714   22188620.5404
       -13.5624
  15173090.84349  11811533.56946  23195367.5094   23195366.6034
     -4073.7504
    874072.41148    685151.12243  24796509.1964   24796509.4504
     -1479.2814
  -1261155.52648   -979471.38046  23882685.5564   23882683.6144
     -1344.7034
   3168673.84349   2466489.10047  22148994.3604   22148993.1064
     -1178.0474
  -6028801.03349  -4698130.03846  23719434.5324   23719433.8104
      1177.2194
 04  9 10 22 34 45.0050000  0  7G 3G 8G13G10G19G27G28
  11534223.29348   8983127.27242  25377490.0174   25377491.8764
     -3692.3754
  -3795923.09649  -2950727.20648  22188665.4464   22188664.7314
       -17.6874
  15234241.24848  11859183.21946  23207003.9314   23207003.2434
     -4080.0944
    896327.49347    702492.73744  24800744.6494   24800745.0134
     -1488.7034
  -1240916.63149   -963700.81146  23886536.5794   23886535.0874
     -1354.3124
   3186367.70749   2480276.52947  22152361.2124   22152359.9704
     -1181.7504
  -6046424.59449  -4711862.65846  23716081.1104   23716079.7594
      1172.1414
 04  9 10 22 35  0.0050000  0  7G 3G 8G13G10G19G27G28
  11589654.01347   9026320.02442  25388037.7284   25388039.9234
     -3699.0944
  -3795636.12549  -2950503.58248  22188720.3994   22188719.6264
       -21.3444
  15295481.26748  11906902.68646  23218657.2744   23218656.3994
     -4085.9534
    918719.35048    719940.92243  24805005.5564   24805006.2744
     -1497.6414
  -1220539.10849   -947822.22746  23890414.6104   23890412.5954
     -1363.4534
   3204112.37849   2494103.54447  22155737.6344   22155736.6654
     -1185.0164
  -6063978.28549  -4725540.83246  23712740.7204   23712739.3534
      1167.6254
 04  9 10 22 35 15.0050000  0  7G 3G 8G13G10G19G27G28
  11645190.60448   9069595.28243  25398606.7434   25398608.3534
     -3705.8754
  -3795290.04549  -2950233.89748  22188786.0404   22188785.6734
       -24.9064
  15356813.13348  11954693.72846  23230328.9314   23230328.1494
     -4091.7344
    941250.45348    737497.62943  24809292.5634   24809293.7704
     -1506.5784
  -1200020.39549   -931833.60746  23894319.1184   23894316.8644
     -1372.5004
   3221910.44149   2507972.16747  22159124.8764   22159123.8644
     -1188.2344
  -6081459.47549  -4739162.51246  23709413.9314   23709413.0914
      1163.1254
 04  9 10 22 35 30.0050000  0  7G 3G 8G13G10G19G27G28
  11700836.71247   9112955.83543  25409196.0484   25409197.5324
     -3713.2194
  -3794880.92549  -2949915.09648  22188863.8994   22188862.8604
       -29.1874
  15418240.73648  12002559.36046  23242017.8994   23242016.9384
     -4098.2194
    963924.76148    755165.91743  24813607.8684   24813608.2204
     -1516.1414
  -1179356.40049   -915731.79746  23898251.6574   23898249.7004
     -1382.2194
   3239766.04049   2521885.61947  22162522.5094   22162521.3954
     -1192.0944
  -6098864.09449  -4752724.51546  23706102.5244   23706101.2514
      1157.9064
 04  9 10 22 35 45.0050000  0  7G 3G 8G13G10G19G27G28
  11756585.11148   9156396.16543  25419804.0404   25419805.8374
     -3719.7814
  -3794415.69949  -2949552.56748  22188952.4464   22188951.8494
       -32.6094
  15479756.70849  12050493.86446  23253724.4314   23253723.1964
     -4103.7664
    986735.19648    772940.26543  24817948.8604   24817949.2674
     -1525.0314
  -1158554.14049   -899522.24046  23902210.3214   23902207.8374
     -1391.2664
   3257672.32949   2535838.57547  22165930.0484   22165929.4504
     -1195.1724
  -6116198.95249  -4766232.16546  23702803.7284   23702802.2674
      1153.5474
 04  9 10 22 36  0.0050000  0  7G 3G 8G13G10G19G27G28
  11812437.64547   9199917.59142  25430433.0714   25430434.3844
     -3726.6724
  -3793891.97249  -2949144.46148  22189052.0014   22189051.5914
       -36.4534
  15541363.24849  12098498.94146  23265447.6104   23265446.6534
     -4109.7194
   1009683.85148    790822.33644  24822315.8844   24822316.7004
     -1534.1254
  -1137611.36049   -883203.18846  23906195.3134   23906193.1034
     -1400.5164
   3275631.44949   2549832.68547  22169347.3064   22169346.2474
     -1198.6254
  -6133461.68549  -4779683.60846  23699518.8604   23699517.3994
      1148.8594
 04  9 10 22 36 15.0050000  0  7G 3G 8G13G10G19G27G28
  11868396.06747   9243521.54043  25441081.3214   25441082.9504
     -3734.0474
  -3793307.31049  -2948688.86748  22189163.0794   22189162.2704
       -40.9534
  15603061.92049  12146575.81046  23277188.1494   23277187.0604
     -4116.2194
   1032772.56648    808813.53744  24826708.9544   24826709.9814
     -1543.8594
  -1116525.98249   -866773.01346  23910207.8764   23910205.4424
     -1410.3594
   3293645.43349   2563869.56047  22172775.7824   22172774.6884
     -1202.6254
  -6150650.42649  -4793077.39546  23696247.4854   23696246.1034
      1143.5164
 04  9 10 22 36 30.0050000  0  7G 3G 8G13G10G19G27G28
  11924458.24347   9287206.36343  25451749.2284   25451751.1034
     -3741.0164
  -3792663.67249  -2948187.32748  22189285.7284   22189284.6654
       -44.8914
  15664850.84749  12194723.00746  23288946.5954   23288945.3494
     -4122.3284
   1055999.40248    826912.36344  24831129.1654   24831129.7674
     -1553.1414
  -1095299.81749   -850233.14246  23914246.7044   23914244.6184
     -1419.8124
   3311712.77449   2577948.00247  22176213.5564   22176212.1814
     -1206.2814
  -6167766.77449  -4806414.79346  23692990.3454   23692989.1264
      1138.6564
 04  9 10 22 36 45.0050000  0  7G 3G 8G13G10G19G27G28
  11980624.00147   9330971.88242  25462437.3924   25462438.9034
     -3747.5004
  -3791961.03549  -2947639.79848  22189419.5954   22189418.7204
       -48.4844
  15726729.94949  12242940.45946  23300722.0094   23300720.9274
     -4127.9224
   1079364.34848    845118.82144  24835575.4854   24835575.8254
     -1561.9694
  -1073932.85649   -833583.56046  23918312.9934   23918311.0134
     -1428.7974
   3329833.45749   2592068.01847  22179661.6884   22179660.7784
     -1209.4844
  -6184810.52149  -4819695.59346  23689746.6424   23689746.0204
      1134.1564
 04  9 10 22 37  0.0050000  0  7G 3G 8G13G10G19G27G28
  12036891.63248   9374816.75542  25473145.0244   25473146.0994
     -3754.6564
  -3791200.57149  -2947047.22748  22189564.0014   22189563.4114
       -52.6874
  15788697.32848  12291226.70946  23312513.6424   23312513.0714
     -4134.2194
   1102865.76248    863431.59244  24840047.5954   24840047.8764
     -1571.4064
  -1052426.44049   -816825.31546  23922405.2744   23922403.5174
     -1438.4844
   3348006.18449   2606228.57947  22183120.1344   22183118.8494
     -1213.3594
  -6201783.06249  -4832920.91246  23686517.1884   23686515.9814
      1129.0474
 04  9 10 22 37 15.0050000  0  7G 3G 8G13G10G19G27G28
  12093265.49447   9418744.45642  25483872.6264   25483873.9584
     -3761.8284
  -3790377.67549  -2946405.99648  22189720.8764   22189719.9384
       -57.0624
  15850757.49349  12339585.25646  23324323.1034   23324322.3174
     -4140.5004
   1126508.33048    881854.37343  24844546.1654   24844546.8844
     -1580.9694
  -1030775.92549   -799954.78846  23926525.3994   23926523.5054
     -1448.2504
   3366235.71349   2620433.41047  22186589.2434   22186588.1774
     -1217.2504
  -6218679.54049  -4846086.97646  23683302.0014   23683300.4034
      1123.7974
 04  9 10 22 37 30.0050000  0  7G 3G 8G13G10G19G27G28
  12149742.23348   9462752.25342  25494620.2204   25494620.6964
     -3768.7344
  -3789495.36149  -2945718.47848  22189889.0634   22189888.1884
       -61.0624
  15912907.19349  12388013.56246  23336149.7904   23336149.1454
     -4146.5164
   1150288.75648    900384.57144  24849071.6264   24849072.0284
     -1590.1874
  -1008984.42149   -782974.39246  23930671.7904   23930670.3644
     -1457.7034
   3384518.89749   2634680.04447  22190068.2674   22190066.8294
     -1220.9064
  -6235503.05649  -4859196.17346  23680100.4074   23680098.9194
      1118.8754
 04  9 10 22 37 45.0050000  0  7G 3G 8G13G10G19G27G28
  12206323.60747   9506841.63843  25505385.7984   25505388.3334
     -3775.2814
  -3788551.46649  -2944982.95848  22190068.5094   22190067.3174
       -64.7974
  15975148.29249  12436513.10146  23347994.1964   23347993.4314
     -4152.2344
   1174208.98948    919023.72243  24853623.4854   24853624.3454
     -1599.1254
   -987049.72749   -765882.42146  23934846.1034   23934844.2864
     -1466.8914
   3402858.10349   2648970.33247  22193557.5634   22193556.6184
     -1224.3124
  -6252251.41349  -4872246.80646  23676913.1034   23676912.1424
      1114.3134
 04  9 10 22 38  0.0050000  0  7G 3G 8G13G10G19G27G28
  12263007.39547   9551010.80342  25516172.9704   25516174.8804
     -3782.2664
  -3787547.51649  -2944200.65748  22190259.4934   22190258.3214
       -68.9694
  16037478.72449  12485082.25046  23359854.9314   23359854.2474
     -4158.3124
   1198267.05748    937770.25344  24858202.0484   24858202.7164
     -1608.5004
   -964973.81949   -748680.41246  23939046.9934   23939044.8454
     -1476.4224
   3421251.37049   2663302.74448  22197058.1964   22197056.9504
     -1228.0164
  -6268926.38949  -4885240.25846  23673740.0794   23673739.0134
      1109.1884
 04  9 10 22 38 15.0050000  0  7G 3G 8G13G10G19G27G28
  12319797.07047   9595262.47543  25526980.0404   25526982.2704
     -3789.5474
  -3786479.77749  -2943368.65448  22190462.7824   22190461.3684
       -73.3754
  16099902.07448  12533723.78446  23371734.2124   23371733.2944
     -4164.7194
   1222466.67448    956627.08644  24862806.8604   24862807.7984
     -1618.1094
   -942752.84949   -731365.35546  23943275.6344   23943273.7634
     -1486.2504
   3439702.60249   2677680.33247  22200569.1264   22200568.3254
     -1232.1094
  -6285524.15349  -4898173.54746  23670581.7204   23670580.4034
      1103.9064
 04  9 10 22 38 30.0050000  0  7G 3G 8G13G10G19G27G28
  12376690.12047   9639594.68343  25537806.8764   25537808.0174
     -3796.3594
  -3785350.60249  -2942488.76948  22190677.6574   22190676.3294
       -77.3594
  16162415.77749  12582435.74746  23383630.0954   23383629.0834
     -4170.6564
   1246805.51748    975592.39843  24867437.7594   24867438.7244
     -1627.2504
   -920389.05449   -713939.01946  23947531.1884   23947529.1614
     -1495.7504
   3458209.72649   2692101.47247  22204091.0244   22204089.8954
     -1235.6724
  -6302046.88449  -4911048.37246  23667437.6184   23667436.5754
      1098.9384
 04  9 10 22 38 45.0050000  0  7G 3G 8G13G10G19G27G28
  12433683.69047   9684005.23543  25548651.4464   25548653.9624
     -3803.0164
  -3784162.06849  -2941562.62948  22190903.4704   22190902.4074
       -81.3914
  16225017.12649  12631215.99046  23395542.6574   23395541.7864
     -4176.5004
   1271280.99648    994664.20643  24872095.8994   24872096.4464
     -1636.3754
   -897884.93649   -696403.34146  23951813.9464   23951811.4854
     -1505.0944
   3476770.18549   2706564.15947  22207623.1654   22207621.8294
     -1239.3284
  -6318496.87549  -4923866.51346  23664306.6574   23664305.7124
      1094.0474
 04  9 10 22 39  0.0050000  0  7G 3G 8G13G10G19G27G28
  12490778.04847   9728494.31643  25559516.5954   25559518.7594
     -3809.6414
  -3782913.82449  -2940589.95948  22191140.9784   22191140.3994
       -85.2504
  16287706.36149  12680064.72546  23407471.9464   23407471.0284
     -4182.2344
   1295893.44348   1013842.73543  24876778.7674   24876779.5604
     -1645.4064
   -875240.05649   -678757.97746  23956122.9384   23956120.6304
     -1514.3754
   3495384.68149   2721068.95847  22211165.0954   22211164.0994
     -1242.7504
  -6334873.52949  -4936627.51746  23661190.6104   23661189.2514
      1089.3284
 04  9 10 22 39 15.0050000  0  7G 3G 8G13G10G19G27G28
  12547974.86847   9773063.24943  25570401.0404   25570402.5834
     -3815.9694
  -3781603.81549  -2939569.16248  22191390.1654   22191389.7044
       -88.9534
  16350485.27048  12728983.33346  23419418.5714   23419417.8884
     -4187.7344
   1320644.76848   1033129.50443  24881489.2044   24881489.8604
     -1654.2504
   -852452.27649   -661001.25346  23960459.0484   23960457.2314
     -1523.4534
   3514055.29049   2735617.48947  22214717.8134   22214716.8254
     -1246.0784
  -6351174.89649  -4949329.83546  23658088.3684   23658087.1574
      1084.7344
 04  9 10 22 39 30.0050000  0  7G 3G 8G13G10G19G27G28
  12605270.25047   9817708.99343  25581304.0324   25581305.5994
     -3823.1724
  -3780235.56149  -2938502.98048  22191651.2204   22191650.5404
       -93.3754
  16413349.86948  12777968.71946  23431381.4854   23431380.7744
     -4194.0164
   1345531.02448   1052521.38243  24886225.0174   24886225.1384
     -1663.7344
   -829525.32949   -643136.09946  23964821.8064   23964819.8454
     -1533.2664
   3532778.27249   2750206.82547  22218280.9934   22218279.5174
     -1250.1874
  -6367404.50049  -4961976.25146  23655000.3604   23654998.8604
      1079.4064
 04  9 10 22 39 45.0050000  0  7G 3G 8G13G10G19G27G28
  12662661.07247   9862429.09343  25592224.8604   25592226.6384
     -3829.5004
  -3778811.98549  -2937393.68948  22191921.1884   22191920.7514
       -97.0164
  16476297.33548  12827018.66846  23443359.6034   23443358.9424
     -4199.4844
   1370549.42448   1072016.23243  24890985.7674   24890986.4704
     -1672.5164
   -806462.09349   -625164.72946  23969211.0094   23969209.4584
     -1542.3444
   3551550.98149   2764834.90747  22221853.3844   22221852.2554
     -1253.4374
  -6383565.06349  -4974568.86646  23651925.1654   23651923.8024
      1074.8284
 04  9 10 22 40  0.0050000  0  7G 3G 8G13G10G19G27G28
  12720149.85147   9907225.51142  25603164.7904   25603165.9894
     -3835.5624
  -3777329.75949  -2936238.71548  22192203.8924   22192202.8134
      -100.6414
  16539330.10448  12876135.07246  23455354.4934   23455354.1384
     -4204.8754
   1395702.66848   1091616.16543  24895772.9624   24895772.9784
     -1681.2344
   -783259.69649   -607084.94646  23973625.6264   23973624.2044
     -1551.2814
   3570376.35849   2779504.01647  22225435.7674   22225434.0604
     -1256.5944
  -6399653.68749  -4987105.42546  23648863.2904   23648862.3254
      1070.3134
 04  9 10 22 40 15.0050000  0  7G 3G 8G13G10G19G27G28
  12777740.29847   9952101.20342  25614124.3134   25614124.6064
     -3842.6564
  -3775785.02749  -2935035.01548  22192497.6184   22192497.1224
      -105.0164
  16602451.96048  12925320.92446  23467366.1494   23467365.7164
     -4211.0314
   1420994.53648   1111324.09743  24900584.9314   24900585.0134
     -1690.6414
   -759914.20549   -588893.64946  23978068.4934   23978066.5404
     -1561.0944
   3589258.40549   2794217.30947  22229028.6424   22229027.6614
     -1260.5784
  -6415666.25349  -4999582.71146  23645816.0794   23645814.8374
      1065.0164
 04  9 10 22 40 30.0050000  0  7G 3G 8G13G10G19G27G28
  12835429.10147   9997053.47742  25625101.7594   25625102.3604
     -3849.1874
  -3774180.60549  -2933784.81048  22192803.2514   22192802.0204
      -108.9224
  16665659.72148  12974573.70146  23479394.0794   23479393.3414
     -4216.6874
   1446421.96348   1131137.66743  24905424.3454   24905424.1494
     -1699.6414
   -736428.52949   -570593.11546  23982537.5954   23982536.0914
     -1570.3444
   3608194.28249   2808972.53047  22232631.9384   22232630.9194
     -1264.2194
  -6431605.67949  -5012003.01046  23642782.8684   23642781.6384
      1060.1884
 04  9 10 22 40 45.0050000  0  7G 3G 8G13G10G19G27G28
  12893218.35947  10042084.05342  25636099.0094   25636099.5524
     -3855.4224
  -3772513.96749  -2932486.12848  22193120.0174   22193119.6534
      -112.6874
  16728955.56248  13023895.10046  23491439.1424   23491438.3494
     -4222.0784
   1471987.10048   1151058.54343  24910289.2284   24910289.1854
     -1708.3754
   -712800.34149   -552181.53946  23987034.3374   23987032.1654
     -1579.4534
   3627186.40449   2823771.58147  22236246.1184   22236245.1494
     -1267.4694
  -6447469.61949  -5024364.49446  23639764.1494   23639762.9934
      1055.7194
 04  9 10 22 41  0.0050000  0  7G 3G 8G13G10G19G27G28
  12951103.61548  10087189.43943  25647114.6104   25647114.5714
     -3862.2974
  -3770789.38549  -2931142.29248  22193448.2594   22193446.9784
      -116.9374
  16792334.99548  13073281.65446  23503499.8134   23503498.7984
     -4228.1874
   1497685.68248   1171083.42243  24915179.2744   24915179.8064
     -1717.7034
   -689033.81749   -533662.15846  23991556.5484   23991554.8214
     -1589.1094
   3646230.74849   2838611.33847  22239870.6424   22239869.1734
     -1271.3754
  -6463262.04449  -5036670.24446  23636759.3214   23636757.6144
      1050.4844
 04  9 10 22 41 15.0050000  0  7G 3G 8G13G10G19G27G28
  13009088.94548  10132372.78943  25658148.8134   25658148.9234
     -3868.7814
  -3769002.27449  -2929749.73248  22193788.6264   22193788.0634
      -121.0004
  16855802.30448  13122736.67546  23515577.0794   23515576.4424
     -4233.8754
   1523522.02348   1191215.61243  24920095.7984   24920096.0284
     -1726.7974
   -665124.46449   -515031.48546  23996106.6184   23996104.1034
     -1598.5164
   3665331.79749   2853495.26747  22243505.1654   22243503.9934
     -1275.0944
  -6478978.45049  -5048916.77546  23633768.5244   23633766.8414
      1045.3754
 04  9 10 22 41 30.0050000  0  7G 3G 8G13G10G19G27G28
  13067174.41248  10177634.19143  25669201.7514   25669202.8994
     -3876.1414
  -3767152.18449  -2928308.09648  22194140.3764   22194139.6224
      -125.9064
  16919357.48448  13172260.17446  23527671.6104   23527670.8454
     -4240.3754
   1549496.39848   1211455.38043  24925038.3374   24925038.9384
     -1736.6874
   -641071.97049   -496289.27146  24000683.5174   24000681.0054
     -1608.7504
   3684490.04149   2868423.77547  22247150.6884   22247149.4784
     -1279.6094
  -6494618.40549  -5061103.71846  23630792.0484   23630790.3374
      1039.6094
 04  9 10 22 41 45.0050000  0  7G 3G 8G13G10G19G27G28
  13125357.99647  10222972.01143  25680273.5954   25680275.1694
     -3882.2974
  -3765240.79449  -2926818.69248  22194504.2044   22194503.4384
      -129.6094
  16982998.66648  13221850.68146  23539781.7354   23539781.3724
     -4245.7664
   1575606.89048   1231801.21343  24930007.1494   24930007.4854
     -1745.4064
   -616878.04949   -477436.85946  24005288.0014   24005285.0954
     -1617.7814
   3703703.70749   2883395.47047  22250806.8134   22250805.9354
     -1282.8914
  -6510183.46549  -5073232.29946  23627830.1184   23627828.8644
      1035.0784
 04  9 10 22 42  0.0050000  0  7G 3G 8G13G10G19G27G28
  13183637.51347  10268384.59643  25691363.4464   25691365.9464
     -3888.4064
  -3763269.81249  -2925282.85048  22194879.3924   22194877.9354
      -133.3284
  17046723.67848  13271506.50746  23551908.5794   23551907.8924
     -4251.0314
   1601851.36648   1252251.46043  24935001.3764   24935001.3724
     -1754.0314
   -592544.70849   -458475.79946  24009918.1654   24009915.6854
     -1626.7814
   3722971.03148   2898408.96347  22254473.3294   22254472.1694
     -1286.1724
  -6525675.53149  -5085304.01846  23624881.9934   23624880.5914
      1030.4694
 04  9 10 22 42 15.0050000  0  6G 8G13G10G19G27G28
  -3761239.08149  -2923700.45448  22195265.5564   22195264.3954
      -137.1564
  17110532.45648  13321227.60646  23564050.9154   23564050.1964
     -4256.4844
   1628230.06048   1272806.27443  24940021.3134   24940021.5484
     -1762.8444
   -568071.78749   -439405.97846  24014575.0564   24014572.4114
     -1635.9844
   3742292.34249   2913464.53647  22258150.2434   22258148.9464
     -1289.6874
  -6541094.37049  -5097318.66046  23621947.8374   23621946.3134
      1025.6564
 04  9 10 22 42 30.0050000  0  6G 8G13G10G19G27G28
  -3759145.31849  -2922068.95248  22195663.8374   22195662.6454
      -141.3914
  17174427.69748  13371016.08346  23576209.6574   23576209.1534
     -4262.2194
   1654745.70048   1293467.80243  24945066.6734   24945066.9424
     -1772.0004
   -543456.34649   -420225.10846  24019258.6494   24019257.2004
     -1645.4534
   3761670.59349   2928564.45647  22261837.5634   22261836.9274
     -1293.4844
  -6556437.03149  -5109273.96046  23619027.9544   23619026.7084
      1020.5784
 04  9 10 22 42 45.0050000  0  6G 8G13G10G19G27G28
  -3756989.14649  -2920388.81248  22196074.5174   22196073.0014
      -145.6724
  17238408.46348  13420871.19046  23588385.3604   23588384.4504
     -4268.1094
   1681397.38748   1314235.32243  24950138.5174   24950138.7674
     -1781.2344
   -518699.14349   -400933.78246  24023969.8994   24023968.3454
     -1655.1254
   3781105.19249   2943708.30647  22265535.9704   22265534.7904
     -1297.4224
  -6571704.12349  -5121170.36946  23616123.1574   23616121.6224
      1015.3284
 04  9 10 22 43  0.0050000  0  6G 8G13G10G19G27G28
  -3754767.19449  -2918657.40448  22196497.3844   22196496.2784
      -149.9374
  17302478.27848  13470795.70645  23600576.7744   23600576.1574
     -4273.8124
   1708188.64548   1335111.64543  24955236.1814   24955236.7904
     -1790.2664
   -493796.45449   -381529.08246  24028708.7744   24028706.9034
     -1664.5624
   3800600.00449   2958899.06947  22269245.9234   22269244.3844
     -1301.2344
  -6586891.78349  -5133004.88046  23613232.7594   23613231.7124
      1010.3444
 04  9 10 22 43 15.0050000  0  6G 8G13G10G19G27G28
  -3752485.06949  -2916879.12248  22196931.5714   22196930.3414
      -154.2814
  17366630.96648  13520784.78646  23612785.0714   23612784.7474
     -4279.7664
   1735113.46048   1356091.99643  24960360.0484   24960360.5444
     -1799.5624
   -468754.19749   -362015.61746  24033474.4784   24033472.9074
     -1674.2344
   3820149.01949   2974132.07447  22272965.8064   22272964.5244
     -1305.1874
  -6602005.82549  -5144782.02746  23610356.6424   23610355.0914
      1005.0474
 04  9 10 22 43 30.0050000  0  6G 8G13G10G19G27G28
  -3750137.01249  -2915049.45048  22197378.2204   22197377.4504
      -158.7344
  17430871.90648  13570842.64346  23625009.8924   23625008.9314
     -4285.6414
   1762177.28548   1377180.69943  24965510.6814   24965510.4854
     -1808.9064
   -443566.69949   -342388.98946  24038267.1654   24038265.7164
     -1684.0004
   3839757.99249   2989411.78647  22276697.4154   22276695.9624
     -1309.1874
  -6617040.53949  -5156497.35946  23607495.4384   23607494.7044
       999.7034
 04  9 10 22 43 45.0050000  0  6G 8G13G10G19G27G28
  -3747721.91149  -2913167.55348  22197837.8214   22197836.4544
      -162.9534
  17495201.94849  13620969.92546  23637251.0564   23637250.9464
     -4291.2974
   1789381.19748   1398378.55943  24970687.0324   24970687.3804
     -1818.0164
   -418232.94749   -322648.40046  24043088.4544   24043086.6654
     -1693.4694
   3859428.24149   3004739.25747  22280440.7044   22280438.7864
     -1313.0624
  -6631994.73149  -5168149.95246  23604650.2744   23604648.5754
       994.5944
 04  9 10 22 44  0.0050000  0  6G 8G13G10G19G27G28
  -3745241.66549  -2911234.88448  22198310.0174   22198308.8334
      -167.6414
  17559618.78548  13671164.83446  23649509.2904   23649508.0444
     -4297.5314
   1816722.79548   1419683.70443  24975890.0954   24975890.3994
     -1827.4844
   -392755.10949   -302795.53846  24047936.8134   24047934.7674
     -1703.4374
   3879157.70949   3020112.86647  22284194.9384   22284193.7244
     -1317.5164
  -6646870.42149  -5179741.37146  23601819.5244   23601817.8804
       988.9534
 04  9 10 22 44 15.0050000  0  6G 8G13G10G19G27G28
  -3742693.04949  -2909248.94748  22198794.9464   22198794.0014
      -172.1874
  17624125.11548  13721429.48346  23661784.0954   23661783.5634
     -4303.4224
   1844205.12548   1441098.48543  24981119.9464   24981120.1574
     -1836.8754
   -367130.06349   -282827.96146  24052812.8374   24052810.8064
     -1713.2344
   3898949.35149   3035534.92747  22287961.0714   22287959.9464
     -1321.5624
  -6661664.56049  -5191269.24646  23599004.0014   23599002.7284
       983.6254
 04  9 10 22 44 30.0050000  0  6G 8G13G10G19G27G28
  -3740081.68449  -2907214.11048  22199291.9624   22199291.2674
      -176.9374
  17688715.22748  13771759.41646  23674075.5014   23674075.0874
     -4309.4694
   1871822.43248   1462618.47943  24986374.7904   24986375.1614
     -1846.3444
   -341363.43449   -262750.06246  24057716.4384   24057714.1144
     -1723.1724
   3918797.89749   3051001.32947  22291738.1654   22291736.5634
     -1325.7974
  -6676382.60949  -5202737.82746  23596203.5174   23596201.9154
       978.0164
 04  9 10 22 44 45.0050000  0  6G 8G13G10G19G27G28
  -3737408.98749  -2905131.46748  22199800.0324   22199799.2434
      -180.3594
  17753387.51748  13822153.38946  23686382.4154   23686381.9974
     -4314.4224
   1899573.06148   1484242.34543  24991655.6814   24991655.9624
     -1854.6724
   -315456.76949   -242563.03546  24062645.7354   24062643.9584
     -1731.9064
   3938701.89249   3066510.94847  22295525.4934   22295524.2474
     -1328.9534
  -6691025.97749  -5214148.21346  23593416.5564   23593415.3644
       973.5474
 04  9 10 22 45  0.0050000  0  6G 8G13G10G19G27G28
  -3734671.26849  -2902998.17948  22200321.5874   22200320.7244
      -184.6254
  17818144.85649  13872613.62146  23698704.9934   23698704.6064
     -4320.0474
   1927460.10548   1505972.49843  24996962.4544   24996963.0994
     -1863.7194
   -289406.74349   -222264.30146  24067602.8294   24067600.8924
     -1741.4224
   3958664.67049   3082066.34947  22299324.3374   22299323.5174
     -1332.8754
  -6705591.36749  -5225497.84646  23590645.2744   23590643.6344
       968.3914
 04  9 10 22 45 15.0050000  0  6G 8G13G10G19G27G28
  -3731868.32949  -2900814.05648  22200854.6964   22200853.5204
      -188.7034
  17882987.35648  13923140.22446  23711044.5634   23711043.6064
     -4325.2974
   1955483.79347   1527809.13743  25002294.9624   25002296.4354
     -1872.4374
   -263213.16349   -201853.71546  24072587.6574   24072585.6104
     -1750.6564
   3978686.74649   3097667.96547  22303134.5794   22303133.4074
     -1336.4694
  -6720078.22449  -5236786.27346  23587887.9544   23587886.6614
       963.4844
 04  9 10 22 45 30.0060000  0  6G 8G13G10G19G27G28
  -3729002.27649  -2898580.77848  22201400.0064   22201398.9004
      -193.6874
  17947916.98349  13973734.70546  23723400.3114   23723398.8774
     -4331.6564
   1983643.64847   1549751.86943  25007653.4754   25007654.2644
     -1882.1564
   -236876.48349   -181331.62346  24077599.3654   24077597.0414
     -1760.9534
   3998767.30649   3113315.15448  22306955.8734   22306954.4594
     -1341.0624
  -6734489.67149  -5248015.95946  23585146.1074   23585144.7094
       957.6254
 04  9 10 22 45 45.0060000  0  6G 8G13G10G19G27G28
  -3726069.35049  -2896295.36748  22201958.1394   22201957.2014
      -197.4224
  18012928.63149  14024393.11646  23735771.5844   23735770.5024
     -4336.6564
   2011939.61748   1571800.68443  25013038.7014   25013039.8224
     -1890.5784
   -210396.38249   -160697.76746  24082638.6004   24082636.1114
     -1769.8124
   4018907.62849   3129008.91847  22310788.2324   22310787.3224
     -1344.3124
  -6748819.90449  -5259182.34146  23582418.5684   23582417.3224
       953.0784
 04  9 10 22 46  0.0060000  0  6G 8G13G10G19G27G28
  -3723074.54349  -2893961.74448  22202528.1864   22202527.0024
      -201.6564
  18078021.10748  14075114.50046  23748158.2484   23748157.2174
     -4342.1094
   2040368.09748   1593952.72743  25018448.2714   25018448.8344
     -1899.5944
   -183776.40449   -139954.93546  24087703.6544   24087701.4474
     -1779.2034
   4039103.75549   3144746.15447  22314631.4754   22314630.1154
     -1348.1874
  -6763075.04249  -5270290.22246  23579706.1704   23579704.6394
       947.8754
 04  9 10 22 46 15.0060000  0  6G 8G13G10G19G27G28
  -3720016.21149  -2891578.63348  22203110.2874   22203108.6544
      -205.9534
  18143195.63548  14125899.81846  23760560.3034   23760559.7254
     -4347.5944
   2068930.34147   1616209.02143  25023883.7094   25023884.2994
     -1908.5164
   -157014.98349   -119101.86446  24092796.7404   24092794.3654
     -1788.6724
   4059357.40249   3160528.21847  22318485.6624   22318484.8144
     -1352.0004
  -6777253.53549  -5281338.37546  23577007.9984   23577006.4244
       942.8134
 04  9 10 22 46 30.0060000  0  6G 8G13G10G19G27G28
  -3716894.36649  -2889146.01048  22203704.0374   22203703.2874
      -210.5474
  18208451.94449  14176748.86046  23772977.8894   23772977.5574
     -4353.3444
   2097626.14248   1638569.38043  25029344.2404   25029344.8534
     -1917.7974
   -130112.41449    -98138.82146  24097915.9754   24097913.7874
     -1798.4694
   4079668.41149   3176354.98147  22322350.7484   22322349.3384
     -1356.2344
  -6791355.41849  -5292326.82246  23574324.2014   23574323.0104
       937.2664
 04  9 10 22 46 45.0060000  0  6G 8G13G10G19G27G28
  -3713711.02649  -2886665.48848  22204309.9514   22204308.9944
      -214.4224
  18273787.74248  14227659.84545  23785411.0374   23785410.3344
     -4358.5164
   2126453.23448   1661032.04843  25034829.6624   25034829.7834
     -1926.3594
   -103070.69949    -77067.34146  24103061.4984   24103059.3654
     -1807.6414
   4100034.99749   3192225.04647  22326226.2324   22326225.0494
     -1359.7504
  -6805382.72849  -5303257.17546  23571655.3114   23571653.2524
       932.5004
 04  9 10 22 47  0.0060000  0  6G 8G13G10G19G27G28
  -3710463.92949  -2884135.27348  22204927.9204   22204926.4044
      -219.0164
  18339204.77049  14278634.13445  23797859.6074   23797859.0024
     -4364.2194
   2155413.49248   1683598.48044  25040340.9124   25040341.2954
     -1935.5164
    -75887.90249    -55885.93146  24108234.4754   24108232.3304
     -1817.2974
   4120459.09849   3208139.93647  22330112.8814   22330111.5644
     -1363.9694
  -6819333.23849  -5314127.68046  23569000.3114   23568998.8184
       927.1414
 04  9 10 22 47 15.0060000  0  6G 8G13G10G19G27G28
  -3707153.61749  -2881555.80348  22205557.6784   22205556.6504
      -222.9694
  18404702.11049  14329670.98945  23810323.5534   23810322.9044
     -4369.2814
   2184506.22547   1706268.13443  25045876.5374   25045877.5844
     -1944.1564
    -48564.72749    -34595.13346  24113433.9824   24113431.5414
     -1826.3594
   4140940.37149   3224099.35947  22334010.4904   22334008.9554
     -1367.4224
  -6833207.63049  -5324938.86946  23566360.1154   23566359.0184
       922.2814
 04  9 10 22 47 30.0060000  0  6G 8G13G10G19G27G28
  -3703778.96049  -2878926.19348  22206199.5214   22206198.5184
      -227.2034
  18470280.76449  14380771.22546  23822802.9514   23822801.7644
     -4374.6254
   2213732.34847   1729041.72144  25051438.5064   25051438.7254
     -1952.9224
    -21099.99549    -13194.03646  24118660.1864   24118658.3114
     -1835.7504
   4161479.94449   3240104.23247  22337918.9364   22337918.0844
     -1371.4224
  -6847004.56049  -5335689.69746  23563734.5924   23563733.1824
       917.1564
 04  9 10 22 47 45.0060000  0  6G 8G13G10G19G27G28
  -3700339.80749  -2876246.33148  22206854.0684   22206853.1704
      -231.4224
  18535940.36448  14431934.51746  23835297.3344   23835296.9754
     -4379.9374
   2243091.67148   1751919.11443  25057025.3504   25057026.0724
     -1961.6874
      6506.17449      8317.27446  24123913.2094   24123911.5184
     -1845.1254
   4182077.79749   3256154.50247  22341838.4674   22341837.4044
     -1375.1414
  -6860724.16349  -5346380.27446  23561123.7794   23561122.2444
       912.0944
 04  9 10 22 48  0.0060000  0  6G 8G13G10G19G27G28
  -3696839.60949  -2873518.90048  22207520.1624   22207519.3224
      -235.3284
  18601677.30949  14483158.08546  23847806.6154   23847806.8854
     -4384.9694
   2272580.63948   1774897.51843  25062637.1544   25062637.5024
     -1970.2034
     34250.35449     29936.12446  24129192.8184   24129190.1704
     -1854.0944
   4202730.71649   3272247.68647  22345768.5374   22345767.1314
     -1378.5944
  -6874369.67049  -5357013.10547  23558526.9904   23558525.3224
       907.3134
 04  9 10 22 48 15.0060000  0  6G 8G13G10G19G27G28
  -3693277.43149  -2870743.16948  22208198.2014   22208197.4364
      -239.5164
  18667492.11548  14534442.31846  23860330.9904   23860330.3424
     -4390.1564
   2302199.79248   1797977.38144  25068273.2644   25068273.9594
     -1978.9224
     62133.27249     51663.09046  24134498.9824   24134496.8574
     -1863.4534
   4223439.40349   3288384.32147  22349709.4364   22349708.3074
     -1382.4694
  -6887940.20049  -5367587.52346  23555944.7404   23555943.5184
       902.1724
 04  9 10 22 48 30.0060000  0  6G 8G13G10G19G27G28
  -3689649.62749  -2867916.31048  22208888.6234   22208887.7714
      -243.6724
  18733388.05648  14585789.77246  23872869.8424   23872870.1624
     -4395.4064
   2331952.45647   1821161.25243  25073935.1314   25073935.6004
     -1987.5474
     90158.25649     73500.74046  24139831.6004   24139829.8504
     -1872.7194
   4244207.60949   3304567.34147  22353661.6074   22353660.4244
     -1386.1414
  -6901432.12149  -5378100.68847  23553377.3574   23553375.9674
       897.2344
 04  9 10 22 48 45.0060000  0  6G 8G13G10G19G27G28
  -3685955.35249  -2865037.65248  22209591.4514   22209590.3894
      -248.5624
  18799365.58748  14637200.80845  23885425.8654   23885425.3144
     -4401.2194
   2361839.25447   1844449.65643  25079622.4044   25079622.9004
     -1996.9064
    118326.14049     95449.75046  24145191.8184   24145189.2794
     -1882.6094
   4265036.18949   3320797.40447  22357625.0454   22357624.0294
     -1390.6414
  -6914844.79749  -5388552.10246  23550825.0374   23550823.7364
       891.5004
 04  9 10 22 49  0.0060000  0  6G 8G13G10G19G27G28
  -3682200.06349  -2862111.44948  22210306.0844   22210305.1664
      -252.3594
  18865419.06448  14688671.01745  23897995.0764   23897995.0334
     -4406.0624
   2391854.58648   1867838.21643  25085334.0844   25085334.5414
     -2005.3124
    146631.44549    117505.83746  24150578.5684   24150575.9754
     -1891.5624
   4285919.80449   3337070.34347  22361598.9754   22361597.7404
     -1394.0944
  -6928183.49249  -5398945.86946  23548286.8344   23548285.3424
       886.8594
 04  9 10 22 49 15.0060000  0  6G 8G13G10G19G27G28
  -3678379.05949  -2859134.04148  22211033.3504   22211032.3814
      -257.0164
  18931552.61748  14740203.63445  23910579.7404   23910579.9754
     -4411.6254
   2422002.80147   1891330.32743  25091071.0374   25091071.2834
     -2014.3124
    175078.60549    139672.45446  24155991.7714   24155989.0764
     -1901.2974
   4306862.95349   3353389.68447  22365583.9364   22365583.3654
     -1398.2504
  -6941443.63649  -5409278.42746  23545763.6004   23545761.8504
       881.3594
 04  9 10 22 49 30.0060000  0  6G 8G13G10G19G27G28
  -3674491.82249  -2856105.01748  22211772.7564   22211771.8934
      -261.6724
  18997766.45249  14791798.79646  23923180.2324   23923179.7094
     -4417.2194
   2452283.96447   1914926.00743  25096833.2254   25096833.6074
     -2023.4844
    203667.84949    161949.80046  24161431.5764   24161430.0184
     -1911.0314
   4327866.10149   3369755.77147  22369581.0374   22369580.0534
     -1402.5314
  -6954624.87449  -5419549.49146  23543255.0614   23543253.8574
       875.7814
 04  9 10 22 49 45.0060000  0  6G 8G13G10G19G27G28
  -3670540.59749  -2853026.13748  22212524.8734   22212524.1234
      -265.3594
  19064058.01648  14843454.54646  23935795.0844   23935794.9044
     -4421.8594
   2482695.72247   1938623.49043  25102620.4904   25102621.3344
     -2031.5784
    232396.88049    184336.05946  24166898.8424   24166896.7994
     -1919.7974
   4348927.00849   3386166.87347  22373589.1154   22373587.9244
     -1405.7974
  -6967729.41149  -5429760.78447  23540761.2874   23540759.7214
       871.2974
 04  9 10 22 50  0.0060000  0  6G 8G13G10G19G27G28
  -3666524.08249  -2849896.37048  22213289.1784   22213287.7214
      -269.4374
  19130428.43548  14895171.71645  23948424.9904   23948424.7714
     -4426.8914
   2513239.20147   1962423.58643  25108432.9124   25108433.0844
     -2040.1564
    261266.91049    206832.20646  24172392.7174   24172390.5414
     -1928.8754
   4370047.09249   3402624.08347  22377607.9674   22377606.8654
     -1409.4694
  -6980755.83249  -5439911.21647  23538282.4754   23538280.9204
       866.2974
 04  9 10 22 50 15.0060000  0  6G 8G13G10G19G27G28
  -3662445.92649  -2846718.58248  22214064.8814   22214064.2994
      -273.5784
  19196873.48948  14946947.05345  23961069.4364   23961069.0804
     -4431.8754
   2543910.24847   1986323.08243  25114269.4754   25114270.4714
     -2048.5624
    290274.02949    229435.15646  24177912.7324   24177910.2324
     -1938.0164
   4391222.67349   3419124.52947  22381637.5214   22381636.3574
     -1413.2034
  -6993708.02749  -5450003.82047  23535817.8654   23535816.1464
       861.3754
 04  9 10 22 50 30.0060000  0  6G 8G13G10G19G27G28
  -3658302.64449  -2843490.04648  22214853.2254   22214852.9364
      -278.5624
  19263396.41949  14998783.08145  23973728.0684   23973727.2524
     -4437.6724
   2574712.07747   2010324.50543  25120130.8814   25120131.4284
     -2057.9844
    319421.44449    252147.43546  24183459.2324   24183457.0334
     -1948.0004
   4412457.09249   3435670.83347  22385678.4514   22385677.3224
     -1417.7664
  -7006582.44549  -5460035.80647  23533367.8814   23533366.2054
       855.5784
 04  9 10 22 50 45.0060000  0  6G 8G13G10G19G27G28
  -3654096.81049  -2840212.77148  22215653.9434   22215652.8034
      -282.8284
  19329994.12448  15050677.36045  23986400.9514   23986400.6894
     -4442.7034
   2605641.84947   2034425.62243  25126016.5064   25126017.1544
     -2066.5474
    348706.56349    274967.00446  24189031.9364   24189029.5924
     -1957.2814
   4433747.82049   3452261.00647  22389729.9904   22389729.0214
     -1421.6094
  -7019381.81749  -5470009.32547  23530932.5214   23530931.0574
       850.4384
 04  9 10 22 51  0.0060000  0  6G 8G13G10G19G27G28
  -3649820.14549  -2836880.30148  22216467.9674   22216466.9364
      -287.3914
  19396674.72348  15102636.24045  23999090.1004   23999089.7914
     -4448.0474
   2636707.61847   2058632.70943  25131927.8424   25131928.2834
     -2075.4844
    378137.53949    297900.23546  24194632.7484   24194630.3734
     -1966.8124
   4455103.18249   3468901.54647  22393793.6704   22393792.7054
     -1425.7504
  -7032097.81449  -5479917.87447  23528512.4124   23528510.8534
       845.1094
 04  9 10 22 51 15.0060000  0  6G 8G13G10G19G27G28
  -3645479.80649  -2833498.21148  22217293.7874   22217293.1274
      -291.3444
  19463430.61848  15154653.78745  24011793.2564   24011792.7284
     -4452.7344
   2667901.96247   2082939.98243  25137864.0214   25137865.1544
     -2083.7664
    407707.02249    320941.38846  24200259.8344   24200257.3264
     -1975.7974
   4476516.04949   3485586.89047  22397868.4594   22397866.8734
     -1429.3124
  -7044737.52249  -5489766.97446  23526107.0374   23526105.3964
       840.2194
 04  9 10 22 51 30.0060000  0  6G 8G13G10G19G27G28
  -3641071.21949  -2830062.94448  22218132.7484   22218131.7174
      -296.4374
  19530266.00948  15206733.28546  24024511.4824   24024511.3224
     -4458.5944
   2699229.09247   2107350.70943  25143825.6394   25143825.8774
     -2093.1564
    437419.51149    344093.97846  24205913.3184   24205911.7524
     -1985.8914
   4497990.87149   3502320.52247  22401954.7094   22401954.0964
     -1434.0314
  -7057296.53049  -5499553.19046  23523717.6624   23523715.7444
       834.2814
 04  9 10 22 51 45.0060000  0  6G 8G13G10G19G27G28
  -3636597.61549  -2826577.00948  22218983.6314   22218982.5804
      -300.4844
  19597177.53348  15258872.10645  24037244.4984   24037244.1314
     -4463.4064
   2730685.65047   2131862.30843  25149811.8114   25149812.1934
     -2101.4694
    467271.52949    367355.30346  24211594.1234   24211592.1544
     -1994.8754
   4519524.65449   3519100.08447  22406052.5534   22406051.2404
     -1437.6254
  -7069777.91949  -5509278.91547  23521342.0764   23521340.6114
       829.4224
 04  9 10 22 52  0.0060000  0  6G 8G13G10G19G27G28
  -3632060.39949  -2823041.50548  22219847.1624   22219846.1074
      -304.9534
  19664163.39748  15311068.84845  24049991.6234   24049991.1034
     -4468.5314
   2762269.86147   2156473.38743  25155821.1864   25155822.3424
     -2110.2664
    497261.49149    390724.11046  24217300.9284   24217299.1194
     -2004.2814
   4541115.81749   3535924.37447  22410161.1624   22410160.0214
     -1441.6874
  -7082183.20449  -5518945.35347  23518981.4204   23518979.8224
       824.1724
 04  9 10 22 52 15.0060000  0  6G 8G13G10G19G27G28
  -3627454.10349  -2819452.19048  22220724.0614   22220722.7684
      -309.2814
  19731228.47148  15363327.31145  24062753.2874   24062753.0024
     -4473.5004
   2793986.71347   2181187.80643  25161857.3894   25161857.9324
     -2118.7664
    527394.58249    414204.43746  24223034.9364   24223032.8654
     -2013.5004
   4562769.75149   3552797.56447  22414281.7094   22414280.6274
     -1445.5314
  -7094507.09349  -5528548.36047  23516636.2404   23516634.8934
       819.0314
 04  9 10 22 52 30.0060000  0  6G 8G13G10G19G27G28
  -3622777.02449  -2815807.69648  22221613.5924   22221612.7754
      -314.1724
  19798374.30948  15415648.71845  24075530.7954   24075530.4164
     -4479.0784
   2825837.80947   2206006.83143  25167917.9514   25167919.3464
     -2127.9374
    557672.56549    437797.68246  24228796.9754   24228795.0024
     -2023.3284
   4584488.23649   3569721.05447  22418414.7014   22418413.5454
     -1450.0474
  -7106747.83549  -5538086.57847  23514306.7794   23514305.1934
       813.2034
 04  9 10 22 52 45.0060000  0  6G 8G13G10G19G27G28
  -3618035.25849  -2812112.80848  22222515.9284   22222515.1784
      -318.1254
  19865594.12148  15468027.75445  24088322.4124   24088321.9324
     -4483.6874
   2857816.41447   2230925.21043  25174003.9124   25174004.0924
     -2136.0474
    588088.76049    461498.62046  24234585.1154   24234582.7134
     -2032.2814
   4606264.96549   3586689.94147  22422558.4364   22422557.2994
     -1453.6254
  -7118911.88049  -5547565.02447  23511992.1234   23511990.5254
       808.5164
 04  9 10 22 53  0.0060000  0  6G 8G13G10G19G27G28
  -3613229.66649  -2808368.18048  22223430.2874   22223429.4514
      -322.4064
  19932886.80248  15520463.57045  24101127.7254   24101127.7484
     -4488.5164
   2889921.63147   2255942.26443  25180113.3424   25180113.4754
     -2144.4694
    618642.43649    485306.68246  24240399.3184   24240396.8424
     -2041.4844
   4628099.19949   3603703.63047  22426713.5454   22426712.5764
     -1457.4534
  -7130999.64249  -5556984.04147  23509691.7404   23509690.0764
       803.4224
 04  9 10 22 53 15.0060000  0  6G 8G13G10G19G27G28
  -3608362.33149  -2804575.44848  22224356.6464   22224356.1154
      -326.6254
  20000249.87748  15572954.25545  24113946.8264   24113946.8264
     -4493.2814
   2922150.80747   2281055.89543  25186245.8344   25186246.8774
     -2152.6874
    649331.00549    509219.85746  24246238.9434   24246236.7134
     -2050.4844
   4649988.63549   3620760.33247  22430878.9284   22430877.7714
     -1461.2034
  -7143013.77149  -5566345.66347  23507405.4594   23507404.4364
       798.4844
 04  9 10 22 53 30.0060000  0  6G 8G13G10G19G27G28
  -3603427.03449  -2800729.75348  22225295.7644   22225295.1354
      -331.4224
  20067689.28648  15625504.40245  24126780.0294   24126779.6864
     -4498.6094
   2954510.14747   2306270.95343  25192404.4284   25192405.0724
     -2161.8284
    680160.71949    533243.01046  24252105.4124   24252103.9044
     -2060.1724
   4671939.77949   3637865.11847  22435056.1864   22435054.9164
     -1465.5944
  -7154947.75049  -5575644.85146  23505134.6314   23505133.3814
       792.7974
 04  9 10 22 53 45.0060000  0  6G 8G13G10G19G27G28
  -3598422.44349  -2796830.06848  22226248.3034   22226247.1354
      -336.7974
  20135206.05048  15678114.83545  24139627.7484   24139627.9474
     -4504.5784
   2987000.71847   2331588.27343  25198586.8264   25198587.2954
     -2171.2664
    711132.87249    557377.15346  24257999.4204   24257997.1034
     -2070.3914
   4693953.99349   3655019.04247  22439245.3814   22439244.1234
     -1470.5624
  -7166800.30449  -5584880.59647  23502879.5214   23502877.3614
       786.6564
 04  9 10 22 54  0.0060000  0  6G 8G13G10G19G27G28
  -3593346.12049  -2792874.48448  22227214.2014   22227213.6114
      -341.0004
  20202802.32248  15730787.22145  24152491.3184   24152491.5494
     -4509.1724
   3019624.60547   2357009.45443  25204795.1464   25204794.9324
     -2179.5784
    742249.66349    581624.01146  24263920.8964   24263918.6114
     -2079.4694
   4716033.46649   3672223.82947  22443447.2644   22443446.3774
     -1474.3284
  -7178569.07448  -5594051.03247  23500639.3184   23500638.1624
       781.6094
 04  9 10 22 54 15.0060000  0  6G 8G13G10G19G27G28
  -3588203.74249  -2788867.43648  22228192.8114   22228191.9204
      -344.6254
  20270472.04048  15783516.84245  24165368.4984   24165368.0144
     -4513.3444
   3052375.74947   2382529.81543  25211027.5764   25211027.7564
     -2187.1724
    773505.21749    605978.98746  24269868.2954   24269866.4394
     -2087.9224
   4738172.70249   3689475.17947  22447659.7954   22447658.2444
     -1477.5004
  -7190259.77049  -5603160.64247  23498414.7254   23498413.4364
       777.1884
 04  9 10 22 54 30.0060000  0  6G 8G13G10G19G27G28
  -3582996.83749  -2784810.09348  22229183.9674   22229182.9434
      -349.1724
  20338213.21648  15836302.14445  24178258.8734   24178258.8814
     -4518.3594
   3085252.25447   2408147.85443  25217283.7564   25217284.1784
     -2195.7814
    804897.73949    630440.69146  24275842.3654   24275840.0494
     -2097.3284
   4760370.06549   3706771.82247  22451884.0214   22451882.3384
     -1481.6414
  -7201873.97449  -5612210.65347  23496204.8654   23496203.3184
       771.8134
 04  9 10 22 54 45.0060000  0  6G 8G13G10G19G27G28
  -3577724.33849  -2780701.65248  22230187.3264   22230186.1004
      -353.8914
  20406026.57748  15889143.69645  24191163.6864   24191163.5454
     -4523.4694
   3118254.90847   2433864.20843  25223564.2714   25223564.6934
     -2204.6254
    836428.11349    655009.81746  24281842.3504   24281840.0644
     -2106.8124
   4782626.58949   3724114.57147  22456119.4434   22456118.0334
     -1485.9534
  -7213410.67049  -5621200.26547  23494009.4754   23494007.9324
       766.3594
 04  9 10 22 55  0.0060000  0  6G 8G13G10G19G27G28
  -3572383.34449  -2776539.82848  22231203.6154   22231202.1664
      -357.9064
  20473914.70748  15942043.49245  24204082.1544   24204082.0644
     -4527.9374
   3151386.40447   2459680.94143  25229868.2644   25229868.7324
     -2212.6724
    868099.12949    679688.53946  24287869.3424   24287866.6034
     -2115.7034
   4804945.29849   3741505.77447  22460366.3424   22460365.3934
     -1489.5624
  -7224866.98949  -5630127.24247  23491829.3264   23491827.5924
       761.4694
 04  9 10 22 55 15.0060000  0  6G 8G13G10G19G27G28
  -3566976.34449  -2772326.57648  22232232.3654   22232230.8074
      -363.1094
  20541874.64948  15994999.25545  24217014.5614   24217014.1624
     -4533.5624
   3184643.83047   2485595.80143  25236197.1864   25236197.7404
     -2221.8914
    899907.97749    704474.65846  24293922.2954   24293919.7404
     -2125.6724
   4827323.47249   3758943.30847  22464624.6074   22464624.0684
     -1494.3444
  -7236245.53249  -5638993.62647  23489664.2174   23489662.2604
       755.5314
 04  9 10 22 55 30.0060000  0  6G 8G13G10G19G27G28
  -3561499.89249  -2768059.19948  22233274.7014   22233273.1034
      -367.4694
  20609909.44748  16048013.35345  24229961.2094   24229960.8184
     -4538.2344
   3218030.46247   2511611.35743  25242550.5144   25242550.7604
     -2230.2034
    931858.01048    729370.79146  24300001.9124   24299999.4124
     -2134.7974
   4849764.63949   3776429.94047  22468895.2324   22468894.0724
     -1498.2504
  -7247542.79349  -5647796.66147  23487514.2954   23487512.7644
       750.4064
 04  9 10 22 55 45.0060000  0  6G 8G13G10G19G27G28
  -3555952.56049  -2763736.59448  22234330.0214   22234328.7364
      -372.3124
  20678020.32748  16101086.74245  24242922.3424   24242921.9984
     -4543.3124
   3251547.42747   2537728.48043  25248928.3184   25248928.8574
     -2238.9534
    963950.46149    754377.90146  24306109.2174   24306106.3464
     -2144.3444
   4872270.42349   3793966.92347  22473178.0144   22473176.4984
     -1502.6724
  -7258757.52849  -5656535.39247  23485380.3504   23485378.5454
       744.7974
 04  9 10 22 56  0.0060000  0  6G 8G13G10G19G27G28
  -3550340.41949  -2759363.49248  22235398.1004   22235396.9124
      -376.2814
  20746200.63948  16154214.21445  24255896.6074   24255896.1274
     -4547.6564
   3285188.13047   2563941.98643  25255329.6624   25255330.5724
     -2246.8124
    996178.87349    779490.95546  24312242.0924   24312239.3074
     -2153.0474
   4894834.34249   3811549.18847  22477472.0374   22477470.6154
     -1506.1254
  -7269895.89449  -5665214.62547  23483260.6154   23483258.9984
       740.0314
 04  9 10 22 56 15.0060000  0  6G 8G13G10G19G27G28
  -3544659.20349  -2754936.57148  22236479.1934   22236477.6394
      -381.3444
  20814454.35748  16207398.89245  24268884.7404   24268884.5184
     -4552.9844
   3318956.66047   2590255.13143  25261755.9044   25261756.5294
     -2255.8914
   1028547.52949    804713.28446  24318401.5214   24318398.7994
     -2162.9064
   4917460.91149   3829180.27847  22481777.3504   22481776.4364
     -1510.8444
  -7280953.64749  -5673831.03647  23481156.4754   23481154.6354
       734.2344
 04  9 10 22 56 30.0060000  0  6G 8G13G10G19G27G28
  -3538909.41949  -2750456.19848  22237573.4204   22237572.0024
      -385.2814
  20882780.78348  16260640.23545  24281887.2014   24281886.3504
     -4557.2034
   3352852.23047   2616667.25243  25268206.2564   25268206.8654
     -2263.4844
   1061055.77549    830044.38846  24324587.3184   24324584.7834
     -2171.5164
   4940149.62949   3846859.80147  22486095.0534   22486093.8574
     -1514.4064
  -7291931.14549  -5682384.90047  23479067.3574   23479065.6974
       729.4224
 04  9 10 22 56 45.0060000  0  7G29G 8G13G10G19G27G28
    -77633.00157    -55276.97653  26087769.4124   26087769.3384
      1967.0944
  -3533095.41749  -2745925.80648  22238679.7794   22238678.7604
      -389.8594
  20951175.09248  16313934.45745  24294902.2174   24294901.4164
     -4562.0004
   3386870.07848   2643174.64743  25274679.4364   25274680.0184
     -2271.9844
   1093698.92349    855480.62346  24330799.3734   24330797.0254
     -2180.8124
   4962896.02349   3864584.26547  22490423.3814   22490421.8074
     -1518.3754
  -7302832.96349  -5690879.79947  23476992.7404   23476991.2094
       724.1884
 04  9 10 22 57  0.0060000  0  7G29G 8G13G10G19G27G28
   -107124.64547    -78257.40842  26082157.4674   26082158.0724
      1964.5634
  -3527218.35149  -2741346.26248  22239797.8654   22239796.7874
      -394.4534
  21019635.86448  16367280.49245  24307929.7714   24307929.4634
     -4566.7974
   3421008.80247   2669776.23844  25281175.2874   25281176.5924
     -2280.5164
   1126475.68849    881020.95746  24337036.1624   24337034.4674
     -2190.0624
   4985699.17449   3882352.96648  22494762.8654   22494761.5764
     -1522.6414
  -7313660.17349  -5699316.55947  23474932.4754   23474930.7684
       718.7974
 04  9 10 22 57 15.0060000  0  7G29G 8G13G10G19G27G28
   -136581.37347   -101210.69142  26076550.9824   26076552.5644
      1962.2974
  -3521274.82649  -2736714.94048  22240928.6934   22240927.5184
      -398.8284
  21088165.98948  16420680.54645  24320970.7484   24320970.1114
     -4571.3444
   3455271.40147   2696474.36143  25287695.8344   25287696.6394
     -2288.6254
   1159389.17249    906667.82146  24343299.8894   24343297.7914
     -2199.1724
   5008562.20049   3900168.30447  22499113.2644   22499112.3424
     -1526.5314
  -7324409.55149  -5707692.68647  23472887.0374   23472884.7684
       713.7194
 04  9 10 22 57 30.0060000  0  7G29G 8G13G10G19G27G28
   -165999.48347   -124133.86142  26070953.3114   26070953.8114
      1959.9064
  -3515261.60549  -2732029.31148  22242073.5534   22242072.7324
      -403.2664
  21156768.36348  16474136.91845  24334025.4824   24334025.0454
     -4575.9374
   3489660.83347   2723271.31144  25294240.2404   25294241.1314
     -2296.8914
   1192442.47349    932423.64346  24349589.5214   24349587.7834
     -2208.2664
   5031488.39249   3918032.87147  22503475.8894   22503475.0294
     -1530.5944
  -7335077.90949  -5716005.67647  23470856.7954   23470854.9164
       708.4844
 04  9 10 22 57 45.0060000  0  7G29G 8G13G10G19G27G28
   -195380.89547   -147028.42642  26065361.7874   26065362.7214
      1957.7194
  -3509180.78449  -2727291.00648  22243230.4364   22243229.0254
      -407.4844
  21225440.69648  16527647.78445  24347093.0144   24347092.8144
     -4580.3914
   3524174.89647   2750165.36043  25300806.8424   25300808.3774
     -2304.9064
   1225633.44949    958286.74046  24355905.5844   24355903.5724
     -2217.1724
   5054475.84549   3935945.17447  22507850.1394   22507848.8614
     -1534.3914
  -7345667.25749  -5724257.09947  23468841.4984   23468840.1394
       703.5164
 04  9 10 22 58  0.0060000  0  7G29G 8G13G10G19G27G28
   -224725.02047   -169893.94442  26059777.9984   26059779.1314
      1955.2034
  -3503031.76049  -2722499.54948  22244400.7794   22244399.8344
      -411.9844
  21294182.91548  16581213.12545  24360174.5454   24360173.8574
     -4584.9374
   3558813.46447   2777156.43244  25307399.5684   25307400.1194
     -2313.1724
   1258962.15648    984257.15546  24362248.0924   24362245.7094
     -2226.3444
   5077524.78949   3953905.39447  22512236.8344   22512235.1034
     -1538.4534
  -7356177.28549  -5732446.70747  23466841.7094   23466840.0454
       698.2814
 04  9 10 22 58 15.0060000  0  7G29G 8G13G10G19G27G28
   -254033.29147   -192731.52542  26054201.1314   26054202.0614
      1952.7194
  -3496816.33049  -2717656.36348  22245583.4674   22245581.9244
      -416.4844
  21362992.97148  16634831.29745  24373268.6624   24373268.2134
     -4589.4694
   3593574.45847   2804242.92143  25314014.4124   25314014.8074
     -2321.2814
   1292426.69848   1010333.42846  24368615.5614   24368613.6704
     -2235.3444
   5100633.43749   3971912.12547  22516634.1544   22516632.7954
     -1542.4224
  -7366609.82149  -5740575.93947  23464856.2404   23464854.2714
       693.0314
 04  9 10 22 58 30.0060000  0  7G29G 8G13G10G19G27G28
   -283309.11147   -215543.79342  26048630.1234   26048630.7644
      1950.2034
  -3490537.82649  -2712763.99848  22246778.1004   22246776.6744
      -421.1564
  21431867.13048  16688499.44645  24386375.3034   24386374.6234
     -4594.1564
   3628454.26747   2831421.99844  25320651.1394   25320651.9784
     -2329.7194
   1326023.41048   1036512.69846  24375009.1314   24375006.8304
     -2244.5624
   5123798.54149   3989962.87547  22521041.9434   22521040.7994
     -1546.6414
  -7376968.25949  -5748647.41947  23462885.0844   23462883.2524
       687.7194
 04  9 10 22 58 45.0060000  0  7G29G 8G13G10G19G27G28
   -312543.02047   -238323.39042  26043067.2404   26043067.7254
      1947.2344
  -3484187.06649  -2707815.35448  22247986.4904   22247985.2604
      -426.1414
  21500814.04348  16742224.27745  24399495.0614   24399494.8264
     -4599.2194
   3663461.65847   2858700.46143  25327313.4674   25327313.7284
     -2338.4064
   1359761.32948   1062801.97346  24381429.5844   24381427.1974
     -2254.2344
   5147029.25449   4008064.72547  22525462.9984   22525461.6394
     -1551.2504
  -7387243.46949  -5756654.06547  23460929.7874   23460927.6744
       681.9064
 04  9 10 22 59  0.0060000  0  7G29G 8G13G10G19G27G28
   -341736.27947   -261071.37942  26037511.2094   26037511.9084
      1944.9224
  -3477765.63849  -2702811.64148  22249208.7254   22249207.4244
      -430.3124
  21569831.96648  16796004.44445  24412628.4044   24412628.2914
     -4603.4374
   3698594.87247   2886076.98343  25333999.2174   25333999.5964
     -2346.2034
   1393638.73148   1089199.95546  24387876.0534   24387873.7954
     -2263.0164
   5170324.08549   4026216.54447  22529895.3964   22529894.9634
     -1555.0004
  -7397437.04948  -5764597.09547  23458990.2254   23458988.2914
       677.0004
 04  9 10 22 59 15.0060000  0  7G29G 8G13G10G19G27G28
   -370891.26647   -283789.51742  26031963.1784   26031963.9394
      1942.5784
  -3471276.30549  -2697755.01648  22250443.2174   22250442.3534
      -434.6874
  21638917.75748  16849837.48345  24425775.5454   24425774.7404
     -4607.7814
   3733850.92346   2913549.18643  25340708.1544   25340708.7834
     -2354.3444
   1427652.78448   1115704.40846  24394349.0684   24394346.2364
     -2271.9844
   5193680.28649   4044416.17147  22534340.0534   22534338.7994
     -1558.9224
  -7407551.70948  -5772478.63447  23457065.6544   23457063.8224
       671.8444
 04  9 10 22 59 30.0060000  0  7G29G 8G13G10G19G27G28
   -400006.22447   -306476.43042  26026422.5684   26026423.4004
      1939.9694
  -3464717.09549  -2692643.93848  22251691.7094   22251690.3264
      -439.2974
  21708073.02248  16903724.67045  24438935.1234   24438934.8304
     -4612.2974
   3769231.16547   2941118.20343  25347440.9364   25347441.3774
     -2362.5474
   1461805.04748   1142316.55446  24400847.8344   24400845.3814
     -2281.1874
   5217099.70049   4062665.06947  22538796.4824   22538795.1974
     -1563.0944
  -7417585.66348  -5780297.27647  23455156.1394   23455153.9364
       666.5474
 04  9 10 22 59 45.0060000  0  7G29G 8G13G10G19G27G28
   -429082.03547   -329132.89842  26020890.6544   26020890.4164
      1936.9534
  -3458089.21249  -2687479.34548  22252952.8894   22252951.6274
      -444.2504
  21777296.00748  16957664.62345  24452107.5924   24452107.7324
     -4617.1564
   3804734.02847   2968782.76744  25354196.4044   25354197.3304
     -2371.0004
   1496093.90548   1169035.14846  24407372.4824   24407370.5184
     -2290.5474
   5240580.97749   4080962.16747  22543265.0064   22543263.4554
     -1567.6094
  -7427540.32448  -5788054.14847  23453262.1234   23453260.0024
       660.9224
 04  9 10 23  0  0.0060000  0  7G29G 8G13G10G19G27G28
   -458116.34547   -351757.00442  26015365.0534   26015365.8424
      1934.3444
  -3451390.59949  -2682259.63948  22254227.6234   22254226.5764
      -448.8284
  21846588.62648  17011658.82945  24465294.2644   24465294.0924
     -4621.7504
   3840361.39247   2996544.32944  25360976.2174   25360976.8184
     -2379.2814
   1530521.55148   1195861.88146  24413923.9434   24413921.4824
     -2299.7344
   5264126.41049   4099309.26047  22547745.9124   22547744.4324
     -1571.7504
  -7437413.50048  -5795747.51047  23451383.0144   23451380.7834
       655.5784
 04  9 10 23  0 15.0060000  0  8G29G 8G13G10G19G31G27G28
   -487110.60747   -374349.88442  26009847.6864   26009847.8694
      1931.7664
  -3444622.90649  -2676986.12048  22255515.3344   22255514.7794
      -453.3284
  21915948.79648  17065705.68045  24478492.7094   24478492.7174
     -4626.0944
   3876111.22547   3024401.30943  25367779.4754   25367779.8344
     -2387.2194
   1565085.99848   1222795.21346  24420501.4204   24420498.4674
     -2308.6414
   -100754.41056    -62538.53852  25875863.2564   25875865.0104
      2635.5314
   5287734.34449   4117705.04247  22552237.9514   22552237.1114
     -1575.7974
  -7447206.81448  -5803378.65347  23449519.2094   23449517.2714
       650.4224
 04  9 10 23  0 30.0060000  0  8G29G 8G13G10G19G31G27G28
   -516067.09547   -396913.33242  26004337.3814   26004337.4594
      1929.1564
  -3437788.49549  -2671660.59248  22256815.6704   22256815.0614
      -457.8124
  21985373.67148  17119802.96045  24491704.0764   24491703.6974
     -4630.4374
   3911980.92046   3052351.71743  25374604.5764   25374605.4634
     -2395.1874
   1599784.63948   1249833.11546  24427104.2714   24427101.7644
     -2317.6414
   -140281.92446    -93339.07342  25868341.3424   25868343.2914
      2635.0314
   5311402.24349   4136147.57347  22556741.8814   22556740.9084
     -1579.7814
  -7456922.80848  -5810949.53147  23447670.3814   23447668.6504
       645.3134
 04  9 10 23  0 45.0060000  0  8G29G 8G13G10G19G31G27G28
   -544985.34747   -419447.01442  25998834.3344   25998834.8964
      1926.5784
  -3430887.13149  -2666282.89548  22258128.9824   22258128.3144
      -462.2664
  22054863.18748  17173950.59845  24504927.5684   24504926.9204
     -4634.7504
   3947970.35546   3080395.41643  25381453.2714   25381454.3384
     -2403.3284
   1634617.49548   1276975.59846  24433733.1004   24433730.5804
     -2326.6414
   -179805.67646   -124136.71142  25860820.2404   25860822.1934
      2634.7664
   5335130.35049   4154637.00847  22561257.3814   22561256.0844
     -1583.7974
  -7466561.38948  -5818460.09847  23445836.0454   23445834.3304
       640.0474
